[[{"header":{"parameterUnit":"m.s-1","parameterCategory":1,"la1":30.6,"la2":28.766,"lo1":-90.7593,"lo2":-88.6598,"dy":0.0162,"dx":0.0183,"nx":116,"ny":114,"refTime":"2023-05-10T12:00:00:Z","depth":0,"parameterNumber":2,"parameterNumberName":"U-component_of_WINDS"},"data":[0.0,0.0,0.0,0.0,0.0,0.0,0.0,0.0,0.0,0.0,0.0,0.0,0.0,0.0,0.0,0.0,0.0,0.0,0.0,0.0,0.0,0.0,0.0,0.0,0.0,0.0,0.0,0.0,0.0,0.0,0.0,0.0,0.0,0.0,0.0,0.0,0.0,0.0,0.0,0.0,0.0,0.0,0.0,0.0,0.0,0.0,0.0,0.0,0.0,0.0,0.0,0.0,0.0,0.0,0.0,0.0,0.0,0.0,0.0,0.0,0.0,0.0,0.0,0.0,0.0,0.0,0.0,0.0,0.0,0.0,0.0,0.0,0.0,0.0,0.0,0.0,0.0,0.0,0.0,0.0,0.0,0.0,0.0,0.0,0.0,0.0,0.0,0.0,0.0,0.0,0.0,0.0,0.0,0.0,0.0,0.0,0.0,0.0,0.0,0.0,0.0,0.0,0.0,0.0,0.0,0.0,0.0,0.0,0.0,0.0,0.0,0.0,0.0,0.0,0.0,0.0,0.0,0.0,0.0,0.0,0.0,0.0,0.0,0.0,0.0,0.0,0.0,0.0,0.0,0.0,0.0,0.0,0.0,0.0,0.0,0.0,0.0,0.0,0.0,0.0,0.0,0.0,0.0,0.0,0.0,0.0,0.0,0.0,0.0,0.0,0.0,0.0,0.0,0.0,0.0,0.0,0.0,0.0,0.0,0.0,0.0,0.0,0.0,0.0,0.0,0.0,0.0,0.0,0.0,0.0,0.0,0.0,0.0,0.0,0.0,0.0,0.0,0.0,0.0,0.0,0.0,0.0,0.0,0.0,0.0,0.0,0.0,0.0,0.0,0.0,0.0,0.0,0.0,0.0,0.0,0.0,0.0,0.0,0.0,0.0,0.0,0.0,0.0,0.0,0.0,0.0,0.0,0.0,0.0,0.0,0.0,0.0,0.0,0.0,0.0,0.0,0.0,0.0,0.0,0.0,0.0,0.0,0.0,0.0,0.0,0.0,0.0,0.0,0.0,0.0,0.0,0.0,0.0,0.0,0.0,0.0,0.0,0.0,0.0,0.0,0.0,0.0,0.0,0.0,0.0,0.0,0.0,0.0,0.0,0.0,0.0,0.0,0.0,0.0,0.0,0.0,0.0,0.0,0.0,0.0,0.0,0.0,0.0,0.0,0.0,0.0,0.0,0.0,0.0,0.0,0.0,0.0,0.0,0.0,0.0,0.0,0.0,0.0,0.0,0.0,0.0,0.0,0.0,0.0,0.0,0.0,0.0,0.0,0.0,0.0,0.0,0.0,0.0,0.0,0.0,0.0,0.0,0.0,0.0,0.0,0.0,0.0,0.0,0.0,0.0,0.0,0.0,0.0,0.0,0.0,0.0,0.0,0.0,0.0,0.0,0.0,0.0,0.0,0.0,0.0,0.0,0.0,0.0,0.0,0.0,0.0,0.0,0.0,0.0,0.0,0.0,0.0,0.0,0.0,0.0,0.0,0.0,0.0,0.0,0.0,0.0,0.0,0.0,0.0,0.0,0.0,0.0,0.0,0.0,0.0,0.0,0.0,0.0,0.0,0.0,0.0,0.0,0.0,0.0,0.0,0.0,0.0,0.0,0.0,0.0,0.0,0.0,0.0,0.0,0.0,0.0,0.0,0.0,0.0,0.0,0.0,0.0,0.0,0.0,0.0,0.0,0.0,0.0,0.0,0.0,0.0,0.0,0.0,0.0,0.0,0.0,0.0,0.0,0.0,0.0,0.0,0.0,0.0,0.0,0.0,0.0,0.0,0.0,0.0,0.0,0.0,0.0,0.0,0.0,0.0,0.0,0.0,0.0,0.0,0.0,0.0,0.0,0.0,0.0,0.0,0.0,0.0,0.0,0.0,0.0,0.0,0.0,0.0,0.0,0.0,0.0,0.0,0.0,0.0,0.0,0.0,0.0,0.0,0.0,0.0,0.0,0.0,0.0,0.0,0.0,0.0,0.0,0.0,0.0,0.0,0.0,0.0,0.0,0.0,0.0,0.0,0.0,0.0,0.0,0.0,0.0,0.0,0.0,0.0,0.0,0.0,0.0,0.0,0.0,0.0,0.0,0.0,0.0,0.0,0.0,0.0,0.0,0.0,0.0,0.0,0.0,0.0,0.0,0.0,0.0,0.0,0.0,0.0,0.0,0.0,0.0,0.0,0.0,0.0,0.0,0.0,0.0,0.0,0.0,0.0,0.0,0.0,0.0,0.0,0.0,0.0,0.0,0.0,0.0,0.0,0.0,0.0,0.0,0.0,0.0,0.0,0.0,0.0,0.0,0.0,0.0,0.0,0.0,0.0,0.0,0.0,0.0,0.0,0.0,0.0,0.0,0.0,0.0,0.0,0.0,0.0,0.0,0.0,0.0,0.0,0.0,0.0,0.0,0.0,0.0,0.0,0.0,0.0,0.0,0.0,0.0,0.0,0.0,0.0,0.0,0.0,0.0,0.0,0.0,0.0,0.0,0.0,0.0,0.0,0.0,0.0,0.0,0.0,0.0,0.0,0.0,0.0,0.0,0.0,0.0,0.0,0.0,0.0,0.0,0.0,0.0,0.0,0.0,0.0,0.0,0.0,0.0,0.0,0.0,0.0,0.0,0.0,0.0,0.0,0.0,0.0,0.0,0.0,0.0,0.0,0.0,0.0,0.0,0.0,0.0,0.0,0.0,0.0,0.0,0.0,0.0,0.0,0.0,0.0,0.0,0.0,0.0,0.0,0.0,0.0,0.0,0.0,0.0,0.0,0.0,0.0,0.0,0.0,0.0,0.0,0.0,0.0,0.0,0.0,0.0,0.0,0.0,0.0,0.0,0.0,0.0,0.0,0.0,0.0,0.0,0.0,0.0,0.0,0.0,0.0,0.0,0.0,0.0,0.0,0.0,0.0,0.0,0.0,0.0,0.0,0.0,0.0,0.0,0.0,0.0,0.0,0.0,0.0,0.0,0.0,0.0,0.0,0.0,0.0,0.0,0.0,0.0,0.0,0.0,0.0,0.0,0.0,0.0,0.0,0.0,0.0,0.0,0.0,0.0,0.0,0.0,0.0,0.0,0.0,0.0,0.0,0.0,0.0,0.0,0.0,0.0,0.0,0.0,0.0,0.0,0.0,0.0,0.0,0.0,0.0,0.0,0.0,0.0,0.0,0.0,0.0,0.0,0.0,0.0,0.0,0.0,0.0,0.0,0.0,0.0,0.0,0.0,0.0,0.0,0.0,0.0,0.0,0.0,0.0,0.0,0.0,0.0,0.0,0.0,0.0,0.0,0.0,0.0,0.0,0.0,0.0,0.0,0.0,0.0,0.0,0.0,0.0,0.0,0.0,0.0,0.0,0.0,0.0,0.0,0.0,0.0,0.0,0.0,0.0,0.0,0.0,0.0,0.0,0.0,0.0,0.0,0.0,0.0,0.0,0.0,0.0,0.0,0.0,0.0,0.0,0.0,0.0,0.0,0.0,0.0,0.0,0.0,0.0,0.0,0.0,0.0,0.0,0.0,0.0,0.0,0.0,0.0,0.0,0.0,0.0,0.0,0.0,0.0,0.0,0.0,0.0,0.0,0.0,0.0,0.0,0.0,0.0,0.0,0.0,0.0,0.0,0.0,0.0,0.0,0.0,0.0,0.0,0.0,0.0,0.0,0.0,0.0,0.0,0.0,0.0,0.0,0.0,0.0,0.0,0.0,0.0,0.0,0.0,0.0,0.0,0.0,0.0,0.0,0.0,0.0,0.0,0.0,0.0,0.0,0.0,0.0,0.0,0.0,0.0,0.0,0.0,0.0,0.0,0.0,0.0,0.0,0.0,0.0,0.0,0.0,0.0,0.0,0.0,0.0,0.0,0.0,0.0,0.0,0.0,0.0,0.0,0.0,0.0,0.0,0.0,0.0,0.0,0.0,0.0,0.0,0.0,0.0,0.0,0.0,0.0,0.0,0.0,0.0,0.0,0.0,0.0,0.0,0.0,0.0,0.0,0.0,0.0,0.0,0.0,0.0,0.0,0.0,0.0,0.0,0.0,0.0,0.0,0.0,0.0,0.0,0.0,0.0,0.0,0.0,0.0,0.0,0.0,0.0,0.0,0.0,0.0,0.0,0.0,0.0,0.0,0.0,0.0,0.0,0.0,0.0,0.0,0.0,0.0,0.0,0.0,0.0,0.0,0.0,0.0,0.0,0.0,0.0,0.0,0.0,0.0,0.0,0.0,0.0,0.0,0.0,0.0,0.0,0.0,0.0,0.0,0.0,0.0,0.0,0.0,0.0,0.0,0.0,0.0,0.0,0.0,0.0,0.0,0.0,0.0,0.0,0.0,0.0,0.0,0.0,0.0,0.0,0.0,0.0,0.0,0.0,0.0,0.0,0.0,0.0,0.0,0.0,0.0,0.0,0.0,0.0,0.0,0.0,0.0,0.0,0.0,0.0,0.0,0.0,0.0,0.0,0.0,0.0,0.0,0.0,0.0,0.0,0.0,0.0,0.0,0.0,0.0,0.0,0.0,0.0,0.0,0.0,0.0,0.0,0.0,0.0,0.0,0.0,0.0,0.0,0.0,0.0,0.0,0.0,0.0,0.0,0.0,0.0,0.0,0.0,0.0,0.0,0.0,0.0,0.0,0.0,0.0,0.0,0.0,0.0,0.0,0.0,0.0,0.0,0.0,0.0,0.0,0.0,0.0,0.0,0.0,0.0,0.0,0.0,0.0,0.0,0.0,0.0,0.0,0.0,0.0,0.0,0.0,0.0,0.0,0.0,0.0,0.0,0.0,0.0,0.0,0.0,0.0,0.0,0.0,0.0,0.0,0.0,0.0,0.0,0.0,0.0,0.0,0.0,0.0,0.0,0.0,0.0,0.0,0.0,0.0,0.0,0.0,0.0,0.0,0.0,0.0,0.0,0.0,0.0,0.0,0.0,0.0,0.0,0.0,0.0,0.0,0.0,0.0,0.0,0.0,0.0,0.0,0.0,0.0,0.0,0.0,0.0,0.0,0.0,0.0,0.0,0.0,0.0,0.0,0.0,0.0,0.0,0.0,0.0,0.0,0.0,0.0,0.0,0.0,0.0,0.0,0.0,0.0,0.0,0.0,0.0,0.0,0.0,0.0,0.0,0.0,0.0,0.0,0.0,0.0,0.0,0.0,0.0,0.0,0.0,0.0,0.0,0.0,0.0,0.0,0.0,0.0,0.0,0.0,0.0,0.0,0.0,0.0,0.0,0.0,0.0,0.0,0.0,0.0,0.0,0.0,0.0,0.0,0.0,0.0,0.0,0.0,0.0,0.0,0.0,0.0,0.0,0.0,0.0,0.0,0.0,0.0,0.0,0.0,0.0,0.0,0.0,0.0,0.0,0.0,0.0,0.0,0.0,0.0,0.0,0.0,0.0,0.0,0.0,0.0,0.0,0.0,0.0,0.0,0.0,0.0,0.0,0.0,0.0,0.0,0.0,0.0,0.0,0.0,0.0,0.0,0.0,0.0,0.0,0.0,0.0,0.0,0.0,0.0,0.0,0.0,0.0,0.0,0.0,0.0,0.0,0.0,0.0,0.0,0.0,0.0,0.0,0.0,0.0,0.0,0.0,0.0,0.0,0.0,0.0,0.0,0.0,0.0,0.0,0.0,0.0,0.0,0.0,0.0,0.0,0.0,0.0,0.0,0.0,0.0,0.0,0.0,0.0,0.0,0.0,0.0,0.0,0.0,0.0,0.0,0.0,0.0,0.0,0.0,0.0,0.0,0.0,0.0,0.0,0.0,0.0,0.0,0.0,0.0,0.0,0.0,0.0,0.0,0.0,0.0,0.0,0.0,0.0,0.0,0.0,0.0,0.0,0.0,0.0,0.0,0.0,0.0,0.0,0.0,0.0,0.0,0.0,0.0,0.0,0.0,0.0,0.0,0.0,0.0,0.0,0.0,0.0,0.0,0.0,0.0,0.0,0.0,0.0,0.0,0.0,0.0,0.0,0.0,0.0,0.0,0.0,0.0,0.0,0.0,0.0,0.0,0.0,0.0,0.0,0.0,0.0,0.0,0.0,0.0,0.0,0.0,0.0,0.0,0.0,0.0,0.0,0.0,0.0,0.0,0.0,0.0,0.0,0.0,0.0,0.0,-1.5581,0.0,0.0,0.0,0.0,0.0,0.0,0.0,0.0,0.0,0.0,0.0,0.0,0.0,0.0,0.0,0.0,0.0,0.0,0.0,0.0,0.0,0.0,0.0,0.0,0.0,0.0,0.0,0.0,0.0,0.0,0.0,0.0,0.0,0.0,0.0,0.0,0.0,0.0,-1.3789,-1.4183,-1.4584,-1.4955,-1.4874,-1.4686,-1.4453,0.0,0.0,0.0,0.0,0.0,0.0,0.0,0.0,0.0,0.0,0.0,0.0,0.0,0.0,0.0,0.0,0.0,0.0,0.0,0.0,0.0,0.0,0.0,0.0,0.0,0.0,0.0,0.0,0.0,0.0,0.0,0.0,0.0,0.0,0.0,0.0,0.0,0.0,0.0,0.0,0.0,0.0,0.0,0.0,0.0,0.0,0.0,0.0,0.0,0.0,0.0,0.0,0.0,0.0,0.0,0.0,0.0,0.0,0.0,0.0,0.0,0.0,0.0,0.0,0.0,0.0,0.0,0.0,0.0,0.0,0.0,-1.6353,0.0,0.0,0.0,0.0,0.0,0.0,0.0,0.0,0.0,0.0,0.0,0.0,0.0,0.0,0.0,0.0,0.0,0.0,0.0,0.0,0.0,0.0,0.0,-1.6316,-1.6389,-1.6022,-1.6169,-1.5897,0.0,0.0,0.0,0.0,0.0,0.0,-1.506,-1.4851,-1.4766,-1.4814,-1.5534,-1.6308,-1.7117,-1.7315,-1.6858,-1.584,-1.529,0.0,0.0,0.0,0.0,0.0,0.0,0.0,0.0,0.0,0.0,0.0,0.0,0.0,0.0,0.0,0.0,0.0,0.0,0.0,0.0,0.0,0.0,0.0,0.0,0.0,0.0,0.0,0.0,0.0,0.0,0.0,0.0,0.0,0.0,0.0,0.0,0.0,0.0,0.0,0.0,0.0,0.0,0.0,0.0,0.0,0.0,0.0,0.0,0.0,0.0,0.0,0.0,0.0,0.0,0.0,0.0,0.0,0.0,0.0,0.0,0.0,0.0,0.0,-2.3385,-2.3772,-2.3938,-2.4241,-2.4304,-2.4035,-2.0827,-1.8709,-1.7462,-1.7023,0.0,0.0,0.0,0.0,0.0,0.0,0.0,0.0,0.0,0.0,0.0,0.0,0.0,0.0,0.0,0.0,0.0,0.0,0.0,0.0,0.0,-1.6786,-1.6894,-1.6396,-1.6663,-1.6829,-1.6691,0.0,0.0,0.0,0.0,0.0,-1.6444,-1.5947,-1.5942,-1.6413,-1.8203,-1.9513,-2.0313,-2.1323,-2.1174,-1.9973,-1.719,-1.6378,-1.7051,0.0,0.0,0.0,0.0,0.0,0.0,0.0,0.0,0.0,0.0,0.0,0.0,0.0,0.0,0.0,0.0,0.0,0.0,0.0,0.0,0.0,0.0,0.0,0.0,0.0,0.0,0.0,0.0,0.0,0.0,0.0,0.0,0.0,0.0,0.0,0.0,0.0,0.0,0.0,0.0,0.0,-1.6934,-1.8233,0.0,0.0,0.0,0.0,0.0,0.0,0.0,0.0,0.0,0.0,0.0,0.0,0.0,-2.3095,-2.3675,-2.4058,-2.4122,-2.3798,-2.5092,-2.5287,-2.4458,-2.5407,-2.5817,-2.5733,-2.4795,0.0,-2.0542,-1.8321,0.0,0.0,0.0,0.0,0.0,0.0,0.0,0.0,0.0,0.0,0.0,0.0,0.0,0.0,0.0,0.0,0.0,0.0,0.0,0.0,0.0,-1.7686,-1.8248,-1.7162,-1.871,-1.9133,-1.7671,-1.8617,0.0,0.0,0.0,-1.7751,-1.7533,-1.7242,-1.7763,-1.917,-2.0647,-2.1783,-2.2554,-2.3164,-2.3258,-2.2798,-2.0933,-1.9105,-1.7376,-1.6758,0.0,0.0,0.0,0.0,0.0,0.0,0.0,0.0,0.0,0.0,0.0,0.0,0.0,0.0,0.0,0.0,0.0,0.0,0.0,0.0,0.0,0.0,0.0,0.0,0.0,0.0,0.0,0.0,0.0,0.0,0.0,0.0,0.0,0.0,0.0,0.0,0.0,0.0,0.0,-1.7638,-1.9211,-1.889,-1.9688,-2.0158,0.0,0.0,0.0,0.0,0.0,0.0,0.0,0.0,0.0,-2.3831,-2.4459,-2.4964,-2.5258,-2.572,-2.6178,-2.6541,-2.7454,-2.7801,-2.7657,-2.8138,-2.8354,-2.8306,-2.7777,-2.6545,-2.4673,-2.1791,-1.9726,-1.8187,0.0,0.0,0.0,0.0,-1.4687,-1.5195,0.0,0.0,0.0,0.0,0.0,0.0,0.0,0.0,0.0,0.0,0.0,0.0,-1.7042,-1.9059,-2.0102,-1.9268,-2.0931,-2.1167,-1.9225,-1.9769,-1.954,-1.8142,-1.8436,-1.8606,-1.8606,-1.9058,-2.0048,-2.1604,-2.3271,-2.4444,-2.5111,-2.5553,-2.5786,-2.5769,-2.5139,-2.2831,-1.9287,-1.8361,-1.7428,-1.6487,0.0,0.0,0.0,0.0,0.0,0.0,0.0,0.0,0.0,0.0,0.0,0.0,0.0,0.0,0.0,0.0,0.0,0.0,0.0,0.0,0.0,0.0,0.0,0.0,0.0,0.0,0.0,0.0,0.0,0.0,0.0,0.0,0.0,0.0,0.0,0.0,0.0,-1.9602,-2.1253,-2.0081,-2.1311,-2.1951,0.0,0.0,0.0,0.0,0.0,0.0,-2.2927,-2.4509,-2.5497,-2.5754,-2.6542,-2.704,-2.7103,-2.7801,-2.8474,-2.9124,-2.9508,-2.9917,-3.0278,-3.0158,-3.0086,-3.0062,-2.9532,-2.8859,-2.7897,-2.4843,-2.2297,-2.0176,-1.9086,-1.8386,-1.7814,-1.6903,-1.7012,-1.7551,0.0,0.0,0.0,0.0,0.0,0.0,0.0,0.0,0.0,0.0,0.0,-1.8419,-1.9421,-2.1105,-2.2532,-2.3489,-2.2773,-2.2213,-2.2077,-2.0659,-1.9784,-1.971,-1.971,-1.971,-1.971,-2.1766,-2.2873,-2.2989,-2.6228,-2.8124,-2.8662,-2.9777,-2.9991,-2.9529,-2.9481,-2.7661,-2.4403,-2.1038,-1.9677,-1.9531,-1.7036,0.0,0.0,0.0,0.0,0.0,0.0,0.0,0.0,0.0,0.0,0.0,0.0,0.0,0.0,0.0,0.0,0.0,0.0,0.0,0.0,0.0,0.0,0.0,0.0,0.0,0.0,0.0,0.0,0.0,0.0,0.0,0.0,0.0,0.0,0.0,0.0,0.0,0.0,-2.2799,-2.2926,0.0,0.0,0.0,0.0,-2.2983,-2.3885,-2.4862,-2.602,-2.7198,-2.797,-2.8306,-2.9357,-2.9911,-2.9893,-3.0946,-3.1235,-3.0802,-3.0826,-3.0807,-3.0807,-3.0326,-3.0086,-3.0062,-2.9532,-2.9268,-2.9003,-2.631,-2.4554,-2.3358,-2.1276,-2.0996,-2.1647,-2.0214,-2.0519,-2.1516,0.0,0.0,0.0,0.0,0.0,0.0,0.0,0.0,-1.6516,-1.687,-1.8244,-1.9598,-2.0671,-2.361,-2.5462,-2.5379,-2.6295,-2.6159,-2.4396,-2.3049,-2.2056,-2.1443,-2.0767,-2.0865,-2.1892,-2.3421,-2.4703,-2.5816,-2.8412,-2.9752,-2.9835,-3.1054,-3.1689,-3.1743,-3.1871,-3.1388,-3.0182,-2.4609,-2.1585,-2.0317,-1.7908,-1.666,0.0,0.0,0.0,0.0,0.0,0.0,0.0,0.0,0.0,0.0,0.0,0.0,0.0,0.0,0.0,0.0,0.0,0.0,0.0,0.0,0.0,0.0,0.0,0.0,0.0,0.0,0.0,0.0,0.0,0.0,0.0,0.0,0.0,0.0,0.0,0.0,0.0,-2.53,-2.644,0.0,-2.6233,-2.5447,-2.5348,-2.6208,-2.661,-2.736,-2.8596,-2.9395,-3.0163,-3.0961,-3.1376,-3.1509,-3.1336,-3.17,-3.1753,-3.1428,-3.1428,-3.1428,-3.1404,-3.0874,-3.0591,-3.0567,-3.0037,-2.9797,-2.9701,-2.8402,-2.7055,-2.5637,-2.4085,-2.3514,-2.341,-2.243,-2.255,-2.3055,0.0,0.0,0.0,0.0,0.0,0.0,0.0,0.0,-1.6786,-1.7157,-1.904,-2.0976,-2.2651,-2.5836,-2.7939,-2.8208,-2.8696,-2.7989,-2.5627,-2.3898,-2.2505,-2.1518,-2.1317,-2.192,-2.3371,-2.5227,-2.6841,-2.8122,-3.0357,-3.1395,-3.1297,-3.2281,-3.3007,-3.3427,-3.3602,-3.3759,-3.3529,-2.8641,-2.5138,-2.2604,-1.959,-1.8301,-1.7986,0.0,0.0,0.0,0.0,0.0,0.0,0.0,0.0,0.0,0.0,0.0,0.0,0.0,0.0,0.0,0.0,0.0,0.0,0.0,0.0,0.0,0.0,0.0,0.0,0.0,0.0,0.0,0.0,0.0,0.0,0.0,0.0,0.0,0.0,0.0,-2.7385,-2.7397,-2.9022,-2.9791,-2.9051,-2.8407,-2.8371,-2.9068,-2.9308,-2.9852,-3.0891,-3.154,-3.2154,-3.2803,-3.3068,-3.295,-3.2406,-3.2487,-3.2301,-3.1805,-3.1717,-3.1717,-3.1693,-3.1163,-3.0922,-3.0874,-3.0134,-2.9917,-3.0037,-2.9508,-2.8667,-2.7579,-2.642,-2.5892,-2.563,-2.5018,-2.5082,-2.5338,0.0,0.0,0.0,0.0,0.0,0.0,0.0,-1.6842,-1.7191,-1.7219,-1.9686,-2.2515,-2.5338,-2.7667,-2.9866,-3.2064,-2.9729,-2.7419,-2.5762,-2.305,-2.1016,-1.9962,-2.1493,-2.2924,-2.4155,-2.7344,-2.9277,-2.9905,-3.2064,-3.3162,-3.3162,-3.3696,-3.4248,-3.4751,-3.4731,-3.4665,-3.4367,-3.2889,-3.0211,-2.6726,-2.2244,-2.0673,-2.0793,0.0,0.0,0.0,0.0,0.0,0.0,0.0,0.0,0.0,0.0,0.0,0.0,0.0,0.0,0.0,0.0,0.0,0.0,0.0,0.0,0.0,0.0,0.0,0.0,0.0,0.0,0.0,0.0,0.0,0.0,0.0,0.0,0.0,-2.5252,-2.8126,-2.9979,-2.9282,-3.0521,-3.11,-3.0172,-2.9582,-2.9942,-3.1575,-3.1893,-3.2235,-3.2873,-3.3612,-3.3882,-3.3655,-3.435,-3.4268,-3.3236,-3.35,-3.3095,-3.203,-3.1854,-3.1765,-3.1741,-3.1187,-3.0946,-3.0831,-2.9773,-2.9605,-3.0037,-2.9484,-2.9292,-2.922,-2.8186,-2.8065,-2.845,-2.7945,-2.8026,-2.8339,0.0,0.0,0.0,0.0,0.0,0.0,-1.6402,-1.6545,-1.6899,-1.7738,-2.064,-2.3694,-2.6526,-2.9488,-3.1712,-3.2742,-3.0306,-2.8172,-2.6892,-2.3507,-2.1719,-2.2167,-2.3075,-2.5008,-2.8122,-2.9478,-3.0809,-3.2164,-3.3571,-3.4073,-3.3696,-3.465,-3.5132,-3.5282,-3.573,-3.6132,-3.6243,-3.3553,-3.2061,-3.1109,-2.6149,-2.318,-2.1546,0.0,0.0,0.0,0.0,0.0,0.0,0.0,0.0,0.0,0.0,0.0,0.0,0.0,0.0,0.0,0.0,0.0,0.0,0.0,0.0,0.0,0.0,0.0,0.0,0.0,0.0,0.0,0.0,0.0,0.0,0.0,0.0,-2.8797,-2.8846,-3.0548,-3.216,-3.3107,-3.4081,-3.453,-3.4096,-3.3736,-3.3618,-3.3845,-3.3781,-3.399,-3.4732,-3.4442,-3.4491,-3.4981,-3.4222,-3.3814,-3.3777,-3.3621,-3.3412,-3.3147,-3.3101,-3.3101,-3.3053,-3.1954,-3.15,-3.1404,-2.9917,-2.9605,-3.0013,-2.91,-2.9172,-2.9797,-2.9124,-2.8715,-2.8498,-2.8354,-2.798,-2.751,0.0,0.0,0.0,0.0,0.0,0.0,-1.6402,-1.6581,-1.7067,-1.7984,-2.1197,-2.4343,-2.6696,-2.9503,-3.1336,-3.1662,-2.9352,-2.7218,-2.5636,-2.3226,-2.2322,-2.3421,-2.5134,-2.7344,-3.008,-3.1361,-3.2566,-3.3771,-3.465,-3.4981,-3.4977,-3.583,-3.631,-3.6536,-3.691,-3.7236,-3.7439,-3.5575,-3.4623,-3.3988,-3.0531,-2.7209,-2.4184,-2.2791,-2.1894,-2.1208,-2.0169,-1.9956,-2.0024,-1.9354,0.0,0.0,0.0,0.0,0.0,0.0,0.0,0.0,0.0,0.0,0.0,0.0,0.0,0.0,0.0,0.0,0.0,0.0,0.0,0.0,0.0,0.0,0.0,0.0,-2.988,-3.1677,-3.2852,-3.365,-3.4407,-3.5187,-3.6088,-3.6625,-3.6479,-3.6104,-3.5747,-3.5454,-3.5311,-3.5269,-3.5369,-3.5294,-3.5394,-3.5694,-3.5069,-3.4558,-3.416,-3.4082,-3.3678,-3.2929,-3.3492,-3.3663,-3.3446,-3.2726,-3.2391,0.0,-3.0422,-2.9797,-3.0013,-2.9196,-2.9076,0.0,0.0,0.0,0.0,0.0,-2.8179,-2.7753,0.0,0.0,0.0,0.0,0.0,0.0,-1.6374,-1.6786,-1.7352,-1.7984,-2.1365,-2.4344,-2.5995,-2.8172,-2.9528,-2.9603,-2.753,-2.531,-2.3246,-2.2644,-2.305,-2.4481,-2.7494,-2.969,-3.106,-3.3043,-3.4349,-3.4901,-3.5357,-3.5859,-3.6408,-3.6935,-3.7437,-3.7914,-3.799,-3.804,-3.809,-3.7891,-3.7097,-3.5787,-3.4711,-3.1762,-2.7841,-2.6358,-2.5502,-2.4839,-2.3165,-2.2429,-2.2097,-2.1131,0.0,0.0,0.0,0.0,0.0,0.0,0.0,0.0,0.0,0.0,0.0,0.0,0.0,0.0,0.0,0.0,0.0,0.0,0.0,0.0,0.0,0.0,0.0,0.0,-3.2749,-3.4561,-3.6746,-3.6973,-3.6819,-3.6356,-3.7195,-3.7767,-3.7693,-3.7245,-3.6819,-3.6584,-3.6531,-3.6235,-3.5528,0.0,0.0,0.0,0.0,-3.5812,-3.4587,-3.4725,-3.3977,-3.2361,-3.3494,-3.3859,-3.3592,-3.3377,-3.3353,-3.3306,-3.1139,-3.0224,-3.0134,-2.9532,-2.8979,-2.8522,-2.8522,-2.8787,-2.9148,-2.8691,-2.8522,-2.8522,0.0,0.0,0.0,0.0,0.0,0.0,-1.6181,-1.6381,-1.6892,-1.7815,-2.0633,-2.3006,-2.4183,-2.6405,-2.7946,-2.8398,-2.6013,-2.4104,-2.317,-2.2995,-2.4449,-2.7784,-2.9414,-3.1436,-3.3828,-3.4731,-3.5504,-3.6078,-3.6204,-3.6304,-3.643,-3.6935,-3.7236,-3.7362,-3.7814,-3.8266,-3.8617,-3.7265,-3.6809,-3.6922,-3.6234,-3.3669,-3.0083,-2.8034,-2.7453,-2.7675,-2.6384,-2.6911,-2.7964,-2.6579,-2.5702,-2.5028,-2.4443,-2.2227,0.0,0.0,0.0,0.0,0.0,0.0,0.0,0.0,0.0,0.0,0.0,0.0,0.0,0.0,0.0,0.0,0.0,0.0,0.0,-3.2528,-3.5211,-3.7418,-3.8376,-3.9583,-3.9813,-3.842,-3.8679,-3.8761,-3.8289,-3.7967,-3.774,-3.7688,-3.7287,-3.7186,-3.7415,-3.7638,-3.7688,-3.759,-3.6835,-3.6163,-3.5705,-3.5048,-3.4678,-3.4573,0.0,0.0,-3.5419,-3.3928,-3.3552,-3.4071,-3.1933,-3.0882,-3.0681,-2.9701,-2.8979,-2.8522,-2.8522,-2.857,-2.8643,-2.8546,-2.8522,-2.8522,0.0,0.0,0.0,0.0,0.0,0.0,-1.6124,-1.6267,-1.6666,-1.7435,-1.9531,-2.1385,-2.2494,-2.4156,-2.5186,-2.5202,-2.3703,-2.2849,-2.3095,-2.4399,-2.6565,-2.959,-3.1361,-3.3169,-3.5056,-3.568,-3.6081,-3.6405,-3.6405,-3.6681,-3.7186,-3.7186,-3.7638,-3.8442,-3.8442,-3.8743,-3.927,-3.8384,-3.8228,-3.8398,-3.7536,-3.6085,-3.4267,-3.2406,-3.1051,-3.0083,-2.9613,-2.9708,-2.9864,-2.9005,-2.8428,-2.7973,-2.7212,-2.5202,-2.3136,0.0,0.0,0.0,0.0,0.0,0.0,0.0,0.0,0.0,0.0,0.0,0.0,0.0,0.0,-2.8741,0.0,0.0,-3.4099,-3.5767,-3.7717,-3.9237,-3.9795,-4.0711,-4.0914,-3.9993,-3.9882,-3.9765,-3.949,-3.8817,-3.8316,-3.804,-3.7739,-3.7588,-3.7588,-3.7864,-3.7889,-3.7613,-3.7061,-3.6413,-3.5628,-3.5198,-3.4682,-3.4206,-3.4181,-3.4329,-3.4576,-3.3625,-3.3391,-3.3717,-3.2103,-3.1351,-3.1174,-3.0389,-2.982,-2.9455,-2.9455,-2.9036,-2.8522,-2.8522,-2.8522,-2.8522,0.0,0.0,0.0,0.0,0.0,0.0,0.0,-1.6259,-1.6581,-1.7101,-1.8541,-1.9901,-2.0792,-2.1928,-2.2469,-2.2042,-2.1769,-2.2246,-2.3672,-2.6189,-2.8699,-3.1135,-3.3169,-3.4675,-3.5633,-3.6232,-3.6556,-3.6556,-3.6681,-3.7136,-3.799,-3.7663,-3.8241,-3.9521,-3.917,-3.927,-3.9697,-3.9697,-3.9697,-3.9645,-3.8659,-3.8267,-3.8121,-3.6891,-3.4846,-3.2583,-3.257,-3.1825,-3.0893,-3.0664,-3.0323,-2.9953,-2.9456,-2.7962,-2.6185,-2.5325,-2.4424,0.0,0.0,0.0,0.0,0.0,0.0,0.0,0.0,0.0,-2.7299,-2.7741,-2.974,-3.1882,-3.3314,-3.5268,-3.7147,-3.8797,-3.9848,-4.0657,-4.1106,-4.1343,-4.1347,-4.1031,-4.0693,-4.0425,-4.0224,-3.9396,-3.8617,-3.804,-3.8015,-3.7864,-3.7538,-3.7939,-3.8015,-3.7688,-3.7563,-3.6987,-3.5771,-3.555,-3.491,-3.3814,-3.4036,-3.3962,-3.3642,-3.3543,-3.3449,-3.333,-3.216,-3.1644,-3.154,-3.0974,-3.0555,-3.0333,-3.0389,-2.9658,-2.8562,-2.8619,-2.8595,-2.8522,0.0,0.0,0.0,0.0,0.0,0.0,0.0,0.0,-1.6573,-1.6983,-1.8165,-1.902,-1.9075,-2.0207,-2.0936,-2.0893,-2.1694,-2.3326,-2.5946,-2.7745,-3.0181,-3.3395,-3.4655,-3.5655,-3.6304,-3.681,-3.7086,-3.7086,-3.7588,-3.7889,-3.8015,-3.8467,-3.8844,-3.902,-3.9421,-3.9647,-3.9697,-3.9697,-3.9697,-3.9697,-3.9542,-3.949,-3.9442,-3.8792,-3.7388,-3.5673,-3.4772,-3.4046,-3.3504,-3.3463,-3.2239,-3.0965,-3.2172,-3.0108,-2.7289,-2.7445,-2.5669,-2.37,-2.4133,-2.4706,-2.5496,-2.6962,-2.6522,-2.6675,0.0,0.0,-3.1283,-3.2629,-3.4424,-3.5668,-3.5136,-3.7146,-3.9082,-3.9537,-4.0956,-4.1982,-4.2057,-4.2057,-4.1882,-4.1351,-4.0799,-4.0124,-3.9145,-3.8994,-3.8617,-3.804,-3.8015,-3.8216,-3.8668,-3.8793,-3.8969,-3.9396,-3.8944,-3.8366,-3.7689,-3.6759,-3.6207,-3.6034,-3.5061,-3.4861,-3.5215,-3.476,-3.44,-3.4099,-3.2592,-3.1815,-3.154,-3.0765,-3.0294,-3.0073,-3.0309,-2.974,-2.8785,-2.9108,-2.8907,-2.8522,0.0,0.0,0.0,0.0,0.0,0.0,0.0,0.0,0.0,-1.6609,-1.6884,-1.7148,-1.7413,-1.8007,-1.8847,-2.0086,-2.0946,-2.2729,-2.5787,-2.8147,-3.0758,-3.3771,-3.4906,-3.5805,-3.6405,-3.6631,-3.6908,-3.7186,-3.7412,-3.7864,-3.8517,-3.8417,-3.8718,-3.9346,-3.9245,-3.9396,-3.9697,-3.9697,-3.9697,-3.9697,-3.9697,-3.9697,-3.9597,-3.8693,-3.7319,-3.5693,-3.4656,-3.3486,0.0,-3.208,-3.1614,-3.1356,-3.2264,-3.0852,-2.8773,-2.8543,-2.7434,-2.6237,-2.644,-2.7051,-2.7767,-2.8201,-2.9355,-3.077,-3.2512,-3.4012,-3.5172,-3.5671,-3.7566,-3.903,-3.8704,-3.9907,-4.1143,0.0,-4.2223,-4.259,-4.2263,-4.1882,-4.1229,-4.0049,-3.9697,-3.9496,-3.9371,-3.8768,-3.814,-3.7563,-3.7814,-3.8115,-3.8341,-3.8994,-3.932,-3.922,-3.9045,-3.8442,-3.7538,-3.6807,-3.6207,-3.5881,-3.4776,-3.4349,-3.4575,-3.4022,-3.3727,-3.357,-3.2922,-3.2556,-3.2461,-3.2127,-3.1734,-3.1417,-3.1528,-3.1009,-3.0112,-2.9518,-2.8955,-2.8522,0.0,0.0,0.0,0.0,0.0,0.0,0.0,0.0,0.0,0.0,-1.5953,-1.6132,-1.67,-1.6711,-1.7384,-1.9179,-1.9914,-2.1601,-2.47,-2.7544,-3.0331,-3.3093,-3.453,-3.5533,-3.6132,-3.648,-3.6832,-3.7186,-3.7337,-3.7914,-3.8919,-3.8442,-3.8768,-3.9672,-3.927,-3.932,-3.9697,-3.9697,-3.9597,-3.9471,-3.9471,-3.927,-3.8868,-3.7588,-3.5981,-3.4254,-3.3495,-3.1932,-3.0101,-2.9632,-2.9729,-3.0156,-3.0859,-3.0281,-2.9277,-2.8963,-2.8512,-2.811,-2.8088,-2.896,-2.994,-3.0284,-3.2393,-3.4587,-3.523,-3.7021,-3.8612,-3.8704,-4.0252,-4.1484,-4.1226,-4.1718,-4.2283,-4.2574,-4.2705,-4.2615,-4.2007,-4.1329,-4.0325,-3.8818,-3.8416,-3.8391,-3.8743,-3.8442,-3.7939,-3.7236,-3.7839,-3.8191,-3.8015,-3.8944,-3.9346,-3.912,-3.9094,-3.8693,-3.7889,-3.7385,-3.6784,-3.616,-3.5253,-3.465,-3.4324,-3.3621,-3.3294,-3.3294,-3.3101,-3.3025,-3.3068,-3.3025,-3.271,-3.2352,-3.2457,-3.1958,-3.1076,-3.015,-2.9414,-2.8899,0.0,0.0,0.0,0.0,0.0,0.0,0.0,0.0,0.0,0.0,0.0,0.0,0.0,-1.6905,-1.7027,-1.806,-1.8709,-2.021,-2.2995,-2.5812,-2.8599,-3.1361,-3.3571,-3.4956,-3.5508,-3.6609,-3.7161,-3.7186,-3.7713,-3.8291,-3.8919,-3.8894,-3.9145,-3.9697,-3.9672,-3.9672,-3.9697,-3.9697,-3.9371,-3.8944,-3.8944,-3.8241,-3.7086,-3.5454,-3.3445,-3.1512,-3.1486,-2.9729,-2.7333,-2.6826,-2.6625,-2.6826,-2.7896,-2.8197,-2.8247,-2.8737,-2.8512,-2.8222,-2.8712,-2.9949,-3.1639,-3.3934,-3.5456,-3.7023,-3.9407,-4.0429,-4.1176,-4.2246,-4.2718,-4.2705,-4.1823,-4.1968,-4.2103,-4.1773,-4.2018,-4.1982,-4.1376,-4.0425,-3.932,-3.8165,-3.7086,-3.648,0.0,-3.7964,-3.8441,-3.7262,-3.8265,-3.8592,-3.804,-3.8567,-3.9145,-3.9647,-3.9672,-3.9647,-3.9622,-3.9069,-3.8492,-3.7914,-3.7362,-3.6533,-3.5408,-3.4374,-3.3872,-3.3847,-3.3034,-3.2853,-3.3068,-3.281,-3.2529,-3.2248,-3.2543,-3.2052,-3.1117,-3.1125,-3.0619,-2.9942,0.0,0.0,0.0,0.0,0.0,0.0,0.0,0.0,0.0,0.0,0.0,0.0,0.0,0.0,0.0,0.0,-1.7356,-1.864,-2.1387,-2.4446,-2.7067,-2.9126,-3.1687,-3.3144,-3.3319,-3.4424,-3.5177,-3.5554,-3.606,-3.6659,-3.726,-3.726,-3.7561,-3.804,-3.804,-3.8241,-3.8567,-3.8567,-3.8266,-3.7713,-3.7387,-3.6784,-3.5881,-3.3778,-3.1687,-2.9528,0.0,-2.6214,-2.4958,-2.4029,-2.3954,-2.4381,-2.5134,-2.5385,-2.5636,-2.6917,-2.7946,-2.8963,-3.0618,-3.2825,-3.5107,-3.701,-3.9168,-4.1114,-4.2268,-4.3025,-4.32,-4.2474,-4.1802,-4.0899,-3.9492,-3.9345,-3.9595,-4.0295,-4.1075,-4.1555,-4.13,-4.0974,-3.9823,-3.7262,-3.7236,0.0,0.0,0.0,0.0,-3.7186,-3.829,-3.8844,-3.8592,-3.9446,-3.9873,-3.9697,-3.9697,-3.9521,-3.9145,-3.902,-3.8391,-3.7437,-3.6533,-3.5529,-3.4449,-3.4073,-3.3696,-3.3345,-3.3057,-3.3025,-3.3068,-3.2982,-3.271,-3.2346,-3.2432,-3.2284,-3.1945,-3.1988,-3.1766,-3.1274,0.0,0.0,0.0,0.0,0.0,0.0,0.0,0.0,0.0,0.0,0.0,0.0,0.0,0.0,0.0,0.0,0.0,-1.7136,-1.9473,-2.1913,-2.419,-2.6205,-2.8599,-3.003,-3.0432,-3.1361,-3.2014,-3.2365,-3.3075,-3.3771,-3.4324,-3.47,-3.5278,-3.6006,-3.6006,-3.6307,-3.681,-3.6634,-3.5981,-3.5077,-3.455,-3.3646,-3.2348,-3.0557,-2.8599,0.0,-2.4374,-2.3276,-2.2698,-2.197,-2.2096,-2.2644,-2.3452,-2.4381,-2.541,-2.6725,-2.8499,-3.0633,-3.3043,-3.5579,-3.8039,-3.9925,-4.1957,-4.3664,-4.4016,-4.4066,-4.3564,-4.1907,-4.0701,-3.9346,-3.7462,-3.696,-3.7211,-3.8316,-3.9094,-3.9772,-4.0375,-4.0275,-3.9371,-3.7236,-3.7236,-3.7086,0.0,0.0,0.0,-3.7437,-3.8517,-3.917,-3.917,-3.9848,-4.0149,-3.9998,-3.9798,-3.9521,-3.917,-3.917,-3.8592,-3.7462,-3.6558,-3.5454,-3.4198,-3.4198,-3.3897,-3.337,-3.337,-3.337,-3.337,-3.337,-3.3096,-3.2661,-3.2661,-3.2593,-3.2506,-3.2444,-3.2161,-3.167,0.0,0.0,0.0,0.0,0.0,0.0,0.0,0.0,0.0,0.0,0.0,0.0,0.0,0.0,0.0,0.0,0.0,0.0,-1.7243,-1.8426,-2.0199,-2.2735,-2.4525,-2.5963,-2.7042,-2.767,-2.7971,-2.7971,-2.9076,-2.988,-3.0432,-3.1436,-3.2516,-3.3571,-3.3571,-3.3872,-3.4349,-3.3822,-3.2667,-3.1135,-3.0608,-2.9126,-2.7067,-2.5937,-2.4531,-2.297,-2.1895,-2.1169,-2.0742,-2.0742,-2.1144,-2.182,-2.2895,-2.5134,-2.7444,-2.8097,-3.0256,-3.3018,-3.5827,-3.8165,-4.0425,-4.2559,-4.389,-4.4644,-4.4593,-4.3689,-4.2384,-4.0701,-3.9371,-3.7864,0.0,0.0,-3.4901,-3.6103,-3.6405,-3.7084,-3.8768,-3.8542,-3.8191,0.0,0.0,0.0,0.0,0.0,0.0,-3.809,0.0,-3.9722,-3.9697,-3.9747,-3.9998,-4.045,-3.9973,-3.9697,-3.9697,-3.9672,-3.9094,-3.799,-3.7437,-3.6332,-3.4731,-3.4731,-3.4474,-3.3947,-3.3947,-3.3947,-3.3947,-3.3947,-3.3621,-3.3119,-3.3119,-3.2964,-3.268,-3.2463,-3.1969,-3.1278,0.0,0.0,0.0,0.0,0.0,0.0,0.0,0.0,0.0,0.0,0.0,0.0,0.0,0.0,0.0,0.0,0.0,0.0,-1.5172,-1.7259,-1.882,-1.9487,-2.2217,-2.3873,-2.4148,-2.5536,-2.6239,-2.6239,-2.7002,-2.7429,-2.7555,-2.7832,-2.8334,-2.8976,-2.8976,-2.9277,-2.9779,-2.9654,-2.9101,-2.8273,-2.7781,-2.6952,-2.5912,-2.4833,-2.3847,-2.297,-2.1895,-2.1393,-2.132,-2.132,-2.2225,-2.3552,-2.4632,-2.6314,-2.8247,-3.003,-3.2817,-3.5855,-3.8216,-4.0752,-4.3087,-4.4493,-4.507,-4.5045,-4.4192,-4.2534,-4.0551,-3.8467,-3.583,-3.3495,-3.2072,0.0,0.0,-3.4223,-3.6257,0.0,-3.9873,-4.0676,0.0,-3.9396,0.0,-3.9195,-3.8517,-3.9195,0.0,0.0,-4.0149,-4.0124,-3.9722,-4.0475,-4.0601,-3.9923,-3.9772,-3.9697,-3.9697,-3.927,-3.8718,-3.799,-3.7437,-3.6533,-3.5282,-3.5282,-3.4981,-3.4525,-3.4525,-3.4525,-3.4525,-3.4525,-3.404,-3.3408,-3.3408,-3.3115,-3.268,-3.2636,-3.2624,-3.2511,0.0,0.0,0.0,0.0,0.0,0.0,0.0,0.0,0.0,0.0,0.0,0.0,0.0,0.0,0.0,0.0,0.0,0.0,0.0,-1.5889,-1.695,-1.782,-1.9638,-2.0859,-2.1301,-2.2455,-2.2949,-2.2723,-2.3753,-2.4186,-2.396,-2.4657,-2.531,-2.5837,-2.5837,-2.6138,-2.664,-2.6414,-2.5837,0.0,0.0,-2.3809,-2.3025,-2.2673,-2.2322,-2.1995,-2.1619,-2.2121,-2.31,-2.4079,-2.5184,-2.6364,-2.7444,-2.9277,-3.1386,-3.337,-3.6132,-3.9044,-4.1254,-4.3338,-4.5045,-4.5698,-4.5296,-4.4267,-4.2409,-4.0475,-3.8216,-3.5253,-3.2968,-3.111,-2.9754,-2.9503,-3.0231,0.0,0.0,0.0,-3.9044,-4.0174,-4.0626,0.0,-4.0701,0.0,-4.0023,-4.0526,-4.0824,0.0,-4.0824,-4.0752,-4.0425,-4.0777,-4.0701,-4.0074,-3.9823,-3.9697,-3.9697,-3.9396,-3.8944,-3.8391,-3.7814,-3.696,-3.5906,-3.5608,-3.5207,-3.468,0.0,-3.4906,-3.4751,-3.4931,-3.466,-3.4025,-3.4025,-3.3657,-3.3027,-3.3027,-3.2922,-3.2698,0.0,0.0,0.0,0.0,0.0,0.0,0.0,0.0,0.0,0.0,-1.3222,0.0,0.0,0.0,0.0,0.0,0.0,0.0,0.0,0.0,-1.5217,-1.7026,-1.7364,-1.7968,-1.8984,-1.9553,-1.9585,-1.9108,-2.0564,-2.1043,-2.0616,-2.202,-2.292,-2.3452,-2.3452,-2.3703,-2.4098,-2.3653,-2.2874,-2.1945,-2.1468,-2.0715,-1.9987,0.0,-2.0792,-2.0993,-2.1518,-2.2949,-2.4926,-2.7394,-2.8725,-2.954,-3.0859,-3.3075,-3.5604,-3.7236,-3.9647,-4.2178,-4.4292,-4.5623,-4.6401,-4.6326,-4.492,-4.2886,-4.0199,-3.8065,-3.5604,-3.1938,-3.0633,-2.9704,-2.8172,-2.7996,-2.8825,-3.1035,0.0,-3.3847,-3.7588,-3.8743,-3.9772,-4.1254,-4.1451,-4.1501,-4.1501,-4.1501,-4.1501,-4.1501,-4.1501,-4.1451,-4.13,-4.0953,-4.0676,-4.0526,-4.0049,-3.9772,-3.9697,-3.9697,-3.9421,-3.8919,-3.8291,-3.7462,-3.6505,-3.5906,-3.5307,-3.4806,-3.5282,0.0,-3.4831,-3.5307,-3.5232,-3.4826,-3.4826,-3.4365,-3.3643,-3.3643,-3.3256,-3.2684,0.0,0.0,0.0,0.0,0.0,0.0,0.0,0.0,0.0,0.0,-1.3451,-1.3186,0.0,0.0,0.0,0.0,0.0,0.0,0.0,0.0,0.0,-1.6078,-1.7003,-1.7971,-1.8983,-1.9534,-1.9761,-1.966,-1.9962,-2.0037,-1.9962,-2.0238,-2.0439,-2.0539,-2.0539,-2.0589,-2.0665,-2.0564,-2.0413,-2.0238,-2.0137,-2.0289,-2.0566,-2.0666,0.0,0.0,-2.2619,-2.307,-2.3948,-2.7534,-3.0016,-3.1989,-3.4003,-3.6282,-3.8467,-4.0124,-4.2203,-4.4342,-4.5648,-4.6502,-4.6878,-4.6426,-4.4367,-4.1886,-3.9546,-3.6307,-3.3093,-3.0583,-2.89,-2.7645,-2.6927,-2.7494,-2.8825,-3.1035,-3.3018,-3.5328,-3.8291,-3.9998,-4.1178,0.0,-4.2409,-4.2685,-4.2685,-4.2685,0.0,0.0,0.0,-4.2283,-4.1326,-4.1681,-4.1455,-4.0551,-4.0425,-4.0149,-3.9697,-3.9697,-3.9421,-3.8919,-3.8291,-3.7663,-3.701,-3.6458,-3.5931,-3.5357,-3.5458,0.0,-3.5357,-3.5458,-3.5433,-3.5357,-3.5357,-3.5031,-3.4485,-3.4485,-3.4435,-3.427,0.0,0.0,0.0,0.0,0.0,0.0,0.0,-1.3535,-1.3769,-1.4394,-1.437,-1.4182,-1.3906,-1.3495,-1.331,0.0,0.0,0.0,0.0,0.0,0.0,-1.5746,-1.6635,-1.7524,-1.8514,-1.9352,-1.966,-1.9384,0.0,-1.966,-1.9384,-1.9685,-1.9811,-1.9811,-1.9811,-1.9811,-1.9811,-1.9811,-1.9987,-2.0289,-2.0289,-2.0616,-2.1144,-2.1446,0.0,0.0,-2.302,-2.3471,-2.4399,-2.7143,-2.9729,-3.2315,-3.5429,-3.814,-4.0425,-4.1781,-4.3765,-4.5748,-4.6828,-4.733,-4.733,-4.6527,-4.3564,-4.0149,-3.7337,-3.3947,-3.0658,-2.8122,-2.7193,-2.6725,-2.6147,-2.6917,-2.8298,-3.0256,-3.1461,-3.352,-3.7437,-3.8668,-3.9923,-4.1961,-4.269,-4.2986,0.0,-4.2986,-4.2986,0.0,0.0,-4.261,-4.1806,-4.1756,-4.148,-4.0899,-4.0953,-4.0774,-4.0551,-4.0275,-3.9998,-3.9722,-3.8567,-3.7864,-3.7588,-3.6782,-3.6056,-3.5508,-3.5855,0.0,-3.5508,-3.5855,-3.5981,-3.5981,-3.5981,-3.5629,-3.5082,-3.4781,-3.455,-3.4254,0.0,0.0,0.0,0.0,0.0,0.0,0.0,-1.4114,-1.4367,-1.5117,-1.5254,-1.5087,-1.4582,-1.3832,-1.3361,0.0,0.0,0.0,0.0,0.0,0.0,0.0,0.0,0.0,-1.807,0.0,0.0,-1.9008,-1.9533,0.0,0.0,0.0,0.0,0.0,-1.9811,-1.9784,-1.9804,-1.9935,-2.0234,0.0,0.0,-2.1194,0.0,0.0,0.0,0.0,0.0,-2.3672,-2.47,-2.6515,-2.8624,-3.116,-3.4801,-3.8266,-4.1178,-4.2158,-4.4292,-4.6552,-4.7606,-4.7908,-4.7631,-4.6426,-4.2785,-3.8668,-3.5454,-3.2064,-2.885,-2.6138,-2.6097,-2.6273,-2.5561,-2.644,-2.7846,-2.9528,-2.9905,-3.1587,-3.6182,-3.7136,-3.8467,0.0,-4.2509,0.0,-4.2986,-4.2986,0.0,0.0,0.0,0.0,-4.2414,-4.1932,-4.163,-4.153,-4.1505,-4.1404,-4.1125,-4.0727,-4.045,-4.0325,-3.8894,-3.814,-3.7965,-3.6985,-3.6182,-3.5533,-3.6006,0.0,0.0,-3.6006,-3.6182,-3.6182,-3.6182,-3.5855,-3.5282,-3.4876,-3.4405,-3.3984,0.0,0.0,0.0,0.0,0.0,0.0,0.0,-1.4114,-1.4679,-1.6317,-1.5547,-1.4961,-1.5254,-1.4641,-1.3995,0.0,0.0,0.0,0.0,0.0,0.0,0.0,0.0,0.0,0.0,0.0,0.0,-1.9006,-1.9553,0.0,0.0,0.0,0.0,0.0,0.0,-1.9772,-1.9748,-2.0374,0.0,0.0,0.0,0.0,0.0,0.0,0.0,0.0,0.0,-2.317,-2.3597,-2.5845,-2.7077,-2.8172,-3.1009,-3.5554,-3.9973,-4.0576,-4.3388,-4.6552,-4.7606,-4.7908,-4.7531,-4.5949,-4.2233,-3.8216,-3.5353,-3.1721,-2.8348,-2.6063,-2.6097,-2.6172,-2.5084,-2.6214,-2.7846,-2.9528,-3.0206,-3.1738,-3.5157,-3.6985,-3.8617,-4.045,0.0,0.0,-4.2986,-4.2986,0.0,0.0,0.0,0.0,-4.2911,-4.2861,-4.261,-4.2162,-4.2137,-4.1605,-4.0601,-4.0551,-4.0275,-3.9772,-3.9094,-3.8517,-3.799,-3.7387,-3.6533,-3.5508,-3.5558,0.0,0.0,-3.5558,-3.5583,-3.5583,-3.5583,-3.5232,-3.4801,-3.4751,-3.4565,-3.4359,0.0,0.0,0.0,0.0,0.0,0.0,-1.466,-1.4687,-1.4961,-1.6172,-1.6348,-1.6113,-1.5488,-1.5146,-1.4491,-1.333,0.0,0.0,0.0,0.0,0.0,0.0,0.0,0.0,0.0,0.0,-1.8655,-1.8999,-1.9212,0.0,0.0,0.0,0.0,0.0,0.0,0.0,-1.9737,-2.0422,0.0,0.0,0.0,0.0,0.0,0.0,0.0,0.0,0.0,0.0,-2.3246,-2.4155,-2.5059,-2.5937,-2.6691,-3.0055,-3.4424,-3.7965,-4.153,-4.4694,-4.6476,-4.7431,-4.7506,-4.5899,-4.1882,-3.7638,-3.4851,-3.121,-2.7896,-2.5988,-2.6097,-2.6248,-2.5435,-2.6113,-2.7253,-2.8549,-2.8674,-2.9754,-3.3025,-3.4399,-3.6157,-3.917,-4.0701,0.0,0.0,0.0,0.0,0.0,0.0,0.0,-4.2986,-4.2986,-4.2886,-4.2715,-4.2389,-4.2011,-4.1505,-4.0852,-4.04,-4.0174,-3.9295,-3.8567,-3.799,-3.7437,-3.6759,-3.6031,-3.6031,0.0,0.0,-3.5633,-3.5508,-3.5508,-3.5508,-3.5157,-3.468,-3.468,-3.4435,-3.409,0.0,0.0,0.0,0.0,0.0,-1.3594,-1.5176,-1.5059,-1.5165,-1.6163,-1.6711,-1.6672,-1.5703,-1.5254,-1.4637,-1.3688,-1.3432,0.0,0.0,0.0,0.0,0.0,0.0,0.0,0.0,0.0,-1.7984,-1.8494,-1.8956,-1.9305,0.0,0.0,0.0,0.0,0.0,0.0,0.0,0.0,0.0,0.0,0.0,0.0,0.0,0.0,0.0,0.0,0.0,0.0,0.0,0.0,0.0,-2.4525,-2.4481,-2.6465,-2.9729,-3.4449,-3.8642,-4.2208,-4.4292,-4.5874,-4.6552,-4.492,-4.1103,-3.6985,-3.4073,-3.0658,-2.762,-2.5937,-2.6097,-2.6323,-2.5711,-2.6097,-2.6801,-2.772,-2.767,-2.8574,-3.1562,-3.2742,-3.4525,0.0,0.0,-4.0425,0.0,0.0,0.0,0.0,0.0,0.0,-4.2986,-4.2866,-4.2791,-4.2791,-4.2414,-4.2062,-4.1735,-4.0902,-4.0425,-4.0249,-3.9496,-3.8818,-3.8241,-3.7688,-3.7136,-3.6631,-3.648,0.0,0.0,-3.5956,-3.5633,-3.5483,-3.5286,-3.4886,-3.4405,-3.4209,-3.3865,-3.3514,0.0,0.0,0.0,0.0,0.0,0.0,-1.5215,-1.5059,-1.5254,-1.6531,-1.6348,-1.6105,-1.6085,-1.4922,-1.4289,-1.4727,-1.4136,0.0,0.0,0.0,0.0,0.0,0.0,0.0,0.0,0.0,-1.7073,-1.7219,-1.8821,-1.9398,-1.9025,-2.0149,-2.039,-1.9811,0.0,0.0,0.0,0.0,0.0,0.0,0.0,0.0,0.0,0.0,0.0,0.0,0.0,0.0,0.0,0.0,0.0,0.0,0.0,-2.6047,-2.7077,-2.9854,-3.46,-3.927,-4.0874,-4.293,-4.4267,-4.2665,-3.9724,-3.6332,-3.2993,-3.008,-2.762,-2.5937,-2.6097,-2.6323,-2.5711,-2.6097,-2.6675,-2.7228,-2.7745,-2.8875,-3.1085,-3.2842,-3.45,0.0,0.0,-3.8693,0.0,0.0,0.0,0.0,0.0,0.0,-4.2986,-4.2514,-4.2213,-4.2213,-4.2213,-4.1685,-4.0551,-4.0526,-4.0249,-3.9697,-3.9697,-3.9396,-3.8894,-3.8266,-3.7688,0.0,0.0,0.0,0.0,-3.6405,-3.6031,-3.5458,-3.4703,-3.42,-3.3803,-3.3009,-3.2723,-3.268,0.0,0.0,0.0,0.0,0.0,0.0,0.0,-1.5059,-1.5039,-1.5712,-1.5977,-1.6085,-1.6085,-1.543,-1.5176,-1.5654,-1.4471,0.0,0.0,0.0,0.0,0.0,0.0,0.0,0.0,-1.6267,-1.6764,-1.7543,-1.8504,-1.9338,-2.0025,-2.0058,-1.9997,-1.9775,-1.9409,0.0,0.0,0.0,0.0,0.0,0.0,0.0,0.0,0.0,0.0,0.0,0.0,0.0,0.0,0.0,0.0,0.0,0.0,0.0,0.0,-2.7429,-3.1436,-3.5755,-3.6987,-3.8667,-3.9697,-3.804,-3.5705,-3.3219,-3.106,-2.9001,-2.7293,-2.6399,-2.6373,-2.6449,-2.6248,-2.6373,-2.6927,-2.8197,-2.8549,-2.9302,0.0,0.0,0.0,-3.6684,-3.9572,-4.1605,0.0,0.0,0.0,0.0,0.0,0.0,-4.2986,-4.2514,-4.2213,-4.2213,-4.143,-4.0877,-4.0526,-4.0149,-3.9873,-3.9697,-3.9697,-3.9396,-3.8919,-3.8668,-3.809,0.0,0.0,0.0,0.0,-3.5956,-3.5658,-3.5458,-3.4678,-3.4085,-3.3607,-3.3168,-3.2783,-3.2463,0.0,0.0,0.0,0.0,0.0,0.0,0.0,-1.5059,-1.4941,-1.5352,-1.5644,-1.5909,-1.6065,-1.5557,-1.541,-1.6046,-1.4869,0.0,0.0,0.0,0.0,0.0,0.0,0.0,-1.5885,-1.598,-1.6547,-1.7615,-1.8422,-1.9379,-2.0411,-2.0498,-2.0356,-2.0057,-1.9885,-1.9216,0.0,0.0,0.0,0.0,0.0,0.0,-2.3095,0.0,0.0,0.0,0.0,0.0,0.0,0.0,0.0,0.0,0.0,0.0,0.0,0.0,-2.8837,-3.1788,-3.352,-3.5052,-3.5906,-3.4876,-3.3244,-3.1461,-2.9829,-2.8172,-2.6901,-2.6575,-2.6323,-2.6223,-2.6449,-2.6499,-2.6826,-2.7821,-2.8348,-2.9051,0.0,0.0,0.0,-3.7211,0.0,0.0,0.0,0.0,0.0,0.0,0.0,0.0,-4.274,-4.2158,-4.1756,-4.153,-4.0877,-4.0425,-4.0199,-3.9873,-3.9697,-3.9697,-3.9697,-3.9521,-3.917,-3.8743,-3.8165,0.0,0.0,0.0,0.0,-3.5981,-3.5855,-3.5759,-3.5023,-3.4338,-3.3796,-3.3375,-3.299,-3.2626,0.0,0.0,0.0,0.0,0.0,0.0,0.0,-1.5078,-1.4961,-1.5352,-1.541,-1.5566,-1.6007,-1.5341,-1.5185,-1.5968,0.0,0.0,0.0,0.0,0.0,0.0,0.0,0.0,-1.5856,-1.5925,-1.6456,-1.7512,-1.8512,-1.9462,-2.0364,-2.1214,-2.1165,-2.048,-2.0864,-2.0181,-1.8824,-2.0532,-2.1916,-2.3085,-2.3697,-2.3597,0.0,0.0,0.0,0.0,0.0,0.0,0.0,0.0,0.0,0.0,0.0,0.0,0.0,0.0,0.0,0.0,0.0,-3.1838,-3.2684,-3.2608,-3.1763,-3.0557,-2.8963,-2.7444,0.0,-2.6424,-2.5996,-2.5787,-2.6449,-2.6524,-2.6549,-2.67,-2.7544,0.0,0.0,-3.2064,0.0,0.0,-3.9647,0.0,0.0,0.0,0.0,0.0,0.0,0.0,-4.2238,-4.163,-4.1025,-4.0526,-4.0475,-4.0199,-3.9697,-3.9697,-3.9697,-3.9697,-3.9697,-3.9697,-3.9647,-3.8567,-3.804,0.0,0.0,0.0,0.0,-3.6405,-3.6405,-3.6307,-3.5497,-3.4881,-3.4313,-3.3498,-3.3142,-3.3019,0.0,0.0,0.0,0.0,0.0,0.0,0.0,0.0,0.0,0.0,-1.541,-1.5449,-1.5547,-1.5391,-1.5352,0.0,0.0,0.0,0.0,0.0,0.0,0.0,0.0,0.0,-1.5497,-1.597,-1.6656,-1.7596,-1.8704,-1.9731,-2.0672,-2.0583,-2.0314,-1.9938,-1.9656,-1.9664,-1.9931,-2.0427,-2.1282,-2.2372,-2.3063,-2.3221,0.0,0.0,0.0,0.0,-2.4431,-2.4632,0.0,0.0,0.0,0.0,0.0,0.0,0.0,0.0,-2.6273,-2.6239,-2.7354,0.0,-2.8448,-2.757,-2.7143,-2.6741,0.0,-2.5452,-2.5335,-2.5711,-2.5686,-2.5912,-2.6952,-2.6776,-2.7052,-2.8725,0.0,0.0,-3.1235,0.0,0.0,-3.912,-4.1128,0.0,0.0,0.0,0.0,0.0,0.0,-4.2791,-4.2238,-4.163,-4.1025,-4.0526,-4.0099,-3.9823,-3.9697,-3.9697,-3.9697,-3.9697,-3.9697,-3.9697,-3.9672,-3.8969,-3.8442,0.0,0.0,0.0,-3.6405,-3.6405,-3.6405,-3.6307,-3.5497,-3.4881,-3.4268,-3.3269,-3.265,-3.224,0.0,0.0,0.0,0.0,0.0,0.0,0.0,0.0,0.0,0.0,0.0,-1.541,-1.541,-1.541,0.0,0.0,0.0,0.0,0.0,0.0,0.0,0.0,0.0,-1.5604,-1.541,-1.5989,-1.6832,-1.7903,-1.8745,-1.9831,-2.1132,-2.0935,-2.0679,-2.0414,-1.9677,-2.0018,-2.1112,-2.1097,-2.1651,-2.261,-2.3274,0.0,0.0,0.0,0.0,0.0,-2.4853,-2.5184,0.0,-2.5812,-2.5812,-2.5711,0.0,0.0,0.0,0.0,-2.6273,-2.6097,-2.6399,-2.67,-2.6851,-2.6465,-2.6189,-2.5946,-2.5636,-2.4983,-2.4607,-2.5134,-2.5234,-2.5586,-2.6725,-2.67,-2.7128,-2.9076,-2.9402,0.0,0.0,0.0,-3.804,-4.0199,0.0,0.0,0.0,0.0,0.0,0.0,0.0,-4.2635,-4.1831,-4.1505,-4.0924,-4.0174,-3.9848,-3.9697,-3.9697,-3.9697,-3.9572,-3.932,-3.932,-3.917,-3.8894,-3.8341,-3.7914,0.0,0.0,0.0,-3.6405,-3.6405,-3.6254,-3.5956,-3.5515,-3.4778,-3.3921,-3.333,-3.2812,-3.2321,0.0,0.0,0.0,0.0,0.0,0.0,0.0,0.0,0.0,0.0,0.0,0.0,0.0,0.0,0.0,0.0,0.0,0.0,0.0,0.0,0.0,0.0,-1.5713,-1.5733,-1.5703,-1.6196,-1.7098,-1.8344,-1.8874,-1.9904,-2.1413,-2.1539,-2.1418,-2.1119,-2.0338,-2.0753,-2.2021,-2.1985,-2.2432,-2.3243,-2.3717,0.0,0.0,0.0,0.0,0.0,0.0,0.0,0.0,-2.6323,-2.6172,-2.5812,-2.6348,0.0,0.0,0.0,0.0,0.0,-2.66,-2.6675,-2.6801,-2.6967,-2.6776,-2.6449,-2.6273,-2.5134,-2.428,-2.4833,-2.5008,-2.5385,-2.6424,-2.6751,-2.7379,0.0,0.0,0.0,-3.5307,-3.6458,-3.7939,0.0,0.0,0.0,0.0,0.0,0.0,0.0,0.0,-4.2384,-4.1225,-4.1175,-4.0752,-3.9722,-3.9697,-3.9697,-3.9697,-3.9697,-3.9421,-3.8919,-3.8919,-3.8567,-3.799,-3.7437,-3.7186,-3.7136,0.0,0.0,-3.6405,-3.6329,-3.5956,-3.5508,-3.5462,-3.467,-3.3518,-3.3429,-3.3113,-3.2658,0.0,0.0,0.0,0.0,0.0,0.0,0.0,0.0,0.0,0.0,0.0,0.0,0.0,0.0,0.0,0.0,0.0,0.0,0.0,0.0,0.0,-1.6492,-1.6202,-1.637,-1.707,-1.7181,-1.767,-1.8535,-1.9372,-2.0187,-2.0988,-2.135,-2.1302,-2.0843,-2.0835,-2.1142,-2.1697,-2.2071,-2.2814,-2.3692,-2.3643,0.0,0.0,0.0,0.0,0.0,0.0,0.0,0.0,-2.6474,-2.6424,-2.6373,-2.6474,0.0,0.0,0.0,0.0,0.0,-2.7052,-2.7494,-2.7519,-2.6189,-2.6197,-2.6248,-2.5285,-2.485,-2.4833,-2.5385,-2.5862,-2.6424,-2.7077,-2.7921,-2.895,0.0,0.0,-3.468,0.0,0.0,0.0,0.0,0.0,0.0,0.0,0.0,0.0,0.0,0.0,-4.1806,-4.0701,-4.0651,-4.035,-3.9722,-3.9697,-3.9697,-3.9697,-3.9697,-3.9421,-3.8919,-3.8919,-3.8567,-3.799,-3.7437,-3.7186,-3.7136,0.0,-3.5931,-3.638,-3.5855,-3.5583,-3.5508,-3.5298,-3.467,-3.3765,-3.3162,-3.269,-3.2367,0.0,0.0,0.0,0.0,0.0,0.0,0.0,0.0,0.0,0.0,0.0,0.0,0.0,0.0,0.0,0.0,0.0,0.0,0.0,0.0,-1.6902,-1.7369,-1.7227,-1.7207,-1.7416,-1.7832,-1.8477,-1.9299,-2.0157,-2.0899,-2.143,-2.149,-2.1425,-2.1277,-2.0995,-2.1531,-2.2582,-2.2092,-2.2571,-2.3679,0.0,0.0,0.0,0.0,0.0,0.0,0.0,0.0,0.0,0.0,-2.6097,-2.5686,-2.6298,0.0,0.0,0.0,0.0,0.0,-2.6801,-2.7278,-2.7469,-2.6691,-2.6977,-2.7143,-2.6339,-2.5912,-2.5787,-2.6047,-2.6549,-2.7102,-2.762,-2.8649,-3.0055,-3.2064,0.0,-3.686,-3.7864,0.0,0.0,0.0,0.0,0.0,0.0,0.0,0.0,0.0,0.0,0.0,-4.0551,-4.0526,-4.0249,-3.9722,-3.9396,-3.9245,-3.9245,-3.8944,-3.8642,-3.8391,-3.809,-3.7663,-3.7111,-3.6908,-3.6782,-3.6757,0.0,-3.6132,-3.638,-3.5965,-3.5597,-3.5322,-3.509,-3.4375,-3.3429,-3.2665,-3.2288,-3.2113,0.0,0.0,0.0,0.0,0.0,0.0,0.0,0.0,0.0,0.0,0.0,0.0,0.0,0.0,0.0,0.0,0.0,0.0,0.0,-1.6941,-1.7291,-1.7988,-1.8105,-1.8105,-1.7988,-1.8578,-1.9316,-2.0059,-2.0957,-2.1562,-2.1958,-2.1787,-2.1644,-2.165,-2.128,-2.1963,-2.3293,-2.224,-2.2498,-2.3644,0.0,0.0,0.0,0.0,0.0,0.0,0.0,0.0,0.0,0.0,0.0,0.0,0.0,0.0,0.0,-2.6197,-2.6399,-2.6348,-2.6625,-2.7002,-2.7293,-2.7293,-2.7595,-2.7896,-2.7871,-2.748,-2.7178,-2.758,-2.7982,-2.8348,-2.8624,-2.9829,0.0,-3.3897,-3.6609,-3.8442,-3.8567,0.0,0.0,0.0,0.0,0.0,0.0,0.0,0.0,0.0,0.0,0.0,-4.035,-4.0199,-3.9948,-3.9521,-3.8969,-3.8668,-3.8668,-3.809,-3.7814,-3.7814,-3.7387,-3.6933,-3.6405,-3.6405,-3.6405,-3.6405,-3.6279,-3.6279,-3.6332,-3.5824,-3.5382,-3.4938,-3.4536,-3.3689,-3.2788,-3.224,-3.1981,-3.1893,0.0,0.0,0.0,0.0,0.0,0.0,0.0,0.0,0.0,0.0,0.0,0.0,0.0,0.0,0.0,0.0,0.0,0.0,0.0,-1.7695,-1.7949,-1.8008,-1.8344,-1.8909,-1.9707,-1.9785,-2.0059,-2.0566,-2.1406,-2.1979,-2.2164,-2.2165,-2.193,-2.1527,-2.1869,-2.2414,-2.3003,-2.2744,-2.3055,-2.3741,-2.3239,0.0,0.0,0.0,0.0,0.0,0.0,0.0,0.0,0.0,0.0,0.0,0.0,0.0,-2.5661,-2.6323,-2.6122,-2.5887,-2.6977,-2.7278,-2.7293,-2.7293,-2.7318,-2.7745,-2.9252,-2.9176,-2.9176,-3.0708,-3.106,-3.0959,-3.0507,-3.2164,-3.3997,-3.5182,-3.7764,-3.9747,0.0,0.0,0.0,0.0,0.0,0.0,0.0,0.0,0.0,0.0,0.0,0.0,-3.9798,-3.927,-3.902,-3.8969,-3.8366,-3.8065,-3.8065,-3.7513,-3.7236,-3.7236,-3.7211,-3.6933,-3.6405,-3.6405,-3.6405,-3.638,-3.583,-3.5881,-3.6282,-3.5048,-3.4487,-3.4342,-3.3346,-3.2471,-3.1809,-3.1962,-3.1893,-3.1717,0.0,0.0,0.0,0.0,0.0,0.0,0.0,0.0,0.0,0.0,0.0,0.0,0.0,0.0,0.0,0.0,0.0,0.0,0.0,-1.793,-1.8125,-1.8344,-1.8809,-1.9316,-1.9902,-2.0411,-2.1074,-2.1777,-2.2109,-2.2171,-2.1999,-2.1724,-2.161,-2.1662,-2.1454,-2.2004,-2.3069,-2.2289,-2.2419,-2.3158,-2.3548,-2.3401,0.0,0.0,0.0,0.0,0.0,0.0,0.0,0.0,-2.5837,-2.6021,-2.6373,-2.6097,-2.5711,-2.6323,-2.6348,-2.6248,-2.67,-2.7052,-2.7369,-2.772,-2.8047,-2.8649,-3.0005,-3.0934,-3.1687,-3.2315,-3.2993,-3.3294,-3.2767,0.0,-3.4876,-3.6332,-3.8316,-3.9898,0.0,0.0,0.0,0.0,0.0,0.0,0.0,0.0,0.0,0.0,0.0,0.0,-3.9195,-3.8642,-3.8341,-3.8341,-3.7789,-3.7337,-3.701,-3.6458,-3.6006,-3.5655,-3.6006,-3.6056,-3.5855,-3.5855,-3.5962,-3.6146,-3.5921,-3.5652,-3.5362,-3.4662,-3.4225,-3.3811,-3.2956,-3.2436,-3.2199,-3.1926,-3.1761,-3.1717,0.0,0.0,0.0,0.0,0.0,0.0,0.0,0.0,0.0,0.0,0.0,0.0,0.0,0.0,0.0,0.0,0.0,0.0,-1.8008,-1.8008,-1.811,-1.8383,-1.8984,-1.9492,-1.9902,-2.0918,-2.1719,-2.2305,-2.2441,-2.2227,-2.168,-2.1327,-2.1372,-2.1675,-2.1149,-2.165,-2.2778,-2.1821,-2.1759,-2.236,-2.3032,-2.2771,0.0,0.0,0.0,0.0,0.0,0.0,0.0,0.0,-2.5778,-2.5971,-2.6373,-2.6097,-2.5711,-2.6323,-2.6373,-2.6273,-2.6449,-2.6776,-2.7203,-2.772,-2.8524,-2.9628,-3.1286,-3.2667,-3.3796,-3.45,-3.4951,-3.5127,-3.4751,-3.4977,0.0,0.0,-3.8743,0.0,0.0,0.0,0.0,0.0,0.0,0.0,0.0,0.0,0.0,0.0,0.0,0.0,0.0,-3.8065,-3.7663,-3.7487,-3.696,-3.6408,-3.5881,-3.5433,-3.4911,-3.434,-3.489,-3.514,-3.5232,-3.5186,-3.5273,-3.5506,-3.5387,-3.5071,-3.4514,-3.4064,-3.356,-3.2959,-3.2461,-3.2226,-3.2178,-3.1862,-3.1717,-3.1717,0.0,0.0,0.0,0.0,0.0,0.0,0.0,0.0,0.0,0.0,0.0,0.0,0.0,0.0,0.0,0.0,0.0,0.0,-1.8008,-1.8027,-1.8027,-1.8027,-1.8848,-1.9492,-1.9902,-2.1211,-2.1894,-2.1894,-2.2305,-2.2029,-2.119,-2.119,-2.1311,-2.1471,-2.1095,-2.133,-2.2046,-2.1464,-2.132,-2.1512,-2.1512,-2.1873,-2.2435,0.0,0.0,0.0,0.0,0.0,0.0,0.0,-2.6499,-2.6499,-2.6499,-2.6097,-2.5711,-2.6323,-2.6097,-2.5737,-2.6348,-2.6499,-2.6625,-2.7203,-2.8574,-3.0532,-3.3294,-3.4349,-3.5353,-3.7563,-3.7136,-3.6405,-3.643,-3.6405,0.0,-3.7111,0.0,0.0,0.0,0.0,0.0,0.0,0.0,0.0,0.0,0.0,0.0,0.0,0.0,0.0,0.0,-3.7462,-3.6935,-3.643,-3.583,-3.5232,-3.468,-3.468,-3.4315,-3.3499,-3.4045,-3.4454,-3.468,-3.4479,-3.4388,-3.4388,-3.4111,-3.4019,-3.39,-3.3134,-3.2354,-3.1717,-3.1717,-3.1717,-3.1717,-3.1717,-3.1717,-3.1717,0.0,0.0,0.0,0.0,0.0,0.0,0.0,0.0,0.0,0.0,0.0,0.0,0.0,0.0,0.0,0.0,0.0,0.0,-1.8422,-1.873,-1.8906,-1.8906,-1.9434,-1.9785,-1.9922,-2.0878,-2.1719,-2.2324,-2.2148,-2.1777,-2.119,-2.119,-2.1074,-2.0879,-2.1036,-2.1095,-2.1055,-2.0995,-2.1012,-2.1128,-2.1852,-2.2231,-2.2456,0.0,0.0,0.0,0.0,0.0,0.0,0.0,0.0,0.0,-2.6499,-2.665,-2.6776,-2.6549,-2.665,-2.6741,-2.6549,-2.6776,-2.7404,-2.8699,-3.0281,-3.2114,-3.4455,-3.5479,-3.6508,-3.8743,-3.799,-3.7061,-3.7437,-3.7211,0.0,0.0,0.0,0.0,0.0,0.0,0.0,0.0,0.0,0.0,0.0,0.0,0.0,0.0,0.0,0.0,0.0,-3.6958,-3.6581,-3.6405,-3.6207,-3.5762,-3.5052,-3.5052,-3.4661,-3.3843,-3.4016,-3.4226,-3.4479,-3.4647,-3.4656,-3.4656,-3.4424,-3.3752,-3.2911,-3.2285,-3.1882,-3.1717,-3.1717,-3.1717,-3.1717,-3.1717,-3.1717,-3.1717,0.0,0.0,0.0,0.0,0.0,0.0,0.0,0.0,0.0,0.0,-1.8008,-1.8008,0.0,0.0,0.0,0.0,0.0,0.0,-1.8906,-1.9141,-1.9297,-1.9297,-1.9687,-2.004,-2.0391,-2.0917,-2.1444,-2.197,-2.1758,-2.1406,-2.0977,-2.1112,-2.1191,-2.1134,-2.1367,-2.1388,-2.1233,-2.141,-2.1389,-2.133,-2.2012,-2.2223,-2.2199,0.0,0.0,0.0,0.0,0.0,0.0,0.0,0.0,0.0,-2.6129,-2.6457,-2.6927,-2.66,-2.6725,-2.6927,-2.6575,-2.6901,-2.7695,-2.9377,-3.1185,-3.3244,-3.5884,-3.7287,-3.8467,-4.0023,-3.9195,-3.8291,-3.8617,-3.804,0.0,0.0,0.0,0.0,0.0,0.0,0.0,0.0,0.0,0.0,0.0,0.0,0.0,0.0,0.0,0.0,0.0,-3.6463,-3.6141,-3.5915,-3.5796,-3.5407,-3.4746,-3.4721,-3.4435,-3.3814,-3.4081,-3.4225,-3.4388,-3.4348,-3.4303,-3.4303,-3.3851,-3.3206,-3.2466,-3.1934,-3.1717,-3.1717,-3.1717,-3.1717,-3.1717,-3.1717,-3.1717,-3.1717,0.0,0.0,0.0,0.0,0.0,0.0,0.0,0.0,0.0,0.0,-1.8066,-1.8086,0.0,0.0,0.0,0.0,0.0,0.0,0.0,-1.9375,-1.9394,-1.9394,-1.9766,-2.0313,-2.1112,-2.1132,-2.1132,-2.1132,-2.1171,-2.1035,-2.0683,-2.1094,-2.1504,-2.1894,-2.1934,-2.2038,-2.2185,-2.231,-2.2147,-2.1849,-2.201,-2.1994,-2.1848,-2.1639,0.0,0.0,0.0,0.0,0.0,0.0,0.0,0.0,-2.5511,-2.5875,-2.6549,-2.6499,-2.6524,-2.6575,-2.6575,-2.6977,-2.7795,-2.9578,-3.1738,-3.4274,-3.7387,-3.9295,-4.0576,-4.1025,0.0,-3.9697,-3.9747,-3.8793,-3.8191,0.0,0.0,0.0,0.0,0.0,0.0,0.0,0.0,0.0,0.0,0.0,0.0,0.0,0.0,0.0,0.0,-3.6146,-3.5779,-3.5236,-3.4977,-3.4662,-3.4099,-3.4099,-3.3961,-3.373,-3.4216,-3.4458,-3.4434,-3.3948,-3.3706,-3.3586,-3.2871,-3.2539,-3.2466,-3.1961,-3.1741,-3.1717,-3.1717,-3.1717,-3.1717,-3.1717,-3.1717,-3.1717,0.0,0.0,0.0,0.0,0.0,0.0,0.0,0.0,0.0,0.0,0.0,0.0,0.0,0.0,0.0,0.0,0.0,0.0,0.0,-2.0098,-2.0331,-2.0331,-2.041,-2.0546,-2.0703,-2.0742,-2.0742,-2.0742,-2.1055,-2.1151,-2.1054,-2.1543,-2.1797,-2.1894,-2.2227,-2.2229,-2.1958,-2.1983,-2.1943,-2.1902,-2.1926,-2.209,-2.2263,-2.22,-2.2433,0.0,0.0,0.0,0.0,0.0,0.0,0.0,-2.53,-2.6145,-2.7052,-2.6625,-2.6801,-2.7128,-2.7128,-2.7494,-2.8524,-3.106,-3.4022,-3.6709,-3.8316,-3.9295,-3.9898,-4.0023,-3.9848,-3.9823,-4.0249,-3.9069,0.0,0.0,0.0,0.0,0.0,0.0,0.0,0.0,0.0,0.0,0.0,0.0,0.0,0.0,0.0,0.0,-3.6098,-3.6003,-3.5858,-3.5496,-3.5448,-3.5279,-3.4943,-3.4943,-3.4775,0.0,-3.4655,-3.4703,-3.4703,-3.4583,-3.4318,-3.3884,-3.3332,-3.2875,-3.2491,-3.237,-3.2058,-3.1717,-3.1717,-3.1717,-3.1717,-3.1717,-3.1717,-3.1717,0.0,0.0,0.0,0.0,0.0,0.0,0.0,0.0,0.0,0.0,0.0,0.0,0.0,0.0,0.0,0.0,0.0,0.0,0.0,0.0,-2.0605,-2.0605,-2.0605,-2.0605,-2.0605,-2.0605,-2.0703,-2.0879,-2.1551,-2.163,-2.121,-2.1894,-2.2187,-2.2207,-2.2617,-2.2578,-2.2229,-2.3021,-2.3145,-2.2856,-2.3043,-2.3143,-2.3161,-2.2289,-2.2158,-2.2352,-2.2277,0.0,0.0,0.0,0.0,0.0,0.0,0.0,-2.6737,-2.654,-2.67,-2.6927,-2.6927,-2.767,-2.9277,-3.2549,-3.5303,-3.7412,-3.8266,-3.8693,-3.8894,-3.8894,-3.9521,-4.0023,-3.9772,0.0,0.0,0.0,0.0,0.0,0.0,0.0,0.0,0.0,0.0,0.0,0.0,0.0,0.0,0.0,0.0,-3.5809,-3.5419,-3.5186,-3.5122,-3.5227,-3.4989,-3.492,-3.5017,-3.4727,-3.4559,-3.439,-3.4198,-3.4078,-3.4102,-3.4294,-3.439,-3.4318,-3.3621,-3.326,-3.3212,-3.2707,-3.2322,-3.2034,-3.1813,-3.1717,-3.1717,-3.1717,-3.1717,-3.1717,0.0,0.0,0.0,0.0,0.0,0.0,0.0,0.0,0.0,0.0,0.0,0.0,0.0,0.0,0.0,0.0,0.0,0.0,0.0,0.0,0.0,-2.0605,-2.0683,-2.0683,-2.0605,-2.076,-2.0938,-2.119,-2.2207,-2.233,-2.1639,-2.2414,-2.2667,-2.2637,-2.3118,-2.3079,-2.2703,-2.4407,-2.4573,-2.3721,-2.4209,-2.4211,-2.3743,-2.225,-2.1589,-2.1531,-2.2025,-2.2537,-2.3047,-2.3231,0.0,0.0,0.0,0.0,-2.598,-2.6164,-2.6361,-2.649,-2.66,-2.7896,-2.9991,-3.3358,-3.5483,-3.6935,-3.7514,-3.774,-3.7889,-3.799,-3.9044,-3.9697,0.0,0.0,0.0,0.0,0.0,0.0,0.0,0.0,0.0,0.0,0.0,0.0,0.0,0.0,0.0,0.0,0.0,-3.5157,-3.466,-3.4226,-3.4173,-3.4568,-3.4146,-3.4078,-3.4559,-3.4078,-3.3862,-3.3862,-3.3501,-3.3284,-3.3308,-3.3621,-3.4006,-3.4511,-3.3669,-3.3477,-3.367,-3.2947,-3.2539,-3.2322,-3.2006,-3.1789,-3.1717,-3.1717,-3.1717,-3.1717,0.0,0.0,0.0,0.0,0.0,0.0,0.0,0.0,0.0,0.0,-1.9824,-1.998,0.0,0.0,0.0,0.0,0.0,0.0,0.0,0.0,0.0,-2.0625,-2.0937,-2.0957,-2.0625,-2.128,-2.1502,-2.119,-2.2433,-2.3183,-2.3482,-2.3586,-2.34,-2.3047,-2.393,-2.3823,-2.3134,-2.4935,-2.4724,-2.3264,-2.413,-2.3778,-2.2712,-2.2467,-2.1875,-2.1271,-2.1312,-2.1194,-2.1011,-2.1223,-2.1832,0.0,0.0,0.0,-2.4945,-2.5158,-2.5676,-2.6382,-2.7007,-2.875,-3.0613,-3.1727,-3.3557,-3.5236,-3.6096,0.0,-3.7437,0.0,-3.7814,0.0,0.0,0.0,0.0,0.0,0.0,0.0,0.0,0.0,0.0,0.0,0.0,0.0,0.0,0.0,0.0,0.0,-3.4826,-3.4665,-3.4363,-3.4135,-3.3955,-3.3774,-3.352,-3.3428,-3.3501,-3.3428,-3.338,-3.338,-3.3308,-3.3284,-3.3284,-3.2875,-3.2996,-3.3477,-3.3356,-3.3068,-3.2731,-3.3044,-3.2635,-3.1862,-3.2226,-3.2082,-3.1717,-3.1717,-3.1717,-3.1717,0.0,0.0,0.0,0.0,0.0,0.0,0.0,0.0,0.0,0.0,0.0,-2.0352,0.0,0.0,0.0,0.0,0.0,0.0,0.0,0.0,0.0,-2.1349,-2.1504,-2.1504,-2.1309,-2.169,-2.1868,-2.1953,-2.3514,-2.4556,-2.5117,-2.6131,-2.5761,-2.4245,-2.522,-2.4861,-2.3565,-2.5147,-2.5062,-2.3907,-2.4317,-2.4449,-2.4199,-2.2961,-2.2559,-2.2513,-2.1568,-2.1451,-2.1759,-2.1591,-2.2038,-2.2691,-2.2936,0.0,0.0,0.0,-2.5158,-2.567,-2.7171,-2.86,-2.9927,-3.1042,-3.2578,-3.3953,-3.4504,-3.5265,-3.5881,-3.6107,0.0,0.0,0.0,0.0,0.0,0.0,0.0,0.0,0.0,0.0,0.0,0.0,0.0,0.0,0.0,0.0,0.0,0.0,-3.4025,-3.3811,-3.3247,-3.2999,-3.2967,-3.3123,-3.2965,-3.2996,-3.3284,-3.2996,-3.2683,-3.2415,-3.2082,-3.1982,-3.1913,-3.1384,-3.1937,-3.326,-3.2971,-3.2875,-3.2923,-3.2875,-3.2563,-3.2154,-3.2394,-3.2346,-3.2178,-3.2466,-3.2587,-3.2539,0.0,0.0,0.0,0.0,0.0,0.0,0.0,0.0,0.0,0.0,0.0,0.0,0.0,0.0,0.0,0.0,0.0,0.0,0.0,0.0,0.0,-2.1894,-2.1992,-2.1992,-2.1894,-2.2081,-2.2403,-2.2839,-2.4199,-2.5423,-2.6586,-2.7854,-2.754,-2.5988,-2.6679,-2.582,-2.3904,-2.5616,-2.5551,-2.4352,-2.4956,-2.5295,-2.5336,-2.3862,-2.3678,-2.397,-2.2412,-2.229,-2.2718,-2.2048,-2.2188,-2.2676,-2.2756,-2.2824,0.0,0.0,0.0,-2.5051,-2.6772,-2.7779,-2.8624,-2.9757,-3.1183,-3.2421,0.0,0.0,-3.4365,0.0,0.0,0.0,0.0,0.0,0.0,0.0,0.0,0.0,0.0,0.0,0.0,0.0,0.0,0.0,0.0,0.0,0.0,0.0,-3.3231,-3.297,-3.2425,-3.2181,-3.2176,-3.2564,-3.2409,-3.2466,-3.2875,-3.2491,-3.2082,-3.1693,-3.1308,-3.1115,-3.1091,-3.0518,-3.1168,-3.2659,-3.225,-3.2394,-3.2851,-3.2611,-3.2418,-3.2298,-3.2442,-3.2491,-3.2539,-3.2947,-3.3164,-3.3236,0.0,0.0,0.0,0.0,0.0,0.0,0.0,0.0,0.0,0.0,0.0,0.0,-2.1171,-2.1171,-2.1035,-2.0644,-2.0957,0.0,0.0,0.0,0.0,-2.1894,-2.2266,0.0,-2.1894,-2.2635,-2.3248,-2.3722,-2.3784,-2.5146,-2.778,-2.759,-2.7785,-2.8322,-2.8132,-2.6475,-2.3969,-2.6604,-2.6195,-2.4024,-2.6184,-2.6049,-2.4659,-2.5378,-2.5431,-2.4998,-2.4032,-2.3474,0.0,0.0,0.0,-2.1233,-2.0898,-2.128,-2.1907,0.0,0.0,0.0,-2.5513,-2.6271,-2.687,-2.7072,-2.8651,-3.0269,0.0,0.0,0.0,0.0,0.0,0.0,0.0,0.0,0.0,0.0,0.0,0.0,0.0,0.0,0.0,0.0,0.0,0.0,0.0,0.0,0.0,0.0,-3.2493,-3.2425,-3.24,-3.2181,-3.2006,-3.203,-3.1854,-3.1765,-3.1789,-3.1765,-3.1741,-3.1717,-3.1669,-3.1669,-3.1645,-3.1115,-3.0946,-3.0999,-3.1019,-3.1308,-3.1837,-3.2298,-3.2178,-3.1813,-3.2298,-3.2491,-3.2491,-3.2539,-3.2851,-3.3284,0.0,0.0,0.0,0.0,0.0,0.0,0.0,0.0,0.0,0.0,0.0,0.0,0.0,-2.166,-2.1582,-2.1466,-2.1797,0.0,0.0,0.0,0.0,-2.2695,-2.2789,-2.2808,-2.2652,-2.3549,-2.38,-2.3365,-2.4493,-2.5637,-2.6761,-2.7766,-2.8277,-2.833,-2.9056,-2.7944,-2.5523,-2.6217,-2.5615,-2.4303,-2.5147,-2.5421,-2.5358,-2.5694,-2.6105,-2.6255,-2.4449,0.0,0.0,0.0,0.0,-2.2312,-2.1292,-2.1194,-2.1586,-2.2407,-2.3599,-2.4814,-2.543,-2.5893,-2.6293,-2.6688,-2.7606,-2.8568,-2.9252,-3.0406,-3.139,0.0,0.0,0.0,0.0,0.0,0.0,0.0,0.0,0.0,0.0,0.0,0.0,0.0,0.0,0.0,0.0,0.0,0.0,0.0,0.0,-3.2069,-3.1937,-3.1849,-3.1636,-3.1298,-3.1568,-3.1717,-3.1717,-3.1717,-3.1717,-3.1693,-3.1356,-3.1211,-3.1187,-3.0657,-3.0374,-3.0374,-3.0374,-3.0663,-3.1235,-3.1789,-3.1886,-3.1765,-3.2274,-3.2707,-3.3044,-3.3356,-3.3813,-3.4174,0.0,0.0,0.0,0.0,0.0,0.0,0.0,0.0,-2.1602,-2.2031,0.0,0.0,0.0,0.0,-2.209,-2.209,-2.2363,-2.2578,-2.2672,-2.2945,-2.3101,-2.3101,-2.3101,-2.3101,-2.3101,-2.3691,-2.3864,-2.356,-2.4445,-2.5508,-2.6758,-2.7325,-2.792,-2.8567,-2.9153,-2.8202,-2.6273,-2.6585,-2.5957,-2.4781,-2.5528,-2.6137,-2.6543,-2.6679,-2.7124,-2.7436,0.0,0.0,0.0,0.0,0.0,0.0,-2.2292,-2.1549,-2.1372,-2.2319,-2.3121,-2.3854,-2.4528,-2.5016,-2.5396,-2.5757,-2.6493,-2.7275,-2.7755,0.0,0.0,0.0,0.0,0.0,0.0,0.0,0.0,0.0,0.0,0.0,0.0,0.0,0.0,0.0,0.0,0.0,0.0,0.0,0.0,0.0,0.0,0.0,-3.1452,-3.1452,-3.1211,-3.0639,-3.0995,-3.1187,-3.1187,-3.1356,-3.1452,-3.1452,-3.1259,-3.1187,-3.1163,-3.0591,-3.035,-3.035,-3.0158,-3.0374,-3.0946,-3.1308,-3.1548,-3.1741,-3.2082,-3.2539,-3.3046,-3.3149,-3.3504,-3.3931,0.0,0.0,0.0,0.0,0.0,0.0,0.0,0.0,-2.2051,-2.248,0.0,0.0,0.0,0.0,0.0,-2.2539,-2.2539,-2.2652,-2.3062,-2.3101,-2.3101,-2.3101,0.0,0.0,-2.3101,-2.3144,-2.356,-2.4466,-2.356,-2.4759,-2.7878,-2.6109,-2.667,-2.9144,-2.8356,-2.7234,-2.6038,-2.7786,-2.7259,-2.5392,-2.7597,-2.8309,-2.8077,-2.8385,-2.8568,0.0,-2.748,-2.6889,0.0,-2.5552,0.0,0.0,-2.3633,-2.2251,-2.1252,-2.1691,-2.1814,-2.1983,0.0,0.0,0.0,0.0,0.0,0.0,-2.6384,0.0,0.0,0.0,0.0,0.0,0.0,0.0,0.0,0.0,0.0,0.0,0.0,0.0,0.0,0.0,0.0,0.0,0.0,0.0,0.0,0.0,-3.138,-3.1452,-3.0879,-3.0874,-3.0591,-3.011,-3.0062,-3.0062,-3.0086,-3.0591,-3.0898,-3.0898,-3.1428,-3.1693,-3.1669,-3.1163,-3.0879,-3.0898,-3.0326,-3.0374,-3.0922,-3.0922,-3.1235,-3.1717,-3.1717,-3.2054,-3.2426,-3.1808,-3.1888,-3.244,0.0,0.0,0.0,0.0,0.0,-2.1992,-2.2285,-2.2344,-2.248,0.0,0.0,0.0,-2.2925,-2.2925,-2.2925,-2.2925,-2.2925,-2.2964,-2.3081,-2.3101,-2.3101,-2.3101,-2.3101,-2.3101,-2.3101,-2.3777,-2.3907,-2.3474,-2.3907,-2.455,-2.5445,-2.4975,-2.6023,-2.8333,-2.81,-2.7397,-2.6455,-2.7276,-2.7625,-2.7758,-2.8004,-2.8537,-2.906,-2.9098,0.0,0.0,0.0,-2.7778,-2.8244,0.0,-2.5622,-2.5308,0.0,-2.2022,-2.1331,-2.2041,-2.2025,-2.1983,-2.2771,0.0,0.0,0.0,0.0,0.0,0.0,0.0,0.0,0.0,0.0,0.0,0.0,0.0,0.0,0.0,0.0,0.0,0.0,0.0,0.0,0.0,0.0,0.0,0.0,0.0,0.0,0.0,-3.0446,-3.047,-3.0326,-2.9941,-2.9845,-3.0086,-2.9725,-2.9701,-3.0086,-3.023,-3.0302,-3.0302,-3.0898,-3.1139,-3.1139,-3.138,-3.1284,-3.0898,-3.0326,-3.0374,-3.0922,-3.0922,-3.1235,-3.1717,-3.1717,-3.2054,-3.2378,-3.1507,-3.1502,-3.189,0.0,0.0,0.0,0.0,0.0,-2.248,-2.2691,-2.273,-2.2808,0.0,0.0,0.0,-2.3101,-2.3413,-2.3491,-2.312,-2.3101,-2.3101,-2.3101,-2.3101,-2.3101,-2.3101,-2.3101,-2.3101,-2.3101,-2.3647,-2.3647,-2.3101,-2.3647,-2.4122,-2.4488,-2.4122,-2.5275,-2.7663,-2.7266,-2.7182,-2.7409,-2.7627,-2.763,-2.7547,-2.8259,-2.9019,-2.9742,-2.9621,-2.9805,0.0,0.0,0.0,-2.9432,-2.7782,-2.6621,0.0,0.0,0.0,-2.1781,-2.189,-2.1961,-2.2119,-2.2424,-2.3268,-2.4108,0.0,0.0,0.0,-2.5606,-2.5849,0.0,0.0,0.0,0.0,0.0,0.0,0.0,0.0,0.0,0.0,0.0,0.0,0.0,0.0,0.0,0.0,0.0,-2.9629,-2.9749,-2.9749,-2.9965,-2.9989,-2.9773,-2.9268,-2.91,-2.9412,-2.9124,-2.9124,-2.9436,-2.9653,-2.9749,-2.9773,-3.0302,-3.0663,-3.0922,-3.1235,-3.1332,-3.1211,-3.0422,-3.0374,-3.0855,-3.0228,-3.0628,-3.1673,-3.125,-3.1529,-3.1998,-3.0742,-3.0476,-3.065,0.0,0.0,-2.3101,-2.3101,-2.314,-2.3159,-2.3159,-2.3159,-2.3179,0.0,-2.3276,-2.3335,-2.3374,-2.4062,-2.416,-2.3315,-2.3198,-2.314,-2.3101,-2.3101,-2.3101,-2.3101,-2.3101,-2.3101,-2.3101,-2.3101,-2.3101,-2.3101,-2.3101,-2.356,-2.4488,-2.3517,-2.4573,-2.7144,-2.6216,-2.6753,-2.8339,-2.8459,-2.7534,-2.6243,-2.8492,-2.9773,-3.0361,0.0,-3.0214,-3.0351,-3.0077,-3.0122,-3.014,-2.9421,-2.7658,0.0,0.0,0.0,0.0,0.0,-2.197,-2.2381,-2.1909,-2.2886,-2.4013,0.0,0.0,0.0,-2.5324,-2.5383,-2.5587,0.0,0.0,0.0,0.0,0.0,0.0,0.0,0.0,0.0,0.0,0.0,0.0,0.0,0.0,0.0,-2.833,-2.8811,-2.9124,-2.9124,-2.9605,-2.9701,-2.9244,-2.8763,-2.8522,-2.8522,-2.8522,-2.8522,-2.8522,-2.8979,-2.922,-2.922,-2.9749,-3.0278,-3.0826,-3.0855,-3.1211,-3.1645,-3.0585,-3.0374,-3.0788,-2.91,-2.9622,-3.1356,-3.0373,-3.0599,-3.1163,-2.9653,-2.905,-2.8972,0.0,-2.3042,-2.3101,-2.3101,-2.3437,-2.3672,-2.3672,-2.3672,-2.3789,-2.4121,-2.4473,-2.4824,-2.5148,-2.5059,-2.4727,-2.4219,-2.3867,-2.3516,-2.312,-2.3101,-2.3101,-2.3101,-2.3101,-2.3101,-2.3101,-2.3101,-2.3101,-2.3101,-2.3101,-2.356,-2.4488,-2.3517,-2.4573,-2.7144,-2.6216,-2.6423,-2.751,-2.8179,-2.8133,-2.7702,-2.9284,-3.0783,-3.1961,-3.1045,-3.1025,-3.1264,-3.0386,-3.0381,-3.0486,-2.8818,-2.716,-2.5797,0.0,0.0,0.0,-2.335,0.0,0.0,0.0,0.0,0.0,0.0,0.0,0.0,-2.5171,-2.5109,-2.5065,0.0,0.0,0.0,0.0,0.0,0.0,0.0,0.0,0.0,0.0,0.0,0.0,0.0,0.0,0.0,-2.721,-2.769,-2.8017,-2.8017,-2.8522,-2.8763,-2.8667,-2.857,-2.8522,-2.8522,-2.8522,-2.8522,-2.8522,-2.8619,-2.8667,-2.8667,-2.9196,-2.9725,-3.0254,-3.073,-3.1211,-3.1645,-3.0585,-3.0374,-3.0745,-2.8382,-2.8342,-2.9796,-2.9216,-2.9096,-2.9165,-2.804,-2.761,-2.7529,-2.3101,-2.3101,-2.3159,-2.3418,-2.3633,-2.3867,-2.4062,-2.4102,-2.4258,-2.4687,-2.5508,-2.5879,-2.5449,-2.5605,-2.5371,-2.4492,-2.4219,-2.4004,-2.3744,-2.3574,-2.3457,-2.3457,-2.3218,-2.3101,-2.3101,-2.3101,-2.3101,-2.3101,-2.3101,-2.3343,-2.382,-2.382,-2.4787,-2.6505,-2.6505,-2.6999,-2.7857,-2.7857,-2.8281,-2.9117,-2.9798,0.0,-3.1649,-3.1428,-3.1476,-3.1645,-3.1115,-3.0922,-3.074,-2.9763,-2.8003,0.0,0.0,-2.504,-2.4031,0.0,-2.3619,-2.3859,0.0,0.0,0.0,-2.3881,0.0,0.0,0.0,-2.4166,-2.3951,-2.4105,0.0,0.0,0.0,0.0,0.0,0.0,0.0,0.0,0.0,0.0,0.0,0.0,0.0,0.0,-2.6898,-2.7138,-2.7282,-2.7282,-2.7546,-2.781,-2.8114,-2.8114,-2.8234,-2.8498,-2.8522,-2.8522,-2.8522,-2.8522,-2.8522,-2.8522,-2.9051,-2.9436,-2.9725,-3.0518,-3.1067,-3.1284,-3.0711,-3.0257,-2.9652,-2.8144,-2.7521,-2.7653,-2.7843,-2.8262,-2.8588,-2.7558,-2.7179,-2.7078,-2.3101,-2.3101,-2.3198,-2.3594,-2.3789,-2.4023,-2.4355,-2.4492,-2.4727,-2.5302,-2.6309,-2.6641,-2.5712,-2.6133,-2.6113,-2.5137,-2.4746,-2.4609,-2.4785,-2.4238,-2.3906,-2.3906,-2.3574,-2.3335,-2.3335,-2.3257,-2.3218,-2.3218,-2.314,-2.3101,-2.3144,-2.3864,-2.4787,-2.5819,-2.6588,-2.7557,-2.8627,-2.7917,-2.8628,-3.023,0.0,-3.0609,-3.1115,-3.1548,-3.1717,-3.1717,-3.1717,-3.1225,-3.0596,-3.052,-2.8634,-2.6238,-2.5888,-2.5316,0.0,0.0,0.0,0.0,0.0,0.0,0.0,0.0,0.0,-2.3627,0.0,0.0,0.0,-2.3001,0.0,0.0,0.0,0.0,0.0,0.0,0.0,0.0,0.0,0.0,0.0,0.0,0.0,0.0,0.0,-2.6681,-2.6777,-2.6898,-2.6898,-2.7114,-2.7642,-2.769,-2.7969,-2.8498,-2.8522,-2.8522,-2.8522,-2.8522,-2.8522,-2.8522,-2.8955,-2.9244,-2.9484,-3.0326,-3.0745,-3.0739,-3.0644,-2.9816,-2.8512,-2.7897,-2.6928,-2.597,-2.6654,-2.7437,-2.8028,-2.72,-2.6914,-2.6791,-2.3101,-2.3101,-2.312,-2.3159,-2.3803,-2.4355,-2.4414,-2.4746,-2.5341,-2.6133,-2.6699,-2.7109,-2.7395,-2.7109,-2.7031,-2.7285,-2.5928,-2.5332,-2.6113,-2.5019,-2.4355,-2.4355,-2.4297,-2.4277,-2.4277,-2.3906,-2.3711,-2.3711,-2.3276,-2.3101,-2.3101,-2.3232,-2.4188,-2.5777,-2.5902,-2.7167,-2.9196,-2.9073,-2.9738,-3.0826,-3.0826,-3.1139,0.0,-3.1693,-3.1717,-3.1717,-3.1717,-3.0761,-2.9519,0.0,-2.7325,-2.533,0.0,-2.5735,-2.5484,0.0,0.0,0.0,0.0,0.0,0.0,0.0,-2.3768,0.0,0.0,0.0,-2.3087,-2.302,0.0,0.0,0.0,0.0,0.0,0.0,0.0,0.0,0.0,0.0,0.0,0.0,0.0,0.0,0.0,-2.5925,-2.6406,-2.6849,-2.6898,-2.7114,-2.7642,-2.769,-2.7969,-2.8498,-2.8522,-2.8522,-2.8522,-2.8522,-2.8522,-2.8522,-2.857,-2.91,-2.9989,-3.0134,-3.0233,-3.0235,-2.9796,-2.8968,-2.7939,-2.6936,-2.6475,-2.6311,-2.6008,-2.5917,-2.6014,-2.5917,-2.5868,-2.5868,-2.3101,-2.3101,-2.3179,-2.3477,-2.3809,-2.4219,-2.4727,-2.6016,-2.6992,-2.7109,-2.793,-2.8652,-2.9082,-2.8516,-2.8184,-2.8379,0.0,-2.6573,0.0,0.0,-2.4805,-2.4805,-2.4551,-2.4414,-2.4414,-2.4004,-2.3789,-2.3789,-2.3315,-2.3101,-2.3101,-2.3647,-2.4317,-2.5084,-2.6462,-2.763,-2.855,-2.8897,-2.9759,0.0,0.0,0.0,0.0,-3.1717,-3.1717,-3.1717,-3.1717,-3.1284,-3.0599,0.0,-2.813,0.0,0.0,0.0,0.0,0.0,0.0,0.0,0.0,0.0,0.0,0.0,0.0,0.0,-2.3104,0.0,-2.2311,0.0,0.0,0.0,0.0,0.0,0.0,0.0,-2.4173,0.0,0.0,0.0,0.0,0.0,0.0,0.0,0.0,0.0,0.0,0.0,-2.5961,-2.6214,-2.6743,-2.6767,-2.7176,-2.8017,-2.8065,-2.821,-2.8522,-2.8522,-2.8522,-2.8522,-2.8811,-2.9051,-2.9196,-3.0134,-3.0075,-2.9276,-2.9688,-2.8812,-2.7116,-2.6702,-2.6002,-2.5265,-2.5318,-2.5508,-2.5693,-2.5693,-2.5693,-2.5693,-2.3101,-2.3101,-2.3198,-2.3555,-2.3711,-2.4121,-2.5098,-2.6582,-2.7656,-2.7812,-2.8652,-2.9434,-2.9961,-2.9687,0.0,0.0,-2.8848,-2.8047,0.0,0.0,-2.5488,0.0,0.0,0.0,0.0,-2.4238,-2.3965,-2.3965,-2.3354,-2.3101,-2.3101,-2.382,-2.4251,-2.4615,-2.6858,-2.7957,-2.8257,-2.9226,-3.0194,-3.1052,-3.0393,-3.0761,-3.1717,-3.1717,-3.1717,-3.1717,-3.1717,-3.1516,-3.1128,-3.0081,-2.8769,0.0,-2.6989,0.0,0.0,0.0,0.0,0.0,-2.382,0.0,0.0,0.0,0.0,0.0,0.0,0.0,0.0,0.0,0.0,0.0,0.0,0.0,0.0,0.0,0.0,-2.3736,0.0,0.0,0.0,0.0,0.0,0.0,0.0,0.0,0.0,0.0,0.0,-2.5396,-2.6069,-2.6093,-2.6598,-2.7642,-2.769,-2.7969,-2.8498,-2.8522,-2.8522,-2.8522,-2.8907,-2.8834,-2.84,-2.9682,-2.9439,-2.812,-2.9014,-2.8207,-2.6349,-2.6207,-2.5565,-2.4629,-2.4988,-2.5273,-2.5566,-2.5635,-2.5693,-2.5693,-2.3101,-2.3101,-2.3101,-2.312,-2.3516,-2.4219,-2.5479,-2.5732,-2.6356,-2.8047,-2.832,-2.8652,0.0,0.0,0.0,0.0,0.0,-2.9941,-2.9492,0.0,-2.6582,0.0,0.0,-2.5654,0.0,0.0,-2.4394,-2.4394,-2.351,-2.3101,-2.3101,-2.3144,-2.3647,-2.4572,-2.6563,-2.7873,-2.883,-3.0751,-3.1625,-3.1693,-3.1625,-3.1649,-3.1717,0.0,-3.1717,-3.1717,-3.1717,0.0,0.0,-2.9152,-2.8518,0.0,0.0,0.0,0.0,0.0,0.0,0.0,0.0,0.0,0.0,-2.3418,0.0,0.0,0.0,0.0,-2.2383,0.0,0.0,0.0,0.0,0.0,-2.2342,-2.223,0.0,0.0,0.0,0.0,0.0,0.0,0.0,0.0,0.0,0.0,0.0,0.0,0.0,0.0,-2.6045,-2.6093,-2.6598,-2.7642,-2.769,-2.7969,-2.8498,-2.8522,-2.8522,-2.8522,-2.8522,-2.8343,-2.8004,-2.8448,-2.7922,-2.6722,-2.7134,-2.6675,-2.5684,-2.5302,-2.5106,-2.5106,-2.5106,-2.5125,-2.5184,-2.5586,-2.5693,-2.5693,-2.3101,-2.3101,-2.3101,-2.3101,-2.3218,-2.3789,-2.5098,-2.6504,0.0,0.0,-3.0918,0.0,0.0,-3.4199,-3.4043,0.0,0.0,-3.2109,-3.0547,-2.9355,0.0,0.0,0.0,-2.6445,0.0,0.0,0.0,-2.4844,-2.4277,-2.3939,-2.3939,-2.3711,-2.3752,-2.4107,-2.5698,-2.693,0.0,0.0,0.0,0.0,0.0,-3.1934,-3.2178,0.0,0.0,-3.1717,-3.1717,-3.1472,0.0,-2.9996,-2.9369,-2.8942,-2.8286,-2.7657,-2.6988,-2.6471,-2.6292,0.0,0.0,0.0,-2.6079,-2.4444,0.0,0.0,0.0,0.0,0.0,0.0,0.0,0.0,0.0,0.0,-2.149,-2.1197,-2.1728,-2.2146,0.0,0.0,0.0,0.0,0.0,0.0,0.0,0.0,0.0,0.0,-2.4592,0.0,0.0,-2.5564,-2.6069,-2.7138,-2.7162,-2.7594,-2.8498,-2.8522,-2.8522,-2.8522,-2.8522,-2.8279,-2.7901,-2.8382,-2.7833,-2.6491,-2.6993,-2.6648,-2.5654,-2.5254,-2.5106,-2.5106,-2.5106,-2.5106,-2.5165,-2.5566,-2.5693,-2.5693,-2.3379,-2.3198,-2.3101,-2.3101,-2.3354,-2.3978,0.0,0.0,0.0,0.0,-3.2891,0.0,-3.6836,0.0,-3.6172,0.0,-3.5566,-3.3965,-3.1504,-3.1265,0.0,-2.8393,-2.8584,0.0,0.0,0.0,0.0,0.0,0.0,-2.457,-2.4414,-2.4141,-2.3926,-2.3873,-2.566,-2.6804,-2.7547,-2.9625,-3.0943,0.0,0.0,-3.1934,0.0,0.0,-3.1837,-3.1982,0.0,-3.1717,-3.1573,-3.0663,-3.0083,-2.9725,-2.96,-2.8649,-2.7629,-2.7793,-2.7259,-2.6459,-2.587,-2.6223,0.0,-2.5253,-2.5358,0.0,-2.393,0.0,0.0,0.0,0.0,0.0,0.0,0.0,0.0,-2.1072,-2.1203,-2.1395,0.0,-2.1507,0.0,0.0,0.0,0.0,0.0,0.0,0.0,-2.4424,-2.4362,0.0,0.0,0.0,-2.5769,-2.6873,-2.6898,-2.7402,-2.8498,-2.8522,-2.8522,-2.8522,-2.8329,-2.7952,-2.7352,-2.7655,-2.7136,-2.5953,-2.6445,-2.6284,-2.5654,-2.5254,-2.5106,-2.5106,-2.5106,-2.5106,-2.5184,-2.5742,-2.5977,-2.5996,-2.3789,-2.3496,-2.3198,0.0,-2.3881,0.0,0.0,0.0,-3.0703,0.0,-3.418,-3.5859,-3.6797,-3.7226,-3.7461,-3.7461,-3.7051,-3.5547,-3.264,-3.3518,0.0,0.0,-3.1017,-3.1315,-3.0231,0.0,0.0,0.0,0.0,-2.4883,-2.4473,-2.4453,-2.4238,-2.3951,-2.6274,-2.7331,-2.7591,-2.992,-3.1202,-3.1717,-3.1717,-3.1717,-3.1741,-3.1717,-3.201,-3.2418,-3.191,-3.1717,-3.1621,-3.1091,-3.0623,-3.0279,-3.0191,-2.9848,-2.954,-2.9934,-2.9093,-2.8045,-2.7897,-2.6948,-2.5902,-2.5819,0.0,0.0,0.0,0.0,-2.4615,0.0,0.0,0.0,0.0,0.0,0.0,-2.1788,-2.1108,-2.0605,0.0,0.0,0.0,0.0,0.0,0.0,0.0,0.0,-2.3376,-2.441,-2.4049,-2.4251,0.0,0.0,-2.5769,-2.6873,-2.6898,-2.7402,-2.8498,-2.8546,-2.8546,-2.8507,-2.8045,-2.7417,-2.6563,-2.6442,-2.5932,-2.5165,-2.5547,-2.5693,-2.5654,-2.5273,-2.5145,-2.5145,-2.5145,-2.5165,-2.5302,-2.6094,-2.6406,-2.6465,-2.3789,-2.4219,-2.4668,0.0,-2.498,-2.5352,0.0,0.0,0.0,0.0,-3.5937,-3.7969,-3.9824,-3.9824,-3.9687,-3.9687,-3.8984,0.0,0.0,0.0,0.0,-3.1562,-3.095,-3.0071,-2.8862,-2.777,0.0,-2.5932,0.0,-2.546,-2.5343,-2.5059,-2.4891,-2.4793,-2.5409,-2.6532,-2.7985,-2.8894,-3.0194,-3.1717,-3.1717,-3.1958,0.0,0.0,-3.201,-3.2418,-3.191,-3.1717,-3.1621,-3.1091,-3.1085,-3.1219,-3.0836,-3.063,-3.0304,-2.9332,-2.9009,-2.858,-2.6838,-2.7049,-2.747,-2.611,-2.634,-2.6588,0.0,0.0,0.0,0.0,0.0,0.0,0.0,0.0,0.0,0.0,-2.0938,0.0,0.0,0.0,0.0,0.0,0.0,0.0,0.0,0.0,-2.2823,-2.3881,-2.3866,-2.4251,0.0,0.0,0.0,-2.6873,-2.6898,-2.7402,-2.8498,-2.8907,-2.91,-2.91,-2.8621,-2.8092,-2.7521,-2.676,-2.6067,-2.5566,-2.5635,-2.5693,-2.5674,-2.5557,-2.5566,-2.5566,-2.5566,-2.5957,-2.6504,-2.6426,-2.6582,-2.6875,-2.4316,-2.5488,0.0,-2.6328,0.0,0.0,-2.8594,-2.9902,0.0,-3.4355,-3.6582,0.0,-3.9609,-4.0215,-4.0527,-4.0527,-4.0559,0.0,-3.6866,0.0,0.0,-3.3376,-3.2863,-3.1799,-3.0052,-2.8865,0.0,-2.638,0.0,-2.5869,-2.5693,-2.5488,-2.5254,-2.5125,-2.5273,-2.6135,-2.7503,-2.8805,-3.0102,-3.1333,-3.1567,0.0,0.0,-3.1837,-3.191,-3.2082,-3.1813,-3.1717,-3.1669,-3.1356,-3.1189,-3.1045,-3.1225,-3.0954,-3.0508,-3.0138,-2.9569,-2.8892,-2.7939,-2.7795,-2.7794,-2.7121,-2.708,-2.7062,-2.6547,-2.6289,-2.6253,0.0,0.0,0.0,0.0,0.0,0.0,0.0,0.0,0.0,0.0,0.0,0.0,0.0,0.0,0.0,0.0,-2.2505,-2.3207,-2.4049,-2.4097,0.0,0.0,0.0,0.0,-2.6873,-2.7354,-2.7702,-2.7914,-2.9319,-2.935,-2.8068,-2.82,-2.7921,-2.7207,-2.6464,-2.5948,-2.5693,-2.5693,-2.5693,-2.5693,-2.5693,-2.5693,-2.5713,-2.5937,-2.6426,-2.7012,-2.6973,-2.709,-2.7324,-2.5156,0.0,0.0,0.0,0.0,0.0,0.0,-3.1836,0.0,-3.4863,0.0,-3.834,-3.834,-3.9707,-4.0605,-4.0605,0.0,-4.0541,-3.7191,-3.9515,-3.908,-3.48,-3.5061,-3.4239,-3.1975,-3.0527,0.0,0.0,0.0,-2.6241,-2.5693,-2.5693,-2.5527,-2.5176,-2.5566,-2.6132,0.0,-2.9239,-3.0468,-3.0951,-3.1484,-3.1717,-3.1717,-3.1717,-3.1717,-3.1717,-3.1717,-3.1717,-3.1717,-3.1717,-3.1092,-3.0531,-3.1427,-3.1092,-3.0553,-3.126,-3.0308,-2.9083,-2.9558,-2.858,-2.751,-2.8018,-2.7753,-2.7307,-2.7062,-2.6588,-2.634,-2.7062,-2.6629,-2.6453,0.0,0.0,0.0,0.0,0.0,0.0,0.0,0.0,0.0,0.0,0.0,0.0,0.0,0.0,0.0,-2.4311,-2.4266,0.0,0.0,0.0,0.0,-2.6873,-2.7708,0.0,-2.7597,0.0,-2.9256,-2.6976,-2.7519,-2.7338,-2.6481,-2.5932,-2.5693,-2.5693,-2.5693,-2.5693,-2.5693,-2.5693,-2.5732,-2.581,-2.625,-2.668,-2.7148,-2.7519,-2.7748,-2.7865,-2.6074,0.0,0.0,0.0,0.0,-3.1992,-3.3769,-3.5019,-3.6152,-3.7226,-3.9258,-4.0605,-4.0605,-4.0879,-4.1055,-4.1055,-4.0636,0.0,0.0,0.0,0.0,-3.4758,-3.3826,-3.2475,-3.0621,-2.9705,-2.835,0.0,0.0,-2.6585,-2.5693,-2.5693,-2.5635,-2.5577,-2.5654,0.0,-2.8411,-2.967,0.0,-3.1571,-3.1653,-3.1717,-3.1717,-3.1717,-3.1717,-3.1717,-3.1717,-3.1717,-3.1717,-3.1717,-3.156,-3.1472,-3.1649,-3.156,-3.1304,-3.0572,-3.0145,-2.9558,-2.8104,-2.7975,-2.7955,-2.6629,-2.7284,-2.7874,-2.6381,-2.708,-2.7874,-2.7307,-2.7632,-2.7891,-2.7394,0.0,0.0,0.0,0.0,0.0,0.0,0.0,0.0,0.0,0.0,0.0,0.0,0.0,0.0,0.0,0.0,0.0,0.0,0.0,0.0,0.0,-2.6355,0.0,0.0,0.0,-2.8454,-2.9556,-2.8046,-2.7217,-2.7028,-2.6119,-2.5693,-2.5693,-2.5693,-2.5693,-2.5693,-2.5693,-2.5957,-2.6289,-2.6367,-2.6855,-2.7611,-2.7689,-2.7891,-2.8203,-2.7617,0.0,0.0,0.0,0.0,0.0,0.0,-3.7676,-3.8496,-3.7988,-3.8828,-3.9492,-3.9492,-4.0488,-4.1074,-4.0859,-4.1191,-4.0624,-3.8725,-3.8735,-3.7717,-3.5203,-3.4023,0.0,-3.0234,-2.9416,-2.8125,-2.6387,0.0,0.0,-2.5693,-2.5693,-2.5693,-2.5742,-2.6235,-2.6866,0.0,0.0,0.0,-2.9753,-3.0057,-3.0125,-3.0125,-3.0125,-3.0441,-3.0869,-3.0351,-3.0486,-3.1003,-3.1516,-3.1339,-3.1003,-3.1516,-3.0958,-3.0258,-3.0787,-3.0153,-2.9272,-2.9145,-2.8797,-2.8371,-2.7754,-2.7369,-2.7121,-2.7203,-2.6794,-2.6712,-2.7672,-2.747,-2.6958,-2.6547,-2.5603,0.0,0.0,0.0,0.0,0.0,0.0,0.0,0.0,0.0,0.0,0.0,0.0,0.0,0.0,0.0,0.0,0.0,0.0,0.0,0.0,0.0,0.0,0.0,0.0,0.0,-2.7526,-2.7311,-2.6914,-2.6408,-2.5917,-2.5693,-2.5693,-2.5693,-2.5693,-2.5713,-2.5977,-2.6191,-2.6426,-2.6875,-2.7356,-2.7748,-2.791,-2.8125,-2.8301,0.0,-3.0156,0.0,0.0,-3.4434,0.0,-3.7715,-3.9473,-4.0176,-3.8789,-3.8613,-3.8574,-3.8476,-4.0098,-4.0996,-4.0566,-4.1605,-4.1245,-3.8798,-3.9262,-3.8381,-3.5379,-3.4492,-3.2949,-3.0527,-2.9675,-2.8377,0.0,0.0,0.0,0.0,-2.5732,-2.5693,0.0,0.0,0.0,0.0,0.0,-2.8263,-2.8103,-2.8506,-2.868,-2.868,-2.868,-2.9189,-2.9784,-2.9004,-2.9189,-2.9988,-3.0824,-3.0554,-3.0079,-3.1048,-3.0306,-2.9304,-3.0772,-3.0228,-2.9296,-3.0162,-2.963,-2.8769,-2.8574,-2.7398,-2.6474,-2.7323,-2.6074,-2.5337,-2.7244,-2.6835,-2.5986,-2.5568,-2.5819,0.0,0.0,0.0,0.0,0.0,0.0,0.0,0.0,0.0,0.0,0.0,0.0,0.0,0.0,0.0,0.0,0.0,0.0,0.0,0.0,0.0,-2.7153,-2.7105,0.0,-2.7526,0.0,-2.6526,-2.6456,-2.5693,-2.5693,-2.5693,-2.5693,-2.5693,-2.5752,-2.5898,-2.625,-2.6484,-2.6719,-2.7454,-2.7767,-2.7885,-2.8164,-2.8301,-2.8301,0.0,0.0,0.0,0.0,0.0,0.0,-3.791,-3.9746,-4.1055,-4.0898,-4.0879,-4.0723,-4.0312,-4.082,-4.0996,-4.0566,-4.0327,-3.97,-3.8633,-3.7955,-3.672,-3.4844,-3.4316,-3.3223,-3.1426,-3.0621,-2.9399,0.0,0.0,0.0,0.0,0.0,0.0,0.0,0.0,0.0,0.0,-2.7295,-2.7814,-2.8653,-2.8702,-2.868,-2.868,-2.868,-2.8773,-2.8819,-2.8727,-2.8773,-2.8866,-2.8958,-2.8912,-2.9004,-3.0034,-3.0215,-2.9988,-2.9708,-3.0094,-3.0386,-2.9164,-2.9381,-2.9329,-2.6798,-2.6976,-2.7178,-2.4757,-2.4994,-2.5526,-2.4999,-2.6049,-2.6547,-2.4914,-2.5966,-2.6483,0.0,0.0,0.0,0.0,0.0,0.0,0.0,0.0,0.0,0.0,0.0,0.0,0.0,0.0,0.0,0.0,0.0,0.0,-2.6836,0.0,-2.6501,-2.9075,-2.6281,-2.5846,-2.7731,-2.6463,-2.5771,-2.5693,-2.5693,-2.5693,-2.5693,-2.5693,-2.5957,-2.6328,-2.6367,-2.6855,-2.7611,-2.7689,-2.7891,-2.8242,-2.8281,-2.8301,-2.8301,0.0,0.0,0.0,0.0,0.0,0.0,0.0,-4.0625,-4.1172,-4.1172,-4.1172,-4.1113,-4.0937,-4.1074,-4.0898,-4.0195,-3.9746,-3.9004,-3.7891,-3.7012,-3.5976,-3.4746,-3.4297,-3.3262,-3.1562,-3.0712,-2.9406,0.0,0.0,0.0,0.0,0.0,0.0,0.0,0.0,-2.6665,-2.6761,-2.7085,-2.7105,-2.6887,-2.6887,-2.6887,-2.6887,-2.6887,-2.7247,-2.7699,-2.7105,-2.7295,-2.7793,-2.7793,-2.7793,-2.7981,-2.9004,-2.8448,-2.7678,-2.8692,-2.906,-2.9036,-2.8723,-2.8895,-2.8876,-2.7431,-2.6883,-2.6474,-2.5628,-2.4983,-2.4732,-2.5168,-2.5883,-2.6008,-2.4744,-2.5084,-2.5337,0.0,0.0,0.0,0.0,0.0,0.0,0.0,0.0,0.0,0.0,0.0,0.0,0.0,0.0,0.0,0.0,0.0,0.0,-2.6535,0.0,-2.5699,-2.721,-2.5845,-2.5661,-2.6612,-2.5995,-2.5693,-2.5693,-2.5693,-2.583,-2.6133,-2.6133,-2.6367,-2.6777,-2.7051,-2.7415,-2.7748,-2.7949,-2.8144,-2.8301,-2.8301,-2.8301,-2.8301,-3.5137,0.0,-3.6348,0.0,-3.8906,-3.9394,-4.0937,-4.1172,-4.1133,-4.0996,-4.0976,-4.0937,-4.082,-4.1016,-4.084,-3.998,-3.9473,-3.8769,-3.7734,-3.6758,-3.5762,-3.4746,-3.4414,0.0,-3.1738,-3.0879,-2.9648,-2.8027,-2.7051,0.0,0.0,0.0,0.0,0.0,-2.6657,-2.662,-2.6417,-2.6657,-2.638,-2.5693,-2.5693,-2.5693,-2.5693,-2.5693,-2.6139,-2.6696,-2.5965,-2.6139,-2.6771,-2.6771,-2.6771,-2.6914,-2.7934,-2.7295,-2.6428,-2.784,-2.821,-2.8152,-2.8269,-2.8451,-2.8433,-2.7451,-2.6543,-2.5841,-2.5883,-2.4686,-2.385,-2.4807,-2.5231,-2.5168,-2.4231,-2.4531,-2.4701,-2.4166,0.0,0.0,0.0,0.0,0.0,0.0,-2.3719,-2.3157,-2.1959,0.0,0.0,0.0,0.0,0.0,0.0,0.0,0.0,0.0,0.0,0.0,0.0,-2.5702,-2.5752,-2.5937,-2.6055,-2.6064,-2.6064,-2.6064,-2.6289,-2.6562,-2.6562,-2.6816,-2.7226,-2.7539,-2.7787,-2.7871,-2.8184,-2.8301,-2.8301,-2.8301,-2.8301,-2.8301,-3.6387,-3.7324,-3.8301,-3.9648,-4.0566,-4.1152,-4.1172,-4.1172,-4.1016,-4.0586,-4.0527,-4.0371,-3.9961,-4.0664,-4.084,-3.998,-3.9473,-3.9023,-3.8594,-3.7363,-3.6074,0.0,0.0,-3.3906,-3.2268,-3.1328,-3.0234,-2.8906,0.0,0.0,-2.6992,0.0,-2.6387,-2.6367,-2.5937,-2.5977,-2.6367,-2.5918,-2.5693,-2.5693,-2.5693,-2.5693,-2.5693,-2.5693,-2.5693,-2.5742,-2.5693,-2.5693,-2.5742,-2.5742,-2.5742,-2.5868,-2.6914,-2.7179,-2.7179,-2.7226,-2.7934,-2.8473,-2.7463,-2.7934,-2.8193,-2.6235,-2.5792,-2.5653,-2.4625,-2.375,-2.3101,-2.3144,-2.3864,-2.4231,-2.3299,-2.4573,-2.5189,-2.3387,0.0,0.0,0.0,0.0,0.0,0.0,-2.3241,-2.3225,-2.2038,0.0,0.0,0.0,0.0,0.0,0.0,0.0,0.0,-2.4976,-2.5061,0.0,-2.5809,-2.5702,-2.5908,-2.6387,-2.6797,-2.6992,-2.6992,-2.6992,-2.7012,-2.7012,-2.7012,-2.7266,-2.7708,-2.7728,-2.791,-2.8281,-2.8301,-2.8301,-2.8301,-2.8301,-2.8301,-2.8301,-3.7832,-3.8672,-3.9492,-4.0195,-4.0801,-4.1172,-4.1172,-4.0918,-4.0684,-4.0547,-4.0273,-4.0039,-3.9902,-4.0391,-4.0254,0.0,-3.8867,-3.8476,0.0,-3.6504,-3.5605,-3.5195,-3.459,-3.3613,-3.2268,-3.1601,-3.0527,-2.8926,0.0,0.0,0.0,-2.6875,-2.6973,-2.7226,-2.6504,-2.6426,-2.6777,-2.6005,-2.5693,-2.5693,-2.5693,-2.5693,-2.5693,-2.5693,-2.5693,-2.5693,-2.5693,-2.5693,-2.5693,-2.5693,-2.5693,-2.5791,-2.6091,-2.6187,-2.6187,-2.6187,-2.6867,-2.7463,-2.6476,-2.6914,-2.7389,-2.6014,-2.57,-2.5595,-2.5016,-2.4199,-2.3574,-2.3574,-2.356,-2.343,-2.3188,-2.356,-2.3757,-2.3188,-2.3907,0.0,0.0,0.0,0.0,0.0,0.0,-2.2639,0.0,-2.2122,0.0,0.0,0.0,0.0,0.0,0.0,0.0,0.0,-2.4784,0.0,-2.5722,-2.6045,-2.6387,-2.6816,-2.6953,-2.7012,-2.7012,-2.7012,-2.7168,-2.7461,-2.7461,-2.7695,-2.8086,-2.8086,-2.8164,-2.8301,-2.8301,-2.8301,-2.8301,-2.8301,-2.8301,-2.8301,-3.8516,-3.9297,-3.9922,-4.0019,-4.0527,-4.0879,-4.0723,-4.0469,-4.0293,-4.0293,-4.0059,-3.9902,-3.9902,-4.0137,0.0,-3.9141,-3.8769,-3.834,-3.7812,-3.6289,-3.5391,-3.5391,-3.4551,-3.3476,-3.2268,0.0,0.0,-2.9394,-2.8652,-2.7851,-2.7012,-2.7012,-2.7168,-2.7383,-2.6699,-2.6543,-2.6738,-2.5986,-2.5693,-2.5693,-2.5693,-2.5693,-2.5693,-2.5693,-2.5693,-2.5693,-2.5693,-2.5693,-2.5693,-2.5693,-2.5693,-2.5693,-2.5693,-2.5693,-2.5693,-2.5693,-2.6139,-2.6504,-2.5868,-2.6139,-2.6504,-2.5868,-2.5605,-2.5371,-2.4922,-2.4414,-2.3984,-2.3828,-2.3574,-2.3296,-2.312,-2.3101,-2.3101,-2.3101,-2.3604,-2.3777,-2.3188,0.0,0.0,0.0,0.0,0.0,0.0,-2.2363,0.0,0.0,0.0,0.0,0.0,0.0,0.0,-2.4577,-2.4789,0.0,-2.5674,-2.6484,-2.6992,-2.7266,-2.7422,-2.75,-2.75,-2.75,-2.7637,-2.7963,-2.7963,-2.8047,-2.8301,-2.8301,-2.8301,-2.8301,-2.8301,-2.8301,-2.8301,-2.8301,-2.8301,-2.8301,-3.8574,-3.9258,-3.9707,0.0,-3.9941,0.0,-3.9961,-3.9902,-3.9883,-3.9844,-3.9824,-3.9805,-3.9805,-3.9805,-3.9785,-3.9766,0.0,0.0,0.0,-3.6543,-3.5391,-3.5391,-3.4551,-3.3476,-3.2268,-3.2229,-3.1504,-3.0156,-2.8906,-2.7891,-2.7109,-2.7109,-2.7109,-2.709,-2.666,-2.6465,-2.6406,-2.5977,-2.5713,-2.5693,-2.5693,-2.5693,-2.5693,-2.5693,-2.5693,-2.5693,-2.5693,-2.5693,-2.5693,-2.5693,-2.5693,-2.5693,-2.5693,-2.5693,-2.5693,-2.5693,-2.5693,-2.5693,-2.5693,-2.5693,-2.5693,-2.5693,-2.541,-2.5008,-2.4551,-2.4414,-2.4277,-2.3906,-2.3809,-2.3672,-2.3218,-2.314,-2.314,-2.3101,-2.3101,-2.3101,-2.3101,0.0,0.0,0.0,0.0,0.0,0.0,-2.3101,-2.3101,0.0,0.0,0.0,0.0,0.0,-2.3496,-2.3867,-2.5078,-2.5732,-2.583,-2.707,-2.7728,-2.7728,-2.8086,-2.8281,-2.8262,-2.8281,-2.8301,-2.8301,-2.8301,-2.8301,-2.8301,-2.8301,-2.8301,-2.8301,-2.8301,-2.8301,-2.8301,-2.8301,-2.8301,-2.8301,0.0,0.0,-3.9336,-3.9219,-3.9941,-4.0371,-3.9961,-3.9902,-3.9766,-3.9414,-3.9082,-3.8887,-3.8887,-3.8887,-3.875,-3.8418,-3.8203,-3.7949,-3.7617,-3.6211,-3.5391,-3.5391,-3.4551,-3.3476,-3.2268,-3.2229,-3.1367,-2.9726,-2.8769,-2.8184,-2.7988,-2.7988,-2.7988,-2.7969,-2.7559,-2.7187,-2.6836,-2.6406,-2.6035,-2.5693,-2.5693,-2.5693,-2.5693,-2.5693,-2.5693,-2.5693,-2.5693,-2.5693,-2.5693,-2.5693,-2.5693,-2.5693,-2.5693,-2.5693,-2.5693,-2.5693,-2.5693,-2.5693,-2.5693,-2.5693,-2.5693,-2.5693,-2.541,-2.5086,-2.4941,-2.4414,-2.4004,-2.4219,-2.4004,-2.3769,-2.3652,-2.3633,-2.3535,-2.314,-2.3101,-2.3101,-2.3101,-2.3101,0.0,0.0,-2.3101,-2.3101,-2.3101,-2.3101,-2.3101,0.0,0.0,0.0,0.0,-2.459,-2.5019,-2.4812,-2.5391,-2.6211,-2.7207,-2.7571,-2.7728,-2.7728,-2.8086,-2.8125,-2.7832,-2.8144,-2.8301,-2.8301,-2.8301,-2.8301,-2.8301,-2.8301,-2.8301,-2.8301,-2.8301,-2.8301,-2.8301,-2.8301,-2.8301,-2.8301,-3.9141,-3.9512,-3.9746,-3.9551,-4.0078,-4.0312,-3.9668,-3.957,-3.9492,-3.9238,-3.9004,-3.8945,-3.916,-3.8809,-3.8398,-3.7969,-3.7754,-3.7539,-3.7305,-3.5898,-3.5176,-3.5391,-3.418,-3.3066,-3.2248,-3.1973,-3.1113,-2.9626,-2.9101,-2.8672,-2.8301,-2.8301,-2.8184,-2.7988,-2.7826,-2.7422,-2.6992,-2.6562,-2.625,-2.6016,-2.5771,-2.5693,-2.5693,-2.5693,-2.5693,-2.5693,-2.5693,-2.581,-2.5996,-2.5752,-2.581,-2.5996,-2.5752,-2.5693,-2.5693,-2.5693,-2.5693,-2.5693,-2.5693,-2.5693,-2.5693,-2.5693,-2.5547,-2.5371,-2.5371,-2.5019,-2.4629,-2.4453,-2.4394,-2.4199,-2.3594,-2.3652,-2.3652,-2.3159,-2.3101,-2.3101,-2.3101,-2.3101,0.0,-2.3418,-2.3437,-2.3437,-2.3437,-2.3437,-2.3437,-2.3437,0.0,0.0,-2.4355,-2.5234,-2.5577,-2.5371,-2.6191,-2.6953,-2.7708,-2.7851,-2.7851,-2.7728,-2.8086,-2.8066,-2.7728,-2.8105,-2.8301,-2.8301,-2.8301,-2.8301,-2.8301,-2.8301,-2.8301,-2.8301,-2.8301,-2.8301,-2.8301,-2.8301,-2.8301,-2.8301,-3.9707,-4.0019,-4.0117,-3.9766,-4.0039,-4.0039,-3.9238,-3.916,-3.918,-3.9121,-3.9101,-3.9199,-3.9473,-3.8828,-3.8184,-3.7676,-3.7305,-3.7109,-3.7109,-3.5586,-3.4844,-3.5176,-3.3652,-3.2559,-3.207,-3.1582,-3.0781,-2.9668,-2.9531,-2.9101,-2.8379,-2.832,-2.8105,-2.7806,-2.7806,-2.7519,-2.709,-2.6738,-2.6543,-2.6445,-2.6074,-2.5849,-2.5791,-2.5791,-2.5791,-2.5771,-2.5713,-2.6055,-2.6406,-2.5849,-2.6035,-2.6309,-2.583,-2.5693,-2.5693,-2.5693,-2.5693,-2.5693,-2.5693,-2.5693,-2.5713,-2.5771,-2.5732,-2.5693,-2.5693,-2.5635,-2.5382,-2.4668,-2.4766,-2.4648,-2.3613,-2.3633,-2.3672,-2.3257,-2.314,-2.3101,-2.3101,0.0,-2.3335,-2.375,-2.3906,-2.3984,-2.3984,-2.4043,-2.4082,-2.4082,-2.4141,-2.4512,0.0,-2.5742,-2.5986,-2.5986,-2.709,-2.7748,-2.7806,-2.8125,-2.8086,-2.7728,-2.8086,-2.8066,-2.7728,-2.8105,-2.8301,-2.8301,-2.8301,-2.8301,-2.8301,-2.8301,-2.8301,-2.8301,-2.8301,-2.8301,-2.8301,-2.8301,-2.8301,-2.8301,-3.9219,-3.9082,-3.8867,-3.8789,-3.9121,-3.9238,-3.875,-3.8965,-3.9082,-3.8711,-3.8672,-3.8418,-3.7773,-3.7578,-3.7168,-3.6387,-3.625,-3.6211,-3.6211,-3.5254,-3.457,-3.4297,-3.332,-3.2422,-3.1641,-3.082,-3.0293,-3.0098,-2.9375,-2.8945,-2.8809,-2.8457,-2.8262,-2.8203,-2.8203,-2.7969,-2.7611,-2.75,-2.7246,-2.6914,-2.6836,-2.6602,-2.6289,-2.6289,-2.6289,-2.625,-2.581,-2.625,-2.6797,-2.5947,-2.6035,-2.6309,-2.583,-2.5693,-2.5693,-2.5693,-2.5693,-2.5693,-2.5693,-2.5693,-2.5771,-2.6191,-2.6016,-2.5693,-2.5693,-2.5449,-2.5137,-2.5047,-2.4727,-2.457,-2.4746,-2.4238,-2.3769,-2.3691,-2.3379,-2.3101,-2.3101,0.0,-2.3711,-2.3789,-2.4434,-2.491,-2.491,-2.5215,-2.5382,-2.5382,-2.5781,-2.6035,-2.6172,-2.6934,-2.7363,-2.7363,-2.7611,-2.7832,-2.8184,-2.8262,-2.8086,-2.7728,-2.8086,-2.8066,-2.7728,-2.8105,-2.8301,-2.8301,-2.8301,-2.8301,-2.8301,-2.8301,-2.8301,-2.8301,-2.8301,-2.8301,-2.8301,-2.8301,-2.8301,-2.8301,-3.9492,-3.9414,-3.9297,-3.9297,-3.9453,-3.9434,-3.8984,-3.9297,-3.9336,-3.8672,-3.8769,-3.8594,-3.7734,-3.7441,-3.7051,-3.6426,-3.6152,-3.5918,-3.5703,-3.5059,-3.4512,-3.4082,-3.3047,-3.2051,-3.1191,-3.0781,-3.0449,-3.0195,-2.957,-2.9141,-2.8906,-2.8496,-2.8301,-2.8301,-2.8301,-2.8184,-2.7988,-2.7806,-2.7611,-2.7344,-2.7109,-2.6894,-2.6699,-2.6465,-2.6523,-2.668,-2.625,-2.6484,-2.6953,-2.6562,-2.6406,-2.6387,-2.6426,-2.6064,-2.5732,-2.6016,-2.6094,-2.6094,-2.6094,-2.625,-2.6484,-2.668,-2.6582,-2.6426,-2.6426,-2.6269,-2.6055,-2.582,-2.5801,-2.5586,-2.4844,-2.4785,-2.4687,-2.4199,-2.3965,0.0,0.0,-2.4355,-2.457,-2.4805,-2.5391,-2.5781,-2.5781,-2.5762,-2.5693,-2.5693,-2.5703,-2.5977,-2.6699,-2.7109,-2.7519,-2.7988,-2.8008,-2.8105,-2.8301,-2.8301,-2.8203,-2.8008,-2.8437,-2.8535,-2.834,-2.8535,-2.8633,-2.8613,-2.8398,-2.8301,-2.8301,-2.8301,-2.8301,-2.8301,-2.8301,-2.8301,-2.8301,-2.8301,-2.8301,-2.8301,-3.9648,-3.9648,-3.959,-3.959,-3.959,-3.9473,-3.9121,-3.9355,-3.9336,-3.8672,-3.8848,-3.873,-3.7871,-3.748,-3.709,-3.6562,-3.6211,-3.5801,-3.5273,-3.4902,-3.4473,-3.3945,-3.2695,-3.166,-3.0918,-3.0898,-3.0664,-3.0195,-2.9785,-2.9355,-2.8906,-2.8496,-2.8301,-2.8301,-2.8301,-2.8301,-2.8262,-2.7949,-2.7812,-2.7793,-2.7441,-2.7246,-2.7129,-2.6816,-2.6816,-2.6953,-2.6543,-2.6719,-2.7129,-2.6816,-2.6699,-2.6699,-2.6836,-2.6484,-2.6044,-2.6426,-2.6602,-2.666,-2.6562,-2.6777,-2.7031,-2.7148,-2.7168,-2.7168,-2.7168,-2.709,-2.6894,-2.6465,-2.6562,-2.6348,-2.5098,-2.5304,-2.544,-2.4687,0.0,0.0,0.0,-2.5047,-2.5273,-2.582,-2.6367,-2.6641,-2.6543,-2.6406,-2.6289,-2.6191,-2.5957,-2.625,-2.7266,-2.7305,-2.7617,-2.8262,-2.8301,-2.8301,-2.8301,-2.8398,-2.8437,-2.8437,-2.8867,-2.9062,-2.9062,-2.9062,-2.9004,-2.8906,-2.8574,-2.8437,-2.8437,-2.834,-2.8418,-2.8574,-2.8476,-2.8496,-2.8574,-2.8476,-2.8437,-2.8418,-3.916,-3.8945,-3.8672,-3.8672,-3.8672,-3.8652,-3.8633,-3.8652,-3.8652,-3.8574,-3.8613,-3.8301,-3.7441,-3.7324,-3.6973,-3.6133,-3.6035,-3.5664,-3.4805,-3.4726,-3.4336,-3.3496,-3.2246,-3.1348,-3.0898,-3.0898,-3.0664,-3.0195,-2.9785,-2.9355,-2.8906,-2.8496,-2.8301,-2.8301,-2.8301,-2.8301,-2.8301,-2.8262,-2.8242,-2.8242,-2.8203,-2.7969,-2.7669,-2.763,-2.7344,-2.6953,-2.6543,-2.6914,-2.7441,-2.623,-2.6602,-2.7493,-2.668,-2.666,-2.6934,-2.6953,-2.7246,-2.748,-2.707,-2.6992,-2.7109,-2.7519,-2.7669,-2.7669,-2.7669,-2.7305,-2.6894,-2.6465,-2.6094,-2.5869,-2.6191,-2.5957,-2.5586,-2.5098,0.0,0.0,-2.4453,-2.4805,-2.5439,-2.623,-2.707,-2.7422,-2.7012,-2.7656,-2.7949,-2.7559,-2.7851,-2.8105,-2.8203,-2.8203,-2.8223,-2.8301,-2.8301,-2.8301,-2.8301,-2.8672,-2.8867,-2.8887,-2.9316,-2.9531,-2.9531,-2.9531,-2.9297,-2.8926,-2.8887,-2.8867,-2.8848,-2.8457,-2.8769,-2.9434,-2.9043,-2.9121,-2.9434,-2.9023,-2.8867,-2.8809,-3.8828,-3.8691,-3.8574,-3.8574,-3.8789,-3.8965,-3.8965,-3.9434,-3.959,-3.9043,-3.9219,-3.8867,-3.7461,-3.7305,-3.6953,-3.6094,-3.6016,-3.5644,-3.4766,-3.4707,-3.4082,-3.2715,-3.2187,-3.1601,-3.0918,-3.0898,-3.0801,-3.0625,-2.9922,-2.9492,-2.9316,-2.8613,-2.8301,-2.8301,-2.8301,-2.8301,-2.8301,-2.8301,-2.8301,-2.8301,-2.8301,-2.8203,-2.8027,-2.7806,-2.7715,-2.7754,-2.7324,-2.7434,-2.7689,-2.7402,-2.7305,-2.7305,-2.75,-2.7305,-2.707,-2.7344,-2.7539,-2.7748,-2.7793,-2.7812,-2.7851,-2.8008,-2.8047,-2.8047,-2.8047,-2.793,-2.7754,-2.7598,-2.7226,-2.6894,-2.6797,-2.6641,-2.6465,-2.6309,0.0,-2.6113,-2.6387,-2.6632,-2.6847,-2.72,-2.7695,-2.7988,-2.7812,-2.7871,-2.7949,-2.8047,-2.8203,-2.8301,-2.8301,-2.8301,-2.8418,-2.8672,-2.8672,-2.8672,-2.8672,-2.8848,-2.918,-2.9707,-2.9883,-3.0098,-3.0371,-3.0098,-2.9863,-2.9687,-2.9434,-2.9316,-2.9316,-2.916,-2.9277,-2.9551,-2.9394,-2.9414,-2.9551,-2.9394,-2.9316,-2.9297,-3.8984,-3.8769,-3.8613,-3.875,-3.8906,-3.9043,-3.918,-3.9726,-3.9941,-3.9473,-3.957,-3.9121,-3.7656,-3.7383,-3.6953,-3.6094,-3.5898,-3.5508,-3.4746,-3.4453,-3.3711,-3.2422,-3.2307,-3.1836,-3.1094,-3.0957,-3.082,-3.0664,-3.0059,-2.9707,-2.9551,-2.8828,-2.8496,-2.8476,-2.8359,-2.8301,-2.8301,-2.8301,-2.8301,-2.8301,-2.8301,-2.8301,-2.8262,-2.7969,-2.7969,-2.8066,-2.7826,-2.7728,-2.7748,-2.7851,-2.7676,-2.75,-2.7949,-2.7793,-2.748,-2.7773,-2.7871,-2.793,-2.8223,-2.8301,-2.8301,-2.8301,-2.8301,-2.8301,-2.8301,-2.8184,-2.8086,-2.8086,-2.7871,-2.7578,-2.7285,-2.7324,-2.7324,-2.7051,-2.7012,-2.7129,-2.7422,-2.7461,-2.7559,-2.7885,-2.8125,-2.8242,-2.8105,-2.7949,-2.793,-2.8086,-2.834,-2.8555,-2.8691,-2.8691,-2.8828,-2.9121,-2.9121,-2.918,-2.9316,-2.9316,-2.9609,-3.0195,-3.0351,-3.0586,-3.0879,-3.0566,-3.0332,-3.0176,-2.9902,-2.9766,-2.9766,-2.9629,-2.9726,-2.998,-2.9824,-2.9863,-2.9961,-2.9824,-2.9766,-2.9746,-3.9726,-3.918,-3.8711,-3.9121,-3.8867,-3.873,-3.9141,-3.9219,-3.9375,-3.9844,-3.9492,-3.8867,-3.8008,-3.7539,-3.6953,-3.6094,-3.5644,-3.5195,-3.4726,-3.3906,-3.3242,-3.2812,-3.2402,-3.1953,-3.1523,-3.1113,-3.0664,-3.0195,-3.0195,-2.998,-2.957,-2.9121,-2.8926,-2.8906,-2.8476,-2.8301,-2.8301,-2.8301,-2.8301,-2.8301,-2.8301,-2.8301,-2.8301,-2.8301,-2.8027,-2.7728,-2.7728,-2.7728,-2.7598,-2.7168,-2.7598,-2.8223,-2.7865,-2.7949,-2.8301,-2.8301,-2.8301,-2.8301,-2.8301,-2.8301,-2.8301,-2.8301,-2.8301,-2.8301,-2.8301,-2.7969,-2.7728,-2.7728,-2.7728,-2.7728,-2.7728,-2.8008,-2.8008,-2.7168,-2.7031,-2.7031,-2.7031,-2.7031,-2.7344,-2.8203,-2.8301,-2.8125,-2.7767,-2.8047,-2.8125,-2.7767,-2.8457,-2.9121,-2.9551,-2.9626,-2.9626,-2.957,-2.957,-2.9785,-3.0195,-3.0195,-3.0195,-3.0215,-3.0664,-3.0898,-3.0898,-3.0898,-3.0644,-3.0195,-3.0195,-3.0195,-3.0176,-2.9746,-3.0098,-3.084,-3.0391,-3.0488,-3.084,-3.0371,-3.0195,-3.0137,-3.9473,-3.9199,-3.8965,-3.8789,-3.918,-3.9551,-3.9668,-4.0195,-4.041,-3.9961,-3.9766,-3.9121,-3.7656,-3.7363,-3.6953,-3.6094,-3.5898,-3.5508,-3.4746,-3.418,-3.3691,-3.3242,-3.2559,-3.1953,-3.1523,-3.1113,-3.082,-3.0684,-3.0351,-3.0137,-3.0,-2.957,-2.9375,-2.9355,-2.8926,-2.873,-2.8711,-2.8418,-2.8301,-2.8301,-2.8301,-2.8301,-2.8301,-2.8301,-2.8223,-2.8105,-2.8105,-2.8105,-2.8086,-2.7949,-2.8086,-2.8262,-2.8144,-2.8184,-2.8301,-2.8301,-2.8301,-2.8359,-2.8652,-2.8516,-2.8301,-2.8301,-2.8301,-2.8301,-2.8301,-2.8203,-2.8105,-2.8105,-2.7924,-2.7806,-2.8047,-2.7969,-2.7871,-2.791,-2.791,-2.8008,-2.8301,-2.8105,-2.8105,-2.8672,-2.8476,-2.8242,-2.8125,-2.8476,-2.8809,-2.9039,-2.9512,-2.9863,-3.0,-2.9726,-2.9707,-3.0,-3.0,-3.0234,-3.0684,-3.0351,-3.0351,-3.0684,-3.082,-3.0898,-3.0898,-3.0898,-3.082,-3.0684,-3.0684,-3.0684,-3.0664,-3.0547,-3.0644,-3.0879,-3.0742,-3.0762,-3.0879,-3.0742,-3.0684,-3.0664,-3.9551,-3.9473,-3.9394,-3.9141,-3.9531,-3.9961,-4.0117,-4.0586,-4.0723,-4.0215,-4.0,-3.9297,-3.7715,-3.7402,-3.6953,-3.6094,-3.5859,-3.5391,-3.4512,-3.4219,-3.3887,-3.3437,-3.2773,-3.2207,-3.1777,-3.1348,-3.1055,-3.0898,-3.0605,-3.0469,-3.0469,-3.0019,-2.9824,-2.9805,-2.9375,-2.9082,-2.8906,-2.8652,-2.8437,-2.8301,-2.8301,-2.8301,-2.8301,-2.8301,-2.8301,-2.8301,-2.8301,-2.8301,-2.8301,-2.8301,-2.8301,-2.8301,-2.8301,-2.8301,-2.8301,-2.8301,-2.8301,-2.8379,-2.8809,-2.873,-2.8574,-2.875,-2.8535,-2.8301,-2.8301,-2.8418,-2.8496,-2.832,-2.8223,-2.8184,-2.8281,-2.8086,-2.7988,-2.8262,-2.8301,-2.8437,-2.8867,-2.8711,-2.8633,-2.8887,-2.8691,-2.8535,-2.8535,-2.8769,-2.918,-2.9766,-3.0059,-3.0273,-3.0469,-3.0391,-3.0449,-3.0723,-3.0723,-3.0859,-3.1133,-3.0703,-3.0605,-3.0898,-3.0898,-3.0898,-3.0898,-3.0898,-3.0898,-3.0898,-3.0898,-3.0898,-3.0898,-3.0898,-3.0898,-3.0898,-3.0898,-3.0898,-3.0898,-3.0898,-3.0898,-3.0898,-3.9824,-3.9902,-3.9883,-3.9844,-3.9863,-4.0019,-4.041,-4.0527,-4.0566,-4.0527,-4.0156,-3.9414,-3.8125,-3.7578,-3.6973,-3.6152,-3.5684,-3.5078,-3.418,-3.4121,-3.3926,-3.3437,-3.3066,-3.2656,-3.2226,-3.1758,-3.1328,-3.0937,-3.0918,-3.0898,-3.0879,-3.0449,-3.0254,-3.0234,-2.9824,-2.9414,-2.9023,-2.8945,-2.8691,-2.834,-2.8301,-2.8301,-2.8301,-2.8301,-2.8301,-2.8301,-2.8301,-2.8301,-2.8301,-2.8301,-2.832,-2.834,-2.834,-2.8379,-2.8418,-2.8418,-2.8418,-2.8496,-2.8926,-2.9004,-2.9082,-2.9512,-2.9004,-2.8418,-2.8418,-2.8672,-2.8828,-2.8476,-2.8711,-2.8848,-2.8418,-2.8379,-2.8398,-2.8359,-2.8379,-2.8555,-2.8965,-2.9004,-2.8984,-2.9023,-2.9004,-2.8984,-2.8984,-2.9004,-2.9375,-3.0195,-3.0293,-3.0508,-3.0918,-3.1348,-3.1582,-3.1582,-3.1543,-3.1523,-3.1523,-3.1133,-3.0937,-3.0898,-3.0937,-3.0918,-3.0898,-3.0937,-3.0918,-3.0898,-3.0898,-3.0898,-3.0898,-3.0898,-3.0898,-3.0898,-3.0898,-3.0898,-3.0898,-3.0898,-3.0898,-3.0898,-3.9941,-3.9902,-3.9785,-3.9414,-3.9648,-3.9922,-4.0019,-4.0605,-4.0918,-4.0566,-4.0156,-3.9531,-3.8535,-3.7754,-3.709,-3.6582,-3.6133,-3.5508,-3.4629,-3.457,-3.4219,-3.3457,-3.334,-3.3086,-3.2676,-3.1914,-3.1465,-3.1387,-3.1055,-3.0898,-3.0898,-3.0781,-3.0742,-3.0723,-3.0254,-3.0,-2.9883,-2.9199,-2.8867,-2.875,-2.8418,-2.8301,-2.8301,-2.8301,-2.8301,-2.8301,-2.8301,-2.8301,-2.8301,-2.8301,-2.8516,-2.8789,-2.8789,-2.9023,-2.9297,-2.9297,-2.9297,-2.9375,-2.9805,-2.9687,-2.9531,-2.9961,-2.9668,-2.9297,-2.9297,-2.9101,-2.8984,-2.9238,-2.9375,-2.9297,-2.8867,-2.9062,-2.918,-2.8848,-2.9062,-2.9434,-2.9863,-2.9648,-2.9551,-2.9883,-2.9629,-2.9434,-2.9434,-2.9726,-3.0156,-3.0703,-3.1035,-3.1269,-3.1367,-3.1797,-3.2031,-3.2031,-3.1699,-3.1523,-3.1523,-3.1426,-3.1211,-3.0898,-3.123,-3.1211,-3.0898,-3.123,-3.1211,-3.0898,-3.0898,-3.0898,-3.0898,-3.0898,-3.0898,-3.0898,-3.0898,-3.0898,-3.0898,-3.0898,-3.0898,-3.0898,-3.9394,-3.9941,-4.0293,-3.9648,-4.0078,-4.0508,-4.0508,-4.0879,-4.1016,-4.0586,-4.0156,-3.9473,-3.8379,-3.7676,-3.7051,-3.6406,-3.6152,-3.5742,-3.5078,-3.5019,-3.4648,-3.3769,-3.373,-3.3535,-3.3105,-3.2266,-3.1719,-3.1523,-3.1094,-3.0898,-3.0898,-3.0898,-3.0898,-3.0879,-3.0644,-3.041,-3.0176,-2.9726,-2.9414,-2.9199,-2.8769,-2.8594,-2.8594,-2.8594,-2.8594,-2.8594,-2.8594,-2.8594,-2.8594,-2.8594,-2.8867,-2.9219,-2.9219,-2.9394,-2.9626,-2.9626,-2.9626,-2.9668,-3.0078,-3.0039,-2.998,-3.041,-3.0195,-2.9824,-2.9609,-2.9551,-2.9531,-2.957,-2.9726,-2.9746,-2.9316,-2.9414,-2.9492,-2.9258,-2.9414,-2.9726,-3.0137,-3.0,-2.9941,-3.0176,-3.0,-2.9863,-2.9863,-3.0449,-3.0918,-3.1172,-3.1582,-3.1816,-3.1816,-3.2226,-3.2461,-3.2461,-3.2246,-3.2129,-3.2129,-3.1934,-3.1719,-3.1504,-3.1719,-3.1719,-3.1504,-3.1504,-3.1406,-3.1191,-3.0976,-3.0898,-3.0898,-3.0898,-3.0898,-3.0898,-3.0898,-3.0898,-3.0898,-3.0898,-3.0898,-3.0898,-3.8848,-3.9961,-4.082,-4.0039,-4.0488,-4.0957,-4.0957,-4.1016,-4.0937,-4.0566,-4.0156,-3.9473,-3.8379,-3.7695,-3.6953,-3.6094,-3.6016,-3.584,-3.543,-3.5391,-3.5,-3.4121,-3.4082,-3.3867,-3.3437,-3.2676,-3.207,-3.1621,-3.1133,-3.0898,-3.0898,-3.0898,-3.0898,-3.0898,-3.0898,-3.0684,-3.0312,-3.0234,-3.0,-2.9629,-2.9199,-2.9023,-2.9023,-2.9023,-2.9023,-2.9023,-2.9023,-2.9023,-2.9023,-2.9023,-2.9316,-2.9668,-2.9668,-2.9783,-2.9785,-2.9785,-2.9785,-2.9883,-3.0312,-3.0371,-3.043,-3.0879,-3.0644,-3.0215,-2.9883,-3.0,-3.0117,-2.9844,-3.0078,-3.0176,-2.9766,-2.9746,-2.9822,-2.9744,-2.9746,-2.9922,-3.0273,-3.0312,-3.0312,-3.0312,-3.0312,-3.0351,-3.041,-3.1094,-3.1543,-3.1621,-3.2031,-3.2285,-3.2285,-3.2676,-3.291,-3.291,-3.2832,-3.2793,-3.2793,-3.2441,-3.2285,-3.2285,-3.2344,-3.2305,-3.2209,-3.1797,-3.1582,-3.1504,-3.1074,-3.0898,-3.0898,-3.0898,-3.0898,-3.0898,-3.0898,-3.0898,-3.0898,-3.0898,-3.0898,-3.0898,-3.9219,-3.9922,-4.0449,-3.998,-4.0,-4.0078,-4.0078,-4.0371,-4.0586,-4.0527,-4.0156,-3.9824,-3.9648,-3.8242,-3.6953,-3.6094,-3.6016,-3.584,-3.543,-3.5391,-3.5,-3.4121,-3.4082,-3.3867,-3.3437,-3.2949,-3.25,-3.209,-3.1289,-3.0898,-3.0898,-3.0898,-3.0898,-3.0898,-3.0898,-3.0859,-3.0762,-3.0371,-3.0156,-3.0078,-2.9648,-2.9492,-2.9492,-2.9492,-2.9492,-2.9492,-2.9492,-2.9492,-2.9492,-2.9492,-2.9766,-3.0117,-3.0117,-3.0391,-3.0703,-3.0703,-3.0703,-3.0801,-3.123,-3.1074,-3.0898,-3.1328,-3.1113,-3.0781,-3.0723,-3.0449,-3.0293,-3.0644,-3.0762,-3.0644,-3.0195,-3.0449,-3.0586,-3.0176,-3.0449,-3.0723,-3.0781,-3.0801,-3.0801,-3.0801,-3.0801,-3.0937,-3.1309,-3.1445,-3.168,-3.2051,-3.248,-3.2715,-3.2715,-3.3105,-3.334,-3.334,-3.2988,-3.2793,-3.2793,-3.2734,-3.2715,-3.2715,-3.3086,-3.2871,-3.2229,-3.2109,-3.1875,-3.1504,-3.1074,-3.0898,-3.0898,-3.0898,-3.0898,-3.0898,-3.0898,-3.0898,-3.0898,-3.0898,-3.0898,-3.0898,-3.9297,-4.0117,-4.0742,-4.0312,-4.0254,-4.0254,-4.0254,-4.041,-4.043,-4.0195,-3.9785,-3.9336,-3.8848,-3.748,-3.6426,-3.6055,-3.6016,-3.5937,-3.5762,-3.5742,-3.5351,-3.4453,-3.4414,-3.4101,-3.3437,-3.3008,-3.2695,-3.2519,-3.166,-3.125,-3.123,-3.0996,-3.0898,-3.0898,-3.0898,-3.0898,-3.0879,-3.0664,-3.0586,-3.0547,-3.0098,-2.9922,-2.9922,-2.9922,-2.9922,-2.9922,-2.9922,-2.9922,-2.9922,-2.9922,-3.0215,-3.0586,-3.0586,-3.0723,-3.0898,-3.0898,-3.0898,-3.0976,-3.1406,-3.1387,-3.1348,-3.1777,-3.1738,-3.1601,-3.1601,-3.1445,-3.123,-3.0957,-3.0898,-3.082,-3.0625,-3.0762,-3.082,-3.0625,-3.0762,-3.0898,-3.0898,-3.0898,-3.0898,-3.0898,-3.0898,-3.1055,-3.1484,-3.1738,-3.2051,-3.248,-3.291,-3.3144,-3.3144,-3.332,-3.3418,-3.3418,-3.3242,-3.3144,-3.3144,-3.3144,-3.3144,-3.3144,-3.334,-3.3223,-3.2851,-3.2617,-3.2422,-3.2187,-3.1523,-3.125,-3.123,-3.0996,-3.0898,-3.0898,-3.0898,-3.0898,-3.0898,-3.0898,-3.0898,-3.0898]},{"header":{"parameterUnit":"m.s-1","parameterCategory":1,"la1":30.6,"la2":28.766,"lo1":-90.7593,"lo2":-88.6598,"dy":0.0162,"dx":0.0183,"nx":116,"ny":114,"refTime":"2023-05-10T12:00:00:Z","depth":0,"parameterNumber":3,"parameterNumberName":"V-component_of_WINDS"},"data":[0.0,0.0,0.0,0.0,0.0,0.0,0.0,0.0,0.0,0.0,0.0,0.0,0.0,0.0,0.0,0.0,0.0,0.0,0.0,0.0,0.0,0.0,0.0,0.0,0.0,0.0,0.0,0.0,0.0,0.0,0.0,0.0,0.0,0.0,0.0,0.0,0.0,0.0,0.0,0.0,0.0,0.0,0.0,0.0,0.0,0.0,0.0,0.0,0.0,0.0,0.0,0.0,0.0,0.0,0.0,0.0,0.0,0.0,0.0,0.0,0.0,0.0,0.0,0.0,0.0,0.0,0.0,0.0,0.0,0.0,0.0,0.0,0.0,0.0,0.0,0.0,0.0,0.0,0.0,0.0,0.0,0.0,0.0,0.0,0.0,0.0,0.0,0.0,0.0,0.0,0.0,0.0,0.0,0.0,0.0,0.0,0.0,0.0,0.0,0.0,0.0,0.0,0.0,0.0,0.0,0.0,0.0,0.0,0.0,0.0,0.0,0.0,0.0,0.0,0.0,0.0,0.0,0.0,0.0,0.0,0.0,0.0,0.0,0.0,0.0,0.0,0.0,0.0,0.0,0.0,0.0,0.0,0.0,0.0,0.0,0.0,0.0,0.0,0.0,0.0,0.0,0.0,0.0,0.0,0.0,0.0,0.0,0.0,0.0,0.0,0.0,0.0,0.0,0.0,0.0,0.0,0.0,0.0,0.0,0.0,0.0,0.0,0.0,0.0,0.0,0.0,0.0,0.0,0.0,0.0,0.0,0.0,0.0,0.0,0.0,0.0,0.0,0.0,0.0,0.0,0.0,0.0,0.0,0.0,0.0,0.0,0.0,0.0,0.0,0.0,0.0,0.0,0.0,0.0,0.0,0.0,0.0,0.0,0.0,0.0,0.0,0.0,0.0,0.0,0.0,0.0,0.0,0.0,0.0,0.0,0.0,0.0,0.0,0.0,0.0,0.0,0.0,0.0,0.0,0.0,0.0,0.0,0.0,0.0,0.0,0.0,0.0,0.0,0.0,0.0,0.0,0.0,0.0,0.0,0.0,0.0,0.0,0.0,0.0,0.0,0.0,0.0,0.0,0.0,0.0,0.0,0.0,0.0,0.0,0.0,0.0,0.0,0.0,0.0,0.0,0.0,0.0,0.0,0.0,0.0,0.0,0.0,0.0,0.0,0.0,0.0,0.0,0.0,0.0,0.0,0.0,0.0,0.0,0.0,0.0,0.0,0.0,0.0,0.0,0.0,0.0,0.0,0.0,0.0,0.0,0.0,0.0,0.0,0.0,0.0,0.0,0.0,0.0,0.0,0.0,0.0,0.0,0.0,0.0,0.0,0.0,0.0,0.0,0.0,0.0,0.0,0.0,0.0,0.0,0.0,0.0,0.0,0.0,0.0,0.0,0.0,0.0,0.0,0.0,0.0,0.0,0.0,0.0,0.0,0.0,0.0,0.0,0.0,0.0,0.0,0.0,0.0,0.0,0.0,0.0,0.0,0.0,0.0,0.0,0.0,0.0,0.0,0.0,0.0,0.0,0.0,0.0,0.0,0.0,0.0,0.0,0.0,0.0,0.0,0.0,0.0,0.0,0.0,0.0,0.0,0.0,0.0,0.0,0.0,0.0,0.0,0.0,0.0,0.0,0.0,0.0,0.0,0.0,0.0,0.0,0.0,0.0,0.0,0.0,0.0,0.0,0.0,0.0,0.0,0.0,0.0,0.0,0.0,0.0,0.0,0.0,0.0,0.0,0.0,0.0,0.0,0.0,0.0,0.0,0.0,0.0,0.0,0.0,0.0,0.0,0.0,0.0,0.0,0.0,0.0,0.0,0.0,0.0,0.0,0.0,0.0,0.0,0.0,0.0,0.0,0.0,0.0,0.0,0.0,0.0,0.0,0.0,0.0,0.0,0.0,0.0,0.0,0.0,0.0,0.0,0.0,0.0,0.0,0.0,0.0,0.0,0.0,0.0,0.0,0.0,0.0,0.0,0.0,0.0,0.0,0.0,0.0,0.0,0.0,0.0,0.0,0.0,0.0,0.0,0.0,0.0,0.0,0.0,0.0,0.0,0.0,0.0,0.0,0.0,0.0,0.0,0.0,0.0,0.0,0.0,0.0,0.0,0.0,0.0,0.0,0.0,0.0,0.0,0.0,0.0,0.0,0.0,0.0,0.0,0.0,0.0,0.0,0.0,0.0,0.0,0.0,0.0,0.0,0.0,0.0,0.0,0.0,0.0,0.0,0.0,0.0,0.0,0.0,0.0,0.0,0.0,0.0,0.0,0.0,0.0,0.0,0.0,0.0,0.0,0.0,0.0,0.0,0.0,0.0,0.0,0.0,0.0,0.0,0.0,0.0,0.0,0.0,0.0,0.0,0.0,0.0,0.0,0.0,0.0,0.0,0.0,0.0,0.0,0.0,0.0,0.0,0.0,0.0,0.0,0.0,0.0,0.0,0.0,0.0,0.0,0.0,0.0,0.0,0.0,0.0,0.0,0.0,0.0,0.0,0.0,0.0,0.0,0.0,0.0,0.0,0.0,0.0,0.0,0.0,0.0,0.0,0.0,0.0,0.0,0.0,0.0,0.0,0.0,0.0,0.0,0.0,0.0,0.0,0.0,0.0,0.0,0.0,0.0,0.0,0.0,0.0,0.0,0.0,0.0,0.0,0.0,0.0,0.0,0.0,0.0,0.0,0.0,0.0,0.0,0.0,0.0,0.0,0.0,0.0,0.0,0.0,0.0,0.0,0.0,0.0,0.0,0.0,0.0,0.0,0.0,0.0,0.0,0.0,0.0,0.0,0.0,0.0,0.0,0.0,0.0,0.0,0.0,0.0,0.0,0.0,0.0,0.0,0.0,0.0,0.0,0.0,0.0,0.0,0.0,0.0,0.0,0.0,0.0,0.0,0.0,0.0,0.0,0.0,0.0,0.0,0.0,0.0,0.0,0.0,0.0,0.0,0.0,0.0,0.0,0.0,0.0,0.0,0.0,0.0,0.0,0.0,0.0,0.0,0.0,0.0,0.0,0.0,0.0,0.0,0.0,0.0,0.0,0.0,0.0,0.0,0.0,0.0,0.0,0.0,0.0,0.0,0.0,0.0,0.0,0.0,0.0,0.0,0.0,0.0,0.0,0.0,0.0,0.0,0.0,0.0,0.0,0.0,0.0,0.0,0.0,0.0,0.0,0.0,0.0,0.0,0.0,0.0,0.0,0.0,0.0,0.0,0.0,0.0,0.0,0.0,0.0,0.0,0.0,0.0,0.0,0.0,0.0,0.0,0.0,0.0,0.0,0.0,0.0,0.0,0.0,0.0,0.0,0.0,0.0,0.0,0.0,0.0,0.0,0.0,0.0,0.0,0.0,0.0,0.0,0.0,0.0,0.0,0.0,0.0,0.0,0.0,0.0,0.0,0.0,0.0,0.0,0.0,0.0,0.0,0.0,0.0,0.0,0.0,0.0,0.0,0.0,0.0,0.0,0.0,0.0,0.0,0.0,0.0,0.0,0.0,0.0,0.0,0.0,0.0,0.0,0.0,0.0,0.0,0.0,0.0,0.0,0.0,0.0,0.0,0.0,0.0,0.0,0.0,0.0,0.0,0.0,0.0,0.0,0.0,0.0,0.0,0.0,0.0,0.0,0.0,0.0,0.0,0.0,0.0,0.0,0.0,0.0,0.0,0.0,0.0,0.0,0.0,0.0,0.0,0.0,0.0,0.0,0.0,0.0,0.0,0.0,0.0,0.0,0.0,0.0,0.0,0.0,0.0,0.0,0.0,0.0,0.0,0.0,0.0,0.0,0.0,0.0,0.0,0.0,0.0,0.0,0.0,0.0,0.0,0.0,0.0,0.0,0.0,0.0,0.0,0.0,0.0,0.0,0.0,0.0,0.0,0.0,0.0,0.0,0.0,0.0,0.0,0.0,0.0,0.0,0.0,0.0,0.0,0.0,0.0,0.0,0.0,0.0,0.0,0.0,0.0,0.0,0.0,0.0,0.0,0.0,0.0,0.0,0.0,0.0,0.0,0.0,0.0,0.0,0.0,0.0,0.0,0.0,0.0,0.0,0.0,0.0,0.0,0.0,0.0,0.0,0.0,0.0,0.0,0.0,0.0,0.0,0.0,0.0,0.0,0.0,0.0,0.0,0.0,0.0,0.0,0.0,0.0,0.0,0.0,0.0,0.0,0.0,0.0,0.0,0.0,0.0,0.0,0.0,0.0,0.0,0.0,0.0,0.0,0.0,0.0,0.0,0.0,0.0,0.0,0.0,0.0,0.0,0.0,0.0,0.0,0.0,0.0,0.0,0.0,0.0,0.0,0.0,0.0,0.0,0.0,0.0,0.0,0.0,0.0,0.0,0.0,0.0,0.0,0.0,0.0,0.0,0.0,0.0,0.0,0.0,0.0,0.0,0.0,0.0,0.0,0.0,0.0,0.0,0.0,0.0,0.0,0.0,0.0,0.0,0.0,0.0,0.0,0.0,0.0,0.0,0.0,0.0,0.0,0.0,0.0,0.0,0.0,0.0,0.0,0.0,0.0,0.0,0.0,0.0,0.0,0.0,0.0,0.0,0.0,0.0,0.0,0.0,0.0,0.0,0.0,0.0,0.0,0.0,0.0,0.0,0.0,0.0,0.0,0.0,0.0,0.0,0.0,0.0,0.0,0.0,0.0,0.0,0.0,0.0,0.0,0.0,0.0,0.0,0.0,0.0,0.0,0.0,0.0,0.0,0.0,0.0,0.0,0.0,0.0,0.0,0.0,0.0,0.0,0.0,0.0,0.0,0.0,0.0,0.0,0.0,0.0,0.0,0.0,0.0,0.0,0.0,0.0,0.0,0.0,0.0,0.0,0.0,0.0,0.0,0.0,0.0,0.0,0.0,0.0,0.0,0.0,0.0,0.0,0.0,0.0,0.0,0.0,0.0,0.0,0.0,0.0,0.0,0.0,0.0,0.0,0.0,0.0,0.0,0.0,0.0,0.0,0.0,0.0,0.0,0.0,0.0,0.0,0.0,0.0,0.0,0.0,0.0,0.0,0.0,0.0,0.0,0.0,0.0,0.0,0.0,0.0,0.0,0.0,0.0,0.0,0.0,0.0,0.0,0.0,0.0,0.0,0.0,0.0,0.0,0.0,0.0,0.0,0.0,0.0,0.0,0.0,0.0,0.0,0.0,0.0,0.0,0.0,0.0,0.0,0.0,0.0,0.0,0.0,0.0,0.0,0.0,0.0,0.0,0.0,0.0,0.0,0.0,0.0,0.0,0.0,0.0,0.0,0.0,0.0,0.0,0.0,0.0,0.0,0.0,0.0,0.0,0.0,0.0,0.0,0.0,0.0,0.0,0.0,0.0,0.0,0.0,0.0,0.0,0.0,0.0,0.0,0.0,0.0,0.0,0.0,0.0,0.0,0.0,0.0,0.0,0.0,0.0,0.0,0.0,0.0,0.0,0.0,0.0,0.0,0.0,0.0,0.0,0.0,0.0,0.0,0.0,0.0,0.0,0.0,0.0,0.0,0.0,0.0,0.0,0.0,0.0,0.0,0.0,0.0,0.0,0.0,0.0,0.0,0.0,0.0,0.0,0.0,0.0,0.0,0.0,0.0,0.0,0.0,0.0,0.0,0.0,0.0,0.0,0.0,0.0,0.0,0.0,0.0,0.0,0.0,0.0,0.0,0.0,0.0,0.0,0.0,0.0,0.0,0.0,0.0,0.0,0.0,0.0,0.0,0.0,0.0,0.0,0.0,0.0,0.0,0.0,0.0,0.0,0.0,0.0,0.0,0.0,0.0,0.0,0.0,0.0,0.0,0.0,0.0,0.0,0.0,0.0,0.0,0.0,0.0,0.0,0.0,0.0,0.0,0.0,0.0,0.0,0.0,0.0,0.0,0.0,0.0,0.0,0.0,0.0,0.0,0.0,0.0,0.0,0.0,0.0,0.0,0.0,0.0,0.0,0.0,0.0,0.0,0.0,0.0,0.0,0.0,0.0,0.0,0.0,0.0,0.0,0.0,0.0,0.0,0.0,0.0,0.0,0.0,0.0,0.0,0.0,0.0,0.0,0.0,0.0,0.0,0.0,0.0,0.0,0.0,0.0,0.0,0.0,0.0,0.0,0.0,0.0,0.0,2.1945,0.0,0.0,0.0,0.0,0.0,0.0,0.0,0.0,0.0,0.0,0.0,0.0,0.0,0.0,0.0,0.0,0.0,0.0,0.0,0.0,0.0,0.0,0.0,0.0,0.0,0.0,0.0,0.0,0.0,0.0,0.0,0.0,0.0,0.0,0.0,0.0,0.0,0.0,2.2337,2.2643,2.3453,2.4645,2.4694,2.4807,2.5033,0.0,0.0,0.0,0.0,0.0,0.0,0.0,0.0,0.0,0.0,0.0,0.0,0.0,0.0,0.0,0.0,0.0,0.0,0.0,0.0,0.0,0.0,0.0,0.0,0.0,0.0,0.0,0.0,0.0,0.0,0.0,0.0,0.0,0.0,0.0,0.0,0.0,0.0,0.0,0.0,0.0,0.0,0.0,0.0,0.0,0.0,0.0,0.0,0.0,0.0,0.0,0.0,0.0,0.0,0.0,0.0,0.0,0.0,0.0,0.0,0.0,0.0,0.0,0.0,0.0,0.0,0.0,0.0,0.0,0.0,0.0,2.2978,0.0,0.0,0.0,0.0,0.0,0.0,0.0,0.0,0.0,0.0,0.0,0.0,0.0,0.0,0.0,0.0,0.0,0.0,0.0,0.0,0.0,0.0,0.0,2.6239,2.6101,2.6145,2.6192,2.5626,0.0,0.0,0.0,0.0,0.0,0.0,2.1309,2.1408,2.1892,2.2704,2.2976,2.4291,2.6611,2.6855,2.6914,2.6757,2.6219,0.0,0.0,0.0,0.0,0.0,0.0,0.0,0.0,0.0,0.0,0.0,0.0,0.0,0.0,0.0,0.0,0.0,0.0,0.0,0.0,0.0,0.0,0.0,0.0,0.0,0.0,0.0,0.0,0.0,0.0,0.0,0.0,0.0,0.0,0.0,0.0,0.0,0.0,0.0,0.0,0.0,0.0,0.0,0.0,0.0,0.0,0.0,0.0,0.0,0.0,0.0,0.0,0.0,0.0,0.0,0.0,0.0,0.0,0.0,0.0,0.0,0.0,0.0,2.9465,3.0155,3.0571,3.0681,3.083,3.0694,2.6657,2.4492,2.3815,2.3217,0.0,0.0,0.0,0.0,0.0,0.0,0.0,0.0,0.0,0.0,0.0,0.0,0.0,0.0,0.0,0.0,0.0,0.0,0.0,0.0,0.0,2.5848,2.5403,2.4889,2.5415,2.5306,2.4172,0.0,0.0,0.0,0.0,0.0,2.2479,2.2881,2.298,2.2695,2.5112,2.7105,2.8742,2.9893,3.0808,3.1276,2.868,2.8297,2.9533,0.0,0.0,0.0,0.0,0.0,0.0,0.0,0.0,0.0,0.0,0.0,0.0,0.0,0.0,0.0,0.0,0.0,0.0,0.0,0.0,0.0,0.0,0.0,0.0,0.0,0.0,0.0,0.0,0.0,0.0,0.0,0.0,0.0,0.0,0.0,0.0,0.0,0.0,0.0,0.0,0.0,2.5047,2.4362,0.0,0.0,0.0,0.0,0.0,0.0,0.0,0.0,0.0,0.0,0.0,0.0,0.0,2.8647,2.9433,3.0177,3.0326,2.9985,3.19,3.2293,3.1305,3.2447,3.297,3.2936,3.1736,0.0,2.7951,2.4929,0.0,0.0,0.0,0.0,0.0,0.0,0.0,0.0,0.0,0.0,0.0,0.0,0.0,0.0,0.0,0.0,0.0,0.0,0.0,0.0,0.0,2.6283,2.6182,2.5929,2.7287,2.7136,2.4773,2.539,0.0,0.0,0.0,2.2466,2.2141,2.2368,2.315,2.4481,2.7091,2.9171,3.069,3.1162,3.2159,3.3483,3.1255,3.0207,3.0021,2.9025,0.0,0.0,0.0,0.0,0.0,0.0,0.0,0.0,0.0,0.0,0.0,0.0,0.0,0.0,0.0,0.0,0.0,0.0,0.0,0.0,0.0,0.0,0.0,0.0,0.0,0.0,0.0,0.0,0.0,0.0,0.0,0.0,0.0,0.0,0.0,0.0,0.0,0.0,0.0,2.4557,2.5436,2.4452,2.4918,2.4893,0.0,0.0,0.0,0.0,0.0,0.0,0.0,0.0,0.0,2.9759,3.0407,3.1104,3.1968,3.2698,3.3282,3.3742,3.5061,3.5584,3.5399,3.6014,3.6292,3.623,3.5553,3.4284,3.2373,2.8528,2.6416,2.5556,0.0,0.0,0.0,0.0,2.5439,2.6319,0.0,0.0,0.0,0.0,0.0,0.0,0.0,0.0,0.0,0.0,0.0,0.0,2.6751,2.7093,2.7353,2.771,2.8876,2.8411,2.5571,2.5648,2.4787,2.2655,2.2315,2.2173,2.2173,2.2915,2.4428,2.6738,2.9256,3.1217,3.2578,3.278,3.3833,3.5549,3.4364,3.2987,3.1474,3.0483,2.9221,2.7781,0.0,0.0,0.0,0.0,0.0,0.0,0.0,0.0,0.0,0.0,0.0,0.0,0.0,0.0,0.0,0.0,0.0,0.0,0.0,0.0,0.0,0.0,0.0,0.0,0.0,0.0,0.0,0.0,0.0,0.0,0.0,0.0,0.0,0.0,0.0,0.0,0.0,2.5431,2.6719,2.5703,2.6672,2.6808,0.0,0.0,0.0,0.0,0.0,0.0,2.8631,3.0266,3.1627,3.2522,3.3293,3.3994,3.4691,3.5584,3.6445,3.7277,3.7769,3.8292,3.8754,3.86,3.8508,3.8477,3.78,3.6938,3.5707,3.1797,2.8927,2.6958,2.6882,2.6941,2.7042,2.7116,2.7829,2.8782,0.0,0.0,0.0,0.0,0.0,0.0,0.0,0.0,0.0,0.0,0.0,2.5823,2.8126,2.8263,2.8646,2.993,2.8953,2.7801,2.6603,2.4785,2.3683,2.3541,2.349,2.349,2.349,2.5997,2.7871,2.9031,3.1888,3.3666,3.4386,3.5644,3.7036,3.8396,3.8334,3.7212,3.5177,3.156,3.0445,3.0955,2.8636,0.0,0.0,0.0,0.0,0.0,0.0,0.0,0.0,0.0,0.0,0.0,0.0,0.0,0.0,0.0,0.0,0.0,0.0,0.0,0.0,0.0,0.0,0.0,0.0,0.0,0.0,0.0,0.0,0.0,0.0,0.0,0.0,0.0,0.0,0.0,0.0,0.0,0.0,2.9181,2.9081,0.0,0.0,0.0,0.0,2.8636,2.9364,3.0634,3.2859,3.4269,3.5401,3.623,3.7491,3.8198,3.8262,3.9521,3.989,3.9336,3.9367,3.9431,3.9431,3.8816,3.8508,3.8477,3.78,3.7461,3.7123,3.3675,3.1428,3.0032,2.8428,2.8635,2.9659,2.8668,2.9647,3.1379,0.0,0.0,0.0,0.0,0.0,0.0,0.0,0.0,2.6114,2.5793,2.5995,2.6851,2.8582,3.0084,3.1304,3.2121,3.269,3.1945,2.9399,2.7775,2.6519,2.5555,2.4694,2.4866,2.6147,2.7974,2.9702,3.1317,3.4086,3.5614,3.5952,3.7173,3.8271,3.9286,3.9182,3.9021,3.8631,3.5557,3.3397,3.1891,3.0026,2.8856,0.0,0.0,0.0,0.0,0.0,0.0,0.0,0.0,0.0,0.0,0.0,0.0,0.0,0.0,0.0,0.0,0.0,0.0,0.0,0.0,0.0,0.0,0.0,0.0,0.0,0.0,0.0,0.0,0.0,0.0,0.0,0.0,0.0,0.0,0.0,0.0,0.0,3.1735,3.2724,0.0,3.2036,3.1215,3.1094,3.2006,3.2787,3.3938,3.5551,3.6462,3.7499,3.8662,3.9181,3.9524,3.9661,4.0121,4.0278,4.0136,4.0136,4.0136,4.0105,3.9428,3.9154,3.9123,3.8446,3.8138,3.8015,3.6353,3.4629,3.2962,3.218,3.1923,3.2,3.1885,3.2658,3.3781,0.0,0.0,0.0,0.0,0.0,0.0,0.0,0.0,2.5848,2.5556,2.6387,2.7773,2.9788,3.1905,3.3667,3.4911,3.4967,3.3727,3.0814,2.8798,2.706,2.5644,2.5405,2.6123,2.7914,3.0131,3.1988,3.3514,3.6178,3.7499,3.7631,3.8642,3.9511,4.028,4.0134,4.0411,4.0855,3.9062,3.6662,3.399,3.2205,3.1381,3.0842,0.0,0.0,0.0,0.0,0.0,0.0,0.0,0.0,0.0,0.0,0.0,0.0,0.0,0.0,0.0,0.0,0.0,0.0,0.0,0.0,0.0,0.0,0.0,0.0,0.0,0.0,0.0,0.0,0.0,0.0,0.0,0.0,0.0,0.0,0.0,3.3667,3.406,3.5759,3.6544,3.5636,3.5001,3.4879,3.5419,3.6031,3.6947,3.8318,3.8948,3.9707,4.069,4.0927,4.0872,4.0558,4.0842,4.0791,4.0436,4.0505,4.0505,4.0474,3.9797,3.949,3.9428,3.8569,3.8292,3.8446,3.7769,3.6692,3.5459,3.4823,3.4438,3.4244,3.4356,3.4841,3.5522,0.0,0.0,0.0,0.0,0.0,0.0,0.0,2.5811,2.5486,2.5468,2.6543,2.856,3.1855,3.3638,3.5672,3.8212,3.5429,3.2677,3.0702,2.747,2.5046,2.3789,2.5615,2.732,2.8786,3.2587,3.4891,3.5639,3.8212,3.9433,3.9433,4.0157,4.0816,4.1414,4.1482,4.1588,4.1784,4.172,4.0183,3.7555,3.534,3.4835,3.5037,0.0,0.0,0.0,0.0,0.0,0.0,0.0,0.0,0.0,0.0,0.0,0.0,0.0,0.0,0.0,0.0,0.0,0.0,0.0,0.0,0.0,0.0,0.0,0.0,0.0,0.0,0.0,0.0,0.0,0.0,0.0,0.0,0.0,3.1323,3.4424,3.6693,3.6403,3.8114,3.875,3.7342,3.6613,3.6975,3.8819,3.8862,3.9541,4.1234,4.1693,4.2028,4.231,4.2704,4.2318,4.1043,4.1833,4.1607,4.0358,4.0497,4.0566,4.0536,3.9828,3.9521,3.9462,3.8108,3.7892,3.8446,3.7738,3.7492,3.74,3.6076,3.5922,3.6415,3.5768,3.5953,3.66,0.0,0.0,0.0,0.0,0.0,0.0,2.6185,2.6096,2.5775,2.5157,2.783,3.0464,3.225,3.5377,3.7793,3.902,3.6118,3.3574,3.2048,2.7953,2.5884,2.6477,2.75,2.9804,3.3514,3.513,3.6716,3.8332,4.0008,4.0606,4.0157,4.1294,4.1961,4.2141,4.2581,4.306,4.3578,4.3727,4.3626,4.3015,3.8951,3.6828,3.577,0.0,0.0,0.0,0.0,0.0,0.0,0.0,0.0,0.0,0.0,0.0,0.0,0.0,0.0,0.0,0.0,0.0,0.0,0.0,0.0,0.0,0.0,0.0,0.0,0.0,0.0,0.0,0.0,0.0,0.0,0.0,0.0,3.4934,3.6102,3.7892,3.9803,4.1996,4.2369,4.2357,4.2105,4.1291,4.0781,4.0694,4.0798,4.1234,4.204,4.1874,4.1934,4.2341,4.17,4.1479,4.1711,4.1334,4.1353,4.1765,4.1801,4.1801,4.174,4.0716,4.0228,4.0105,3.8292,3.7892,3.8415,3.7246,3.7338,3.8138,3.7277,3.6753,3.6476,3.6292,3.663,3.7178,0.0,0.0,0.0,0.0,0.0,0.0,2.6185,2.6026,2.5663,2.4981,2.8194,3.0948,3.1957,3.516,3.7345,3.7734,3.4981,3.2437,3.0552,2.7679,2.6602,2.7974,2.9953,3.2587,3.5848,3.7375,3.8811,4.0247,4.1294,4.1782,4.1683,4.2701,4.3369,4.3638,4.3988,4.4377,4.4717,4.4825,4.5122,4.5309,4.2902,4.1108,3.9561,3.6473,3.5466,3.5471,3.3817,3.3626,3.3994,3.2938,0.0,0.0,0.0,0.0,0.0,0.0,0.0,0.0,0.0,0.0,0.0,0.0,0.0,0.0,0.0,0.0,0.0,0.0,0.0,0.0,0.0,0.0,0.0,0.0,3.6572,3.8685,4.1301,4.1462,4.2206,4.4634,4.4664,4.4529,4.4648,4.3895,4.3076,4.2252,4.2269,4.2406,4.2526,4.2436,4.2556,4.2917,4.2166,4.1829,4.1903,4.1714,4.1589,4.149,4.2389,4.2702,4.2425,4.1699,4.1366,0.0,3.8939,3.8138,3.8415,3.7369,3.7215,0.0,0.0,0.0,0.0,0.0,3.6723,3.6997,0.0,0.0,0.0,0.0,0.0,0.0,2.6203,2.5848,2.5424,2.4981,2.7969,3.0399,3.1117,3.3574,3.519,3.528,3.2736,3.0163,2.7764,2.7046,2.747,2.9175,3.2766,3.5462,3.7015,3.9379,4.0935,4.1594,4.2231,4.283,4.3389,4.4018,4.4616,4.5185,4.5274,4.5334,4.5394,4.5458,4.5506,4.5702,4.6378,4.5998,4.4556,4.0685,3.9934,4.0534,3.7803,3.6421,3.5708,3.4147,0.0,0.0,0.0,0.0,0.0,0.0,0.0,0.0,0.0,0.0,0.0,0.0,0.0,0.0,0.0,0.0,0.0,0.0,0.0,0.0,0.0,0.0,0.0,0.0,4.0532,4.2584,4.599,4.5052,4.4369,4.5501,4.5728,4.5815,4.5725,4.5081,4.4369,4.3599,4.3439,4.3279,4.3003,0.0,0.0,0.0,0.0,4.2869,4.1957,4.2501,4.2051,4.0593,4.2487,4.3144,4.2707,4.2529,4.2498,4.2535,3.9767,3.8598,3.8569,3.78,3.7092,3.6507,3.6507,3.6846,3.7307,3.6722,3.6507,3.6507,0.0,0.0,0.0,0.0,0.0,0.0,2.6277,2.6152,2.5826,2.515,2.7884,2.9713,2.9271,3.1538,3.3305,3.3844,3.1001,2.8727,2.7675,2.7465,2.9202,3.3186,3.5132,3.7464,4.0404,4.1482,4.2312,4.2901,4.305,4.317,4.3319,4.4018,4.4377,4.4526,4.5065,4.5603,4.6124,4.6224,4.6588,4.7046,4.6691,4.6129,4.5342,4.4111,4.3092,4.2111,4.0435,4.0086,4.0123,3.8136,3.7223,3.6501,3.3953,3.2265,0.0,0.0,0.0,0.0,0.0,0.0,0.0,0.0,0.0,0.0,0.0,0.0,0.0,0.0,0.0,0.0,0.0,0.0,0.0,4.0259,4.2809,4.5191,4.7285,4.7912,4.7976,4.7551,4.7341,4.7021,4.6448,4.565,4.5076,4.4915,4.4436,4.4317,4.4788,4.4855,4.4915,4.4997,4.3898,4.3289,4.3313,4.2234,4.1881,4.2221,0.0,0.0,4.3447,4.1991,4.1992,4.3026,4.0235,3.9174,3.9182,3.8015,3.7092,3.6507,3.6507,3.6569,3.6661,3.6538,3.6507,3.6507,0.0,0.0,0.0,0.0,0.0,0.0,2.6312,2.6224,2.5972,2.5368,2.7572,2.8834,2.8027,2.9697,3.0621,3.0101,2.8248,2.723,2.7585,2.9142,3.1659,3.5342,3.7375,3.9529,4.1871,4.2521,4.3,4.329,4.329,4.3618,4.4317,4.4317,4.4855,4.5813,4.5813,4.6172,4.68,4.6875,4.7103,4.7418,4.7507,4.7348,4.6949,4.5642,4.4969,4.4495,4.2687,4.2526,4.275,4.0198,3.9218,3.8679,3.6524,3.4608,3.2965,0.0,0.0,0.0,0.0,0.0,0.0,0.0,0.0,0.0,0.0,0.0,0.0,0.0,0.0,3.5334,0.0,0.0,4.1549,4.407,4.5856,4.7387,4.8598,4.9058,4.9194,4.884,4.8273,4.7812,4.7482,4.6466,4.5663,4.5334,4.4975,4.4796,4.4796,4.5125,4.5155,4.4825,4.4167,4.3588,4.3124,4.2415,4.1979,4.1866,4.1835,4.2017,4.2319,4.1431,4.1419,4.201,3.9999,3.915,3.9191,3.8119,3.7573,3.7364,3.7364,3.6998,3.6507,3.6507,3.6507,3.6507,0.0,0.0,0.0,0.0,0.0,0.0,0.0,2.6274,2.6026,2.5594,2.6977,2.7644,2.6733,2.7629,2.7746,2.6327,2.5944,2.6512,2.8274,3.121,3.4203,3.7105,3.9529,4.1324,4.256,4.318,4.3469,4.3469,4.3618,4.4257,4.5274,4.4885,4.5574,4.71,4.6681,4.68,4.7309,4.7309,4.7309,4.7352,4.8061,4.8324,4.814,4.6274,4.6033,4.6426,4.4319,4.3703,4.3411,4.1064,4.0148,3.984,3.8649,3.6938,3.5146,3.3838,3.2707,0.0,0.0,0.0,0.0,0.0,0.0,0.0,0.0,0.0,3.3787,3.5828,3.7388,3.9022,4.1231,4.3166,4.5263,4.7698,4.8555,4.9102,4.9644,4.9599,4.9494,4.9554,4.8819,4.8177,4.7938,4.695,4.6022,4.5334,4.5304,4.5125,4.4736,4.5214,4.5304,4.4915,4.4766,4.4178,4.3106,4.2934,4.2349,4.1479,4.1751,4.1661,4.1267,4.1146,4.1122,4.1067,3.9803,3.9165,3.8948,3.825,3.7986,3.7964,3.8119,3.7453,3.6476,3.663,3.6599,3.6507,0.0,0.0,0.0,0.0,0.0,0.0,0.0,0.0,2.6078,2.5719,2.6002,2.5821,2.4802,2.4954,2.5062,2.4844,2.5854,2.7799,3.0853,3.3066,3.5968,3.9798,4.1392,4.2491,4.317,4.3868,4.4197,4.4197,4.4796,4.5155,4.5304,4.5843,4.619,4.6399,4.698,4.7249,4.7309,4.7309,4.7309,4.7309,4.7439,4.7482,4.7319,4.6539,4.6376,4.6385,4.4909,4.2897,4.0825,4.0504,3.999,3.9456,3.9289,3.8192,3.6711,3.5366,3.3529,3.1883,3.131,3.106,3.1276,3.2853,3.2607,3.3236,0.0,0.0,3.8804,4.0929,4.2795,4.3949,4.3876,4.5667,4.7516,4.8607,4.9463,5.0032,5.0122,5.0122,4.9912,4.9389,4.873,4.7818,4.6651,4.6369,4.6022,4.5334,4.5304,4.5544,4.6082,4.613,4.6441,4.695,4.6411,4.5723,4.5016,4.3808,4.315,4.3039,4.197,4.173,4.2248,4.161,4.1453,4.1549,4.0609,3.973,3.8948,3.8418,3.7745,3.722,3.7933,3.7388,3.635,3.709,3.6999,3.6507,0.0,0.0,0.0,0.0,0.0,0.0,0.0,0.0,0.0,2.6008,2.5691,2.5185,2.4525,2.3897,2.3641,2.3991,2.5409,2.7634,3.0731,3.3544,3.6656,4.0247,4.1692,4.2671,4.329,4.3559,4.3888,4.4317,4.4586,4.5125,4.5903,4.5783,4.6142,4.689,4.677,4.695,4.7309,4.7309,4.7309,4.7309,4.7309,4.7309,4.7189,4.6112,4.5071,4.3979,4.2607,4.1444,0.0,3.8657,3.8181,3.8292,3.8707,3.7594,3.6011,3.5091,3.3879,3.2837,3.2724,3.3183,3.3759,3.4211,3.5689,3.7661,3.997,4.1721,4.3144,4.4148,4.6081,4.7558,4.7371,4.8303,4.9359,0.0,5.0543,5.0644,5.0255,4.9912,4.9134,4.7728,4.7309,4.707,4.692,4.6202,4.5454,4.4766,4.5065,4.5424,4.5693,4.6471,4.686,4.6741,4.6429,4.5813,4.4736,4.3768,4.315,4.2761,4.1444,4.0935,4.1205,4.0546,4.0284,4.0364,3.9938,3.9581,3.9204,3.8973,3.8841,3.8796,3.9108,3.8723,3.794,3.7612,3.7061,3.6507,0.0,0.0,0.0,0.0,0.0,0.0,0.0,0.0,0.0,0.0,2.5222,2.4782,2.4356,2.3106,2.2604,2.3474,2.4537,2.6438,2.9502,3.2826,3.6148,3.9439,4.1242,4.244,4.306,4.3379,4.3798,4.4317,4.4496,4.5185,4.6279,4.5813,4.6202,4.7279,4.68,4.686,4.7309,4.7309,4.7189,4.704,4.704,4.68,4.6322,4.4796,4.288,4.0913,3.9918,3.9083,3.8098,3.5866,3.5429,3.5938,3.6776,3.6088,3.4891,3.4593,3.4054,3.3575,3.3848,3.5053,3.6321,3.6493,3.9209,4.1957,4.2642,4.481,4.684,4.7371,4.8829,4.999,4.99,5.0049,5.0391,5.0963,5.1006,5.0674,5.0062,4.9254,4.8057,4.6262,4.5681,4.5651,4.6172,4.5813,4.5214,4.4377,4.5095,4.5514,4.5304,4.6411,4.689,4.6621,4.6591,4.6112,4.5155,4.4456,4.3838,4.3189,4.2013,4.1294,4.0905,4.0068,3.9679,3.9679,3.9535,3.9445,3.9409,3.9445,3.9505,3.9597,3.9814,3.9464,3.872,3.8159,3.7396,3.6658,0.0,0.0,0.0,0.0,0.0,0.0,0.0,0.0,0.0,0.0,0.0,0.0,0.0,2.2282,2.1793,2.3167,2.3,2.4192,2.7465,3.0761,3.4083,3.7375,4.0008,4.1752,4.241,4.3629,4.4287,4.4317,4.4945,4.5633,4.6279,4.6249,4.6651,4.7309,4.7279,4.7279,4.7309,4.7309,4.692,4.6309,4.6309,4.5574,4.4197,4.2252,3.9858,3.7554,3.7524,3.5429,3.2646,3.1899,3.166,3.1899,3.3245,3.3604,3.3664,3.4324,3.4054,3.3634,3.4294,3.6009,3.8211,4.0621,4.3012,4.5415,4.7804,4.8936,4.9839,5.1134,5.1249,5.1006,5.0622,5.0349,5.0288,5.0562,5.0409,5.0032,4.9419,4.8177,4.686,4.5484,4.4197,4.3379,0.0,4.5143,4.5711,4.4407,4.5502,4.5992,4.5334,4.5963,4.6651,4.7249,4.7279,4.7249,4.7219,4.6561,4.5873,4.5185,4.4526,4.3539,4.2291,4.0965,4.0367,4.0337,3.9896,3.9589,3.9409,3.9625,3.9198,3.8517,3.939,3.8883,3.7831,3.8781,3.8235,3.6975,0.0,0.0,0.0,0.0,0.0,0.0,0.0,0.0,0.0,0.0,0.0,0.0,0.0,0.0,0.0,0.0,2.2773,2.3805,2.6411,2.9459,3.2258,3.4711,3.7764,3.9499,3.9709,4.1025,4.1923,4.2372,4.3069,4.3688,4.4306,4.4306,4.4665,4.5334,4.5334,4.5574,4.5963,4.5963,4.5603,4.4945,4.4556,4.3838,4.2761,4.0344,3.7764,3.519,0.0,3.124,2.9744,2.8637,2.8547,2.9056,2.9953,3.0253,3.0552,3.2078,3.3305,3.4593,3.657,3.9206,4.1931,4.4107,4.6886,4.9434,5.0709,5.1503,5.1712,5.0843,4.9928,4.885,4.7379,4.6993,4.7292,4.8235,4.906,4.9523,4.9329,4.894,4.7459,4.4407,4.4377,0.0,0.0,0.0,0.0,4.4317,4.5532,4.619,4.5992,4.701,4.7519,4.7309,4.7309,4.71,4.6651,4.6399,4.5753,4.4616,4.3539,4.2342,4.1055,4.0606,4.0157,3.9738,3.9571,3.9445,3.9409,3.9481,3.9505,3.9501,3.9783,3.9602,3.9273,3.959,3.8966,3.7854,0.0,0.0,0.0,0.0,0.0,0.0,0.0,0.0,0.0,0.0,0.0,0.0,0.0,0.0,0.0,0.0,0.0,2.2792,2.4591,2.694,2.9215,3.1299,3.4083,3.5789,3.6267,3.7375,3.8153,3.8571,3.9505,4.0247,4.0905,4.1354,4.2043,4.291,4.291,4.3269,4.3868,4.3658,4.288,4.1803,4.1175,4.0098,3.8637,3.6417,3.4083,0.0,2.9112,2.7739,2.7051,2.6183,2.6333,2.7046,2.7949,2.9056,3.0283,3.178,3.3963,3.6507,3.9379,4.2402,4.5233,4.7475,5.0002,5.2037,5.2456,5.2516,5.1917,4.9942,4.8506,4.689,4.4646,4.4047,4.4347,4.5663,4.6591,4.7399,4.8117,4.7997,4.692,4.4377,4.4377,4.4197,0.0,0.0,0.0,4.4616,4.5903,4.6681,4.6681,4.7489,4.7848,4.7668,4.7429,4.71,4.6681,4.6681,4.5992,4.4646,4.3569,4.2252,4.0756,4.0756,4.0397,3.9768,3.9768,3.9768,3.9768,3.9768,3.9793,3.9798,3.9798,3.9803,3.9874,3.9975,3.945,3.859,0.0,0.0,0.0,0.0,0.0,0.0,0.0,0.0,0.0,0.0,0.0,0.0,0.0,0.0,0.0,0.0,0.0,0.0,2.212,2.3426,2.5111,2.7275,2.9292,3.0941,3.2228,3.2976,3.3335,3.3335,3.4651,3.5609,3.6267,3.7464,3.8751,4.0008,4.0008,4.0367,4.0935,4.0307,3.8931,3.7105,3.6477,3.4711,3.2258,3.0911,2.9235,2.7435,2.6093,2.5173,2.4664,2.4664,2.5143,2.6004,2.7345,2.9953,3.2706,3.3484,3.6058,3.9349,4.2602,4.5484,4.8177,5.072,5.2306,5.3204,5.3144,5.2067,5.0511,4.8506,4.692,4.5125,0.0,0.0,4.1594,4.2931,4.329,4.4097,4.61,4.5933,4.5514,0.0,0.0,0.0,0.0,0.0,0.0,4.5394,0.0,4.7339,4.7309,4.7369,4.7668,4.8207,4.7638,4.7309,4.7309,4.7279,4.6591,4.5274,4.4616,4.3299,4.1482,4.1482,4.1085,4.0457,4.0457,4.0457,4.0457,4.0457,4.0068,3.9469,3.9469,3.9547,3.9732,3.991,3.9656,3.9059,0.0,0.0,0.0,0.0,0.0,0.0,0.0,0.0,0.0,0.0,0.0,0.0,0.0,0.0,0.0,0.0,0.0,0.0,2.1517,2.2748,2.3713,2.428,2.6892,2.8513,2.8843,3.0432,3.127,3.127,3.2108,3.2617,3.2766,3.3095,3.3693,3.4532,3.4532,3.4891,3.5489,3.534,3.4681,3.3694,3.3035,3.2049,3.0881,2.9594,2.8483,2.7435,2.6093,2.5495,2.5352,2.5352,2.6428,2.8068,2.9355,3.136,3.3664,3.5789,3.911,4.2731,4.5544,4.8566,5.1349,5.3025,5.3713,5.3683,5.2665,5.069,4.8327,4.5843,4.2701,3.9918,3.8307,0.0,0.0,4.0786,4.321,0.0,4.7519,4.8476,0.0,4.695,0.0,4.6711,4.5903,4.6711,0.0,0.0,4.7848,4.7818,4.7339,4.8237,4.8386,4.7578,4.7399,4.7309,4.7309,4.68,4.6142,4.5274,4.4616,4.3539,4.2141,4.2141,4.1782,4.1145,4.1145,4.1145,4.1145,4.1145,4.0838,4.0347,4.0347,4.0082,3.9732,3.9768,3.9576,3.9264,0.0,0.0,0.0,0.0,0.0,0.0,0.0,0.0,0.0,0.0,0.0,0.0,0.0,0.0,0.0,0.0,0.0,0.0,0.0,2.1869,2.2493,2.2809,2.4359,2.5531,2.6129,2.6999,2.735,2.7081,2.8308,2.876,2.8491,2.9385,3.0163,3.0791,3.0791,3.115,3.1749,3.148,3.0791,0.0,0.0,2.8312,2.744,2.7021,2.6602,2.6213,2.5764,2.6363,2.753,2.8697,3.0013,3.142,3.2706,3.4891,3.7404,3.9768,4.306,4.6531,4.9164,5.1648,5.3683,5.4461,5.3982,5.2755,5.0541,4.8237,4.5544,4.2013,3.929,3.7075,3.5459,3.516,3.6028,0.0,0.0,0.0,4.6531,4.7878,4.8416,0.0,4.8506,0.0,4.7698,4.8297,4.876,0.0,4.876,4.8566,4.8177,4.8596,4.8506,4.7758,4.7459,4.7309,4.7309,4.695,4.6411,4.5753,4.5065,4.4047,4.2791,4.253,4.2051,4.1422,0.0,4.1692,4.1414,4.1722,4.149,4.1002,4.1002,4.0648,4.0154,4.0154,3.9938,3.9666,0.0,0.0,0.0,0.0,0.0,0.0,0.0,0.0,0.0,0.0,2.2224,0.0,0.0,0.0,0.0,0.0,0.0,0.0,0.0,0.0,2.1581,2.2189,2.2224,2.2793,2.4081,2.3773,2.334,2.2823,2.4507,2.5023,2.4515,2.6243,2.7375,2.7949,2.7949,2.8248,2.8783,2.8188,2.726,2.6153,2.5585,2.4687,2.3819,0.0,2.4724,2.4963,2.5644,2.735,2.9771,3.2647,3.4233,3.5282,3.6776,3.9505,4.2432,4.4377,4.7249,5.0377,5.2785,5.4371,5.5299,5.5209,5.3533,5.1109,4.7908,4.5364,4.2432,3.8063,3.6507,3.54,3.3574,3.3365,3.4352,3.6985,0.0,4.0337,4.4796,4.6172,4.7399,4.9164,4.9509,4.9569,4.9569,4.9569,4.9569,4.9569,4.9569,4.9509,4.9329,4.8805,4.8476,4.8297,4.7728,4.7399,4.7309,4.7309,4.698,4.6279,4.5633,4.4646,4.3409,4.2791,4.2171,4.1572,4.2141,0.0,4.1602,4.2171,4.2081,4.1504,4.1504,4.1228,4.0812,4.0812,4.0523,4.0182,0.0,0.0,0.0,0.0,0.0,0.0,0.0,0.0,0.0,0.0,2.295,2.2109,0.0,0.0,0.0,0.0,0.0,0.0,0.0,0.0,0.0,2.1778,2.2059,2.2441,2.2977,2.3383,2.355,2.343,2.3789,2.3879,2.3789,2.4118,2.4358,2.4477,2.4477,2.4537,2.4627,2.4507,2.4328,2.4118,2.3999,2.4126,2.4455,2.4575,0.0,0.0,2.7016,2.7555,2.8603,3.2886,3.5851,3.8123,4.0613,4.324,4.5843,4.7818,5.0407,5.2845,5.4401,5.5418,5.5867,5.5329,5.2875,4.9807,4.713,4.3269,3.9439,3.6447,3.4442,3.2946,3.2019,3.2766,3.4352,3.6985,3.9349,4.2102,4.5633,4.7668,4.9075,0.0,5.0541,5.087,5.087,5.087,0.0,0.0,0.0,5.0391,4.9359,4.9673,4.9404,4.8327,4.8177,4.7848,4.7309,4.7309,4.698,4.6279,4.5633,4.4885,4.4107,4.3449,4.2821,4.2231,4.2351,0.0,4.2231,4.2351,4.2321,4.2231,4.2231,4.1841,4.128,4.128,4.122,4.1205,0.0,0.0,0.0,0.0,0.0,0.0,0.0,2.3444,2.3849,2.4932,2.4765,2.4197,2.3316,2.2515,2.1988,0.0,0.0,0.0,0.0,0.0,0.0,2.2593,2.2532,2.289,2.3804,2.3685,2.343,2.3152,0.0,2.343,2.3152,2.346,2.361,2.361,2.361,2.361,2.361,2.361,2.3819,2.4126,2.4126,2.4515,2.5143,2.5501,0.0,0.0,2.7495,2.8034,2.9142,3.2347,3.5429,3.8512,4.2222,4.5454,4.8177,4.9793,5.2157,5.4521,5.5807,5.6406,5.6406,5.5448,5.1917,4.7848,4.4496,4.0457,3.6537,3.3514,3.2407,3.178,3.1092,3.2078,3.3724,3.6058,3.7494,3.9948,4.4616,4.6082,4.7578,4.9897,5.0764,5.1229,0.0,5.1229,5.1229,0.0,0.0,5.078,4.9823,4.9763,4.9434,4.885,4.8805,4.87,4.8327,4.7997,4.7668,4.7339,4.5963,4.5125,4.4796,4.3738,4.297,4.241,4.2731,0.0,4.241,4.2731,4.288,4.288,4.288,4.2462,4.1901,4.1542,4.1175,4.0913,0.0,0.0,0.0,0.0,0.0,0.0,0.0,2.4508,2.4948,2.6184,2.642,2.6066,2.5004,2.3542,2.2459,0.0,0.0,0.0,0.0,0.0,0.0,0.0,0.0,0.0,2.4871,0.0,0.0,2.3058,2.3434,0.0,0.0,0.0,0.0,0.0,2.361,2.3734,2.3971,2.3863,2.4274,0.0,0.0,2.5202,0.0,0.0,0.0,0.0,0.0,2.8274,2.9502,3.1599,3.4113,3.7135,4.1474,4.5603,4.9075,5.0242,5.2785,5.5478,5.6735,5.7094,5.6765,5.5329,5.099,4.6082,4.2252,3.8212,3.4382,3.115,3.1032,3.1241,3.0462,3.1509,3.3185,3.519,3.5639,3.7644,4.312,4.4257,4.5843,0.0,5.0661,0.0,5.1229,5.1229,0.0,0.0,0.0,0.0,5.0435,4.9972,4.9613,4.9494,4.9464,4.9344,4.912,4.8536,4.8207,4.8057,4.6352,4.5454,4.5244,4.4077,4.312,4.244,4.291,0.0,0.0,4.291,4.312,4.312,4.312,4.2731,4.2141,4.1564,4.1093,4.068,0.0,0.0,0.0,0.0,0.0,0.0,0.0,2.4508,2.5489,2.8333,2.6928,2.5913,2.642,2.5105,2.3582,0.0,0.0,0.0,0.0,0.0,0.0,0.0,0.0,0.0,0.0,0.0,0.0,2.4163,2.3773,0.0,0.0,0.0,0.0,0.0,0.0,2.42,2.5219,2.4716,0.0,0.0,0.0,0.0,0.0,0.0,0.0,0.0,0.0,2.7675,2.8184,3.0733,3.2198,3.3574,3.6956,4.2372,4.7638,4.8356,5.1708,5.5478,5.6735,5.7094,5.6645,5.476,5.0331,4.5544,4.2132,3.7888,3.3784,3.1061,3.1032,3.1122,2.9894,3.124,3.3185,3.519,3.5998,3.7823,4.1991,4.4077,4.6022,4.8207,0.0,0.0,5.1229,5.1229,0.0,0.0,0.0,0.0,5.1139,5.1079,5.078,5.0136,5.0106,4.9583,4.8386,4.8327,4.7997,4.7399,4.6591,4.5903,4.5274,4.4556,4.3539,4.241,4.247,0.0,0.0,4.247,4.25,4.25,4.25,4.2081,4.1474,4.1414,4.1468,4.1588,0.0,0.0,0.0,0.0,0.0,0.0,2.5455,2.5439,2.5913,2.801,2.8315,2.7909,2.6826,2.6167,2.4786,2.2295,0.0,0.0,0.0,0.0,0.0,0.0,0.0,0.0,0.0,0.0,2.4533,2.4317,2.4099,0.0,0.0,0.0,0.0,0.0,0.0,0.0,2.5376,2.4829,0.0,0.0,0.0,0.0,0.0,0.0,0.0,0.0,0.0,0.0,2.7764,2.8786,2.9864,3.0911,3.1809,3.5818,4.1025,4.5244,4.9494,5.3264,5.5388,5.6526,5.6615,5.47,4.9912,4.4855,4.1534,3.7195,3.3245,3.0971,3.1032,3.1212,3.0313,3.112,3.2407,3.4023,3.4173,3.5459,3.9445,4.0995,4.309,4.6681,4.8506,0.0,0.0,0.0,0.0,0.0,0.0,0.0,5.1229,5.1229,5.1109,5.0794,5.0405,4.9956,4.9464,4.8686,4.8147,4.7878,4.683,4.5963,4.5274,4.4616,4.3808,4.294,4.294,0.0,0.0,4.256,4.241,4.241,4.241,4.1991,4.1422,4.1422,4.122,4.0898,0.0,0.0,0.0,0.0,0.0,2.3545,2.6285,2.6082,2.6201,2.7925,2.8872,2.8804,2.7199,2.642,2.5288,2.3354,2.2689,0.0,0.0,0.0,0.0,0.0,0.0,0.0,0.0,0.0,2.4981,2.4655,2.4648,2.4325,0.0,0.0,0.0,0.0,0.0,0.0,0.0,0.0,0.0,0.0,0.0,0.0,0.0,0.0,0.0,0.0,0.0,0.0,0.0,0.0,0.0,2.9292,2.9175,3.1539,3.5429,4.1055,4.6052,5.0301,5.2785,5.467,5.5478,5.3533,4.8985,4.4077,4.0606,3.6537,3.2916,3.0911,3.1032,3.1301,3.0642,3.1032,3.1869,3.3036,3.2976,3.4053,3.7614,3.902,4.1145,0.0,0.0,4.8177,0.0,0.0,0.0,0.0,0.0,0.0,5.1229,5.0973,5.0883,5.0883,5.0435,5.0016,4.9628,4.8745,4.8177,4.7967,4.707,4.6262,4.5574,4.4915,4.4257,4.3559,4.3379,0.0,0.0,4.2851,4.256,4.2381,4.2239,4.176,4.1093,4.095,4.0628,4.0207,0.0,0.0,0.0,0.0,0.0,0.0,2.6353,2.6082,2.642,2.8705,2.8315,2.7824,2.779,2.5845,2.4812,2.5507,2.4179,0.0,0.0,0.0,0.0,0.0,0.0,0.0,0.0,0.0,2.5612,2.5468,2.5434,2.4997,2.4297,2.4497,2.4246,2.361,0.0,0.0,0.0,0.0,0.0,0.0,0.0,0.0,0.0,0.0,0.0,0.0,0.0,0.0,0.0,0.0,0.0,0.0,0.0,3.0972,3.2198,3.5579,4.1235,4.68,4.882,5.1276,5.2755,5.0734,4.7236,4.3299,3.932,3.5848,3.2916,3.0911,3.1032,3.1301,3.0642,3.1032,3.172,3.2378,3.3066,3.4412,3.7045,3.914,4.1115,0.0,0.0,4.6112,0.0,0.0,0.0,0.0,0.0,0.0,5.1229,5.0554,5.0196,5.0196,5.0196,4.9568,4.8327,4.8297,4.7967,4.7309,4.7309,4.695,4.6249,4.5603,4.4915,0.0,0.0,0.0,0.0,4.329,4.294,4.2351,4.1912,4.1212,4.0374,3.9866,3.9696,3.9732,0.0,0.0,0.0,0.0,0.0,0.0,0.0,2.6082,2.6048,2.7283,2.7672,2.779,2.779,2.6725,2.6285,2.7046,2.4752,0.0,0.0,0.0,0.0,0.0,0.0,0.0,0.0,2.6224,2.6188,2.6379,2.6002,2.5779,2.5746,2.5273,2.4972,2.475,2.4292,0.0,0.0,0.0,0.0,0.0,0.0,0.0,0.0,0.0,0.0,0.0,0.0,0.0,0.0,0.0,0.0,0.0,0.0,0.0,0.0,3.2617,3.7464,4.2611,4.4178,4.6184,4.7309,4.5334,4.2551,3.9589,3.7015,3.4562,3.2527,3.1391,3.1361,3.1451,3.1212,3.1361,3.2019,3.3604,3.4023,3.4921,0.0,0.0,0.0,4.3718,4.716,4.9583,0.0,0.0,0.0,0.0,0.0,0.0,5.1229,5.0554,5.0196,5.0196,4.9374,4.8716,4.8297,4.7848,4.7519,4.7309,4.7309,4.695,4.6279,4.6082,4.5394,0.0,0.0,0.0,0.0,4.2851,4.259,4.2351,4.1881,4.1257,4.0588,4.0595,4.0304,3.991,0.0,0.0,0.0,0.0,0.0,0.0,0.0,2.6082,2.5879,2.659,2.7097,2.7486,2.7756,2.6877,2.6691,2.7722,2.556,0.0,0.0,0.0,0.0,0.0,0.0,0.0,2.6502,2.6399,2.674,2.7451,2.7247,2.7105,2.7025,2.6714,2.6231,2.5672,2.5111,2.5675,0.0,0.0,0.0,0.0,0.0,0.0,2.7585,0.0,0.0,0.0,0.0,0.0,0.0,0.0,0.0,0.0,0.0,0.0,0.0,0.0,3.4291,3.7883,3.9948,4.1773,4.2791,4.1564,3.9619,3.7494,3.5549,3.3574,3.1989,3.16,3.1301,3.1182,3.1451,3.1511,3.1899,3.3155,3.3784,3.4622,0.0,0.0,0.0,4.4347,0.0,0.0,0.0,0.0,0.0,0.0,0.0,0.0,5.0823,5.0242,4.9763,4.9494,4.8716,4.8177,4.7908,4.7519,4.7309,4.7309,4.7309,4.71,4.6681,4.6172,4.5484,0.0,0.0,0.0,0.0,4.288,4.2731,4.271,4.2204,4.1656,4.109,4.1031,4.0739,4.038,0.0,0.0,0.0,0.0,0.0,0.0,0.0,2.6116,2.5913,2.659,2.6691,2.6962,2.7655,2.6505,2.6235,2.7587,0.0,0.0,0.0,0.0,0.0,0.0,0.0,0.0,2.652,2.6569,2.7253,2.8577,2.8918,2.8854,2.8418,2.8669,2.8023,2.6629,2.623,2.666,2.7777,2.8586,2.8432,2.7695,2.8304,2.8184,0.0,0.0,0.0,0.0,0.0,0.0,0.0,0.0,0.0,0.0,0.0,0.0,0.0,0.0,0.0,0.0,0.0,3.7943,3.8865,3.8775,3.7853,3.6417,3.4593,3.2706,0.0,3.1421,3.0913,3.0731,3.1451,3.154,3.157,3.175,3.2826,0.0,0.0,3.8212,0.0,0.0,4.7249,0.0,0.0,0.0,0.0,0.0,0.0,0.0,5.0226,4.9613,4.9,4.8297,4.8237,4.7908,4.7309,4.7309,4.7309,4.7309,4.7309,4.7309,4.7249,4.5963,4.5334,0.0,0.0,0.0,0.0,4.329,4.329,4.3269,4.2775,4.222,4.1625,4.1182,4.1018,4.0866,0.0,0.0,0.0,0.0,0.0,0.0,0.0,0.0,0.0,0.0,2.6691,2.6759,2.6928,2.6657,2.659,0.0,0.0,0.0,0.0,0.0,0.0,0.0,0.0,0.0,2.6641,2.7179,2.8135,2.9576,2.986,3.0456,3.1381,3.0878,3.0117,2.9145,2.8533,2.8148,2.8007,2.818,2.8179,2.8125,2.7916,2.7735,0.0,0.0,0.0,0.0,2.9116,2.9355,0.0,0.0,0.0,0.0,0.0,0.0,0.0,0.0,3.1241,3.127,3.2527,0.0,3.3903,3.2856,3.2347,3.1869,0.0,3.04,3.0193,3.0642,3.0612,3.0881,3.2049,3.1839,3.2168,3.4233,0.0,0.0,3.7225,0.0,0.0,4.6621,4.9015,0.0,0.0,0.0,0.0,0.0,0.0,5.0883,5.0226,4.9613,4.9,4.8297,4.7788,4.7459,4.7309,4.7309,4.7309,4.7309,4.7309,4.7309,4.7279,4.6441,4.5813,0.0,0.0,0.0,4.329,4.329,4.329,4.3269,4.2775,4.222,4.1663,4.1267,4.0863,4.044,0.0,0.0,0.0,0.0,0.0,0.0,0.0,0.0,0.0,0.0,0.0,2.6691,2.6691,2.6691,0.0,0.0,0.0,0.0,0.0,0.0,0.0,0.0,0.0,2.6623,2.6691,2.7349,2.8575,3.0393,3.089,3.1735,3.2853,3.2469,3.1843,3.099,3.0445,2.9469,2.8209,2.8707,2.8537,2.7984,2.8046,0.0,0.0,0.0,0.0,0.0,2.9883,3.0013,0.0,3.0761,3.0761,3.0642,0.0,0.0,0.0,0.0,3.1241,3.1032,3.1391,3.175,3.1929,3.1539,3.121,3.0853,3.0552,2.9774,2.9325,2.9953,3.0073,3.0492,3.178,3.175,3.2258,3.4651,3.504,0.0,0.0,0.0,4.5334,4.7908,0.0,0.0,0.0,0.0,0.0,0.0,0.0,5.081,4.9853,4.9464,4.888,4.7878,4.7489,4.7309,4.7309,4.7309,4.716,4.686,4.686,4.6681,4.6352,4.5693,4.5185,0.0,0.0,0.0,4.329,4.329,4.311,4.2851,4.2608,4.2002,4.124,4.1067,4.0883,4.0725,0.0,0.0,0.0,0.0,0.0,0.0,0.0,0.0,0.0,0.0,0.0,0.0,0.0,0.0,0.0,0.0,0.0,0.0,0.0,0.0,0.0,0.0,2.6876,2.691,2.7199,2.7771,2.9099,3.122,3.2042,3.2882,3.3693,3.3891,3.3458,3.2443,3.1924,3.0623,2.8893,2.9847,2.9366,2.8071,2.8643,0.0,0.0,0.0,0.0,0.0,0.0,0.0,0.0,3.1301,3.1122,3.0761,3.1331,0.0,0.0,0.0,0.0,0.0,3.163,3.172,3.1869,3.2138,3.1839,3.1451,3.1241,2.9953,2.8936,2.9594,2.9804,3.0253,3.1421,3.1809,3.2557,0.0,0.0,0.0,4.2171,4.3449,4.5214,0.0,0.0,0.0,0.0,0.0,0.0,0.0,0.0,5.0511,4.9239,4.9179,4.8566,4.7339,4.7309,4.7309,4.7309,4.7309,4.698,4.6279,4.6279,4.5963,4.5274,4.4616,4.4317,4.4257,0.0,0.0,4.329,4.32,4.2851,4.241,4.2449,4.1686,4.0661,4.0734,4.0891,4.1056,0.0,0.0,0.0,0.0,0.0,0.0,0.0,0.0,0.0,0.0,0.0,0.0,0.0,0.0,0.0,0.0,0.0,0.0,0.0,0.0,0.0,2.8637,2.7993,2.8212,2.9567,2.9683,3.0528,3.2104,3.347,3.4442,3.5103,3.5796,3.5278,3.3682,3.2626,3.1867,3.1349,3.123,3.0691,2.9919,3.0058,0.0,0.0,0.0,0.0,0.0,0.0,0.0,0.0,3.1481,3.1421,3.1361,3.1481,0.0,0.0,0.0,0.0,0.0,3.2168,3.2766,3.2796,3.121,3.1152,3.1212,3.0133,2.9681,2.9594,3.0253,3.0821,3.1421,3.2198,3.3275,3.4502,0.0,0.0,4.1422,0.0,0.0,0.0,0.0,0.0,0.0,0.0,0.0,0.0,0.0,0.0,4.9823,4.8506,4.8446,4.8087,4.7339,4.7309,4.7309,4.7309,4.7309,4.698,4.6279,4.6279,4.5963,4.5274,4.4616,4.4317,4.4257,0.0,4.2821,4.326,4.2731,4.25,4.241,4.2535,4.1686,4.0507,4.0952,4.0731,4.0238,0.0,0.0,0.0,0.0,0.0,0.0,0.0,0.0,0.0,0.0,0.0,0.0,0.0,0.0,0.0,0.0,0.0,0.0,0.0,0.0,2.9348,3.0161,2.9837,2.9803,3.0089,3.0886,3.2002,3.3512,3.5001,3.6107,3.6747,3.6666,3.5569,3.3641,3.3356,3.2452,3.1153,3.155,3.1209,3.0377,0.0,0.0,0.0,0.0,0.0,0.0,0.0,0.0,0.0,0.0,3.1032,3.0612,3.1271,0.0,0.0,0.0,0.0,0.0,3.1869,3.2437,3.2736,3.1809,3.2079,3.2347,3.139,3.0881,3.0731,3.0972,3.157,3.2228,3.2916,3.4143,3.5818,3.8212,0.0,4.3928,4.5125,0.0,0.0,0.0,0.0,0.0,0.0,0.0,0.0,0.0,0.0,0.0,4.8327,4.8297,4.7967,4.7339,4.695,4.677,4.677,4.6411,4.6052,4.5753,4.5394,4.4885,4.4227,4.3888,4.3738,4.3708,0.0,4.306,4.326,4.3148,4.2896,4.2565,4.2757,4.1979,4.0734,4.07,4.0501,4.0191,0.0,0.0,0.0,0.0,0.0,0.0,0.0,0.0,0.0,0.0,0.0,0.0,0.0,0.0,0.0,0.0,0.0,0.0,0.0,2.9416,3.0025,3.1157,3.136,3.136,3.1157,3.2259,3.3457,3.4742,3.6299,3.7347,3.7841,3.7172,3.5756,3.382,3.4054,3.3103,3.1407,3.2208,3.1981,3.1094,0.0,0.0,0.0,0.0,0.0,0.0,0.0,0.0,0.0,0.0,0.0,0.0,0.0,0.0,0.0,3.1152,3.1391,3.1331,3.166,3.2108,3.2527,3.2527,3.2886,3.3245,3.3215,3.2676,3.2318,3.2796,3.3274,3.3784,3.4113,3.5549,0.0,4.0397,4.3629,4.5813,4.5963,0.0,0.0,0.0,0.0,0.0,0.0,0.0,0.0,0.0,0.0,0.0,4.8087,4.7908,4.7608,4.71,4.6441,4.6082,4.6082,4.5394,4.5065,4.5065,4.4556,4.3917,4.329,4.329,4.329,4.329,4.314,4.314,4.3299,4.3265,4.2922,4.2477,4.2553,4.1882,4.0852,4.044,4.0296,4.0366,0.0,0.0,0.0,0.0,0.0,0.0,0.0,0.0,0.0,0.0,0.0,0.0,0.0,0.0,0.0,0.0,0.0,0.0,0.0,3.0649,3.1089,3.119,3.1853,3.2835,3.4134,3.4269,3.4742,3.5532,3.7077,3.7783,3.772,3.7629,3.6678,3.4958,3.4745,3.435,3.3864,3.4038,3.3781,3.3206,3.3655,0.0,0.0,0.0,0.0,0.0,0.0,0.0,0.0,0.0,0.0,0.0,0.0,0.0,3.0582,3.1301,3.1062,3.0851,3.2079,3.2437,3.2527,3.2527,3.2557,3.3066,3.4861,3.4771,3.4771,3.6596,3.7015,3.6896,3.6357,3.8332,4.0516,4.2021,4.5005,4.7369,0.0,0.0,0.0,0.0,0.0,0.0,0.0,0.0,0.0,0.0,0.0,0.0,4.7429,4.68,4.6399,4.6339,4.5723,4.5364,4.5364,4.4706,4.4377,4.4377,4.4347,4.3917,4.329,4.329,4.329,4.326,4.2701,4.2761,4.324,4.2234,4.1836,4.1753,4.1456,4.1005,4.0532,4.0362,4.0366,4.0505,0.0,0.0,0.0,0.0,0.0,0.0,0.0,0.0,0.0,0.0,0.0,0.0,0.0,0.0,0.0,0.0,0.0,0.0,0.0,3.1055,3.1393,3.1853,3.2577,3.3457,3.4472,3.5441,3.6502,3.7719,3.8294,3.8304,3.7817,3.7344,3.6323,3.492,3.5095,3.4706,3.396,3.457,3.444,3.3853,3.363,3.3732,0.0,0.0,0.0,0.0,0.0,0.0,0.0,0.0,3.1552,3.0943,3.1361,3.1032,3.0642,3.1301,3.1331,3.1212,3.175,3.2168,3.2617,3.3036,3.3425,3.4143,3.5759,3.6866,3.7764,3.8512,3.932,3.9679,3.905,0.0,4.1564,4.3299,4.5663,4.7549,0.0,0.0,0.0,0.0,0.0,0.0,0.0,0.0,0.0,0.0,0.0,0.0,4.6711,4.6052,4.5693,4.5693,4.5035,4.4496,4.4107,4.3449,4.291,4.2491,4.291,4.297,4.2731,4.2731,4.3049,4.3557,4.3286,4.3154,4.3089,4.2804,4.2453,4.2034,4.1617,4.1331,4.112,4.0589,4.047,4.0505,0.0,0.0,0.0,0.0,0.0,0.0,0.0,0.0,0.0,0.0,0.0,0.0,0.0,0.0,0.0,0.0,0.0,0.0,3.119,3.119,3.1447,3.1921,3.2882,3.3761,3.4472,3.6231,3.7618,3.8633,3.887,3.8497,3.755,3.7032,3.6283,3.5371,3.5461,3.5157,3.4578,3.5006,3.4906,3.4431,3.3986,3.4161,0.0,0.0,0.0,0.0,0.0,0.0,0.0,0.0,3.155,3.0883,3.1361,3.1032,3.0642,3.1301,3.1361,3.1241,3.1451,3.1839,3.2348,3.3036,3.3993,3.531,3.7285,3.8931,4.0277,4.1115,4.1654,4.1863,4.1414,4.1683,0.0,0.0,4.6172,0.0,0.0,0.0,0.0,0.0,0.0,0.0,0.0,0.0,0.0,0.0,0.0,0.0,0.0,4.5364,4.4885,4.4676,4.4047,4.3389,4.2761,4.2321,4.179,4.1198,4.1858,4.2158,4.2081,4.2119,4.2505,4.3072,4.3119,4.2924,4.2622,4.2633,4.2285,4.1715,4.1361,4.1247,4.1186,4.0689,4.0505,4.0505,0.0,0.0,0.0,0.0,0.0,0.0,0.0,0.0,0.0,0.0,0.0,0.0,0.0,0.0,0.0,0.0,0.0,0.0,3.119,3.1224,3.1224,3.1224,3.2645,3.3761,3.4472,3.6738,3.7922,3.7922,3.8633,3.8251,3.6795,3.6795,3.6726,3.6542,3.5811,3.5763,3.6152,3.5546,3.5222,3.5105,3.5105,3.4835,3.4382,0.0,0.0,0.0,0.0,0.0,0.0,0.0,3.1511,3.1511,3.1511,3.1032,3.0642,3.1301,3.1032,3.0672,3.1331,3.1511,3.166,3.2348,3.4053,3.6387,3.9679,4.0935,4.2132,4.4766,4.4257,4.329,4.3319,4.329,0.0,4.4227,0.0,0.0,0.0,0.0,0.0,0.0,0.0,0.0,0.0,0.0,0.0,0.0,0.0,0.0,0.0,4.4646,4.4018,4.3319,4.2701,4.2081,4.1422,4.1422,4.1168,4.0728,4.1391,4.1611,4.1422,4.1641,4.1716,4.1716,4.1842,4.1917,4.1863,4.1376,4.0948,4.0505,4.0505,4.0505,4.0505,4.0505,4.0505,4.0505,0.0,0.0,0.0,0.0,0.0,0.0,0.0,0.0,0.0,0.0,0.0,0.0,0.0,0.0,0.0,0.0,0.0,0.0,3.1989,3.2442,3.2747,3.2747,3.366,3.4269,3.4506,3.6254,3.7618,3.8667,3.8362,3.7719,3.6795,3.6795,3.6502,3.5892,3.6253,3.6173,3.5744,3.5553,3.5406,3.5337,3.4802,3.4561,3.4415,0.0,0.0,0.0,0.0,0.0,0.0,0.0,0.0,0.0,3.1511,3.169,3.1839,3.157,3.169,3.1869,3.157,3.1839,3.2587,3.4203,3.6088,3.8272,4.1153,4.2282,4.3509,4.6172,4.5274,4.4167,4.4616,4.4347,0.0,0.0,0.0,0.0,0.0,0.0,0.0,0.0,0.0,0.0,0.0,0.0,0.0,0.0,0.0,0.0,0.0,4.3947,4.3499,4.329,4.315,4.2809,4.2333,4.2333,4.2047,4.1607,4.1819,4.1798,4.1641,4.2312,4.2607,4.2607,4.2795,4.2432,4.1653,4.0953,4.0624,4.0505,4.0505,4.0505,4.0505,4.0505,4.0505,4.0505,0.0,0.0,0.0,0.0,0.0,0.0,0.0,0.0,0.0,0.0,3.119,3.119,0.0,0.0,0.0,0.0,0.0,0.0,3.2747,3.3152,3.3423,3.3423,3.41,3.4798,3.5407,3.6321,3.7235,3.8149,3.7686,3.7077,3.6332,3.666,3.6705,3.6512,3.7009,3.6952,3.6409,3.5897,3.5773,3.5763,3.4886,3.4799,3.5184,0.0,0.0,0.0,0.0,0.0,0.0,0.0,0.0,0.0,3.1768,3.1953,3.2019,3.163,3.178,3.2019,3.16,3.1989,3.3006,3.5011,3.7165,3.9619,4.286,4.4436,4.5843,4.7698,4.6711,4.5633,4.6022,4.5334,0.0,0.0,0.0,0.0,0.0,0.0,0.0,0.0,0.0,0.0,0.0,0.0,0.0,0.0,0.0,0.0,0.0,4.3648,4.3358,4.3088,4.3136,4.2952,4.2433,4.2402,4.2334,4.2132,4.2369,4.2453,4.2372,4.2605,4.2741,4.2741,4.2652,4.2216,4.1555,4.0782,4.0505,4.0505,4.0505,4.0505,4.0505,4.0505,4.0505,4.0505,0.0,0.0,0.0,0.0,0.0,0.0,0.0,0.0,0.0,0.0,3.1292,3.1326,0.0,0.0,0.0,0.0,0.0,0.0,0.0,3.3558,3.3592,3.3592,3.4235,3.5272,3.666,3.6694,3.6694,3.6694,3.6761,3.6434,3.5735,3.6535,3.7246,3.7922,3.799,3.7884,3.7663,3.6586,3.6319,3.6453,3.5394,3.5542,3.6272,3.5485,0.0,0.0,0.0,0.0,0.0,0.0,0.0,0.0,3.2216,3.2025,3.157,3.1511,3.154,3.16,3.16,3.2079,3.3125,3.525,3.7823,4.0846,4.4556,4.683,4.8356,4.9,0.0,4.7309,4.7369,4.6232,4.5514,0.0,0.0,0.0,0.0,0.0,0.0,0.0,0.0,0.0,0.0,0.0,0.0,0.0,0.0,0.0,0.0,4.3557,4.3404,4.2839,4.3001,4.2804,4.2203,4.2203,4.2315,4.2499,4.3111,4.3417,4.3387,4.2775,4.2469,4.2414,4.1884,4.1648,4.1555,4.0909,4.0536,4.0505,4.0505,4.0505,4.0505,4.0505,4.0505,4.0505,0.0,0.0,0.0,0.0,0.0,0.0,0.0,0.0,0.0,0.0,0.0,0.0,0.0,0.0,0.0,0.0,0.0,0.0,0.0,3.481,3.5126,3.5126,3.5261,3.5498,3.5859,3.5836,3.5836,3.5836,3.6468,3.6728,3.6558,3.7313,3.7753,3.7922,3.8497,3.8406,3.7841,3.76,3.7533,3.7557,3.7316,3.6764,3.6065,3.5874,3.5128,0.0,0.0,0.0,0.0,0.0,0.0,0.0,3.2382,3.2359,3.2168,3.166,3.1869,3.2258,3.2258,3.2766,3.3993,3.7015,4.0546,4.3748,4.5663,4.683,4.7549,4.7698,4.7489,4.7459,4.7967,4.6561,0.0,0.0,0.0,0.0,0.0,0.0,0.0,0.0,0.0,0.0,0.0,0.0,0.0,0.0,0.0,0.0,4.3596,4.3675,4.3693,4.3736,4.3775,4.3761,4.3831,4.3831,4.3914,0.0,4.4257,4.4318,4.4318,4.4165,4.3826,4.3273,4.2663,4.2078,4.1586,4.1432,4.1032,4.0505,4.0505,4.0505,4.0505,4.0505,4.0505,4.0505,0.0,0.0,0.0,0.0,0.0,0.0,0.0,0.0,0.0,0.0,0.0,0.0,0.0,0.0,0.0,0.0,0.0,0.0,0.0,0.0,3.56,3.56,3.56,3.56,3.56,3.56,3.5769,3.6163,3.6313,3.6538,3.6829,3.7922,3.843,3.8464,3.9174,3.9106,3.8406,3.7845,3.7769,3.7945,3.7328,3.7036,3.6886,3.6461,3.5808,3.5086,3.4717,0.0,0.0,0.0,0.0,0.0,0.0,0.0,3.2076,3.1629,3.175,3.2019,3.2019,3.2976,3.4891,3.8876,4.2073,4.4586,4.5603,4.6112,4.6352,4.6352,4.71,4.7698,4.7399,0.0,0.0,0.0,0.0,0.0,0.0,0.0,0.0,0.0,0.0,0.0,0.0,0.0,0.0,0.0,0.0,4.277,4.2587,4.2779,4.3084,4.3502,4.3693,4.3999,4.4419,4.4151,4.4035,4.4117,4.3771,4.3618,4.3648,4.3994,4.4117,4.4024,4.3033,4.2571,4.2509,4.1863,4.137,4.1001,4.0628,4.0505,4.0505,4.0505,4.0505,4.0505,0.0,0.0,0.0,0.0,0.0,0.0,0.0,0.0,0.0,0.0,0.0,0.0,0.0,0.0,0.0,0.0,0.0,0.0,0.0,0.0,0.0,3.56,3.5735,3.5735,3.56,3.5509,3.5903,3.6795,3.6328,3.6619,3.7574,3.8434,3.8965,3.9208,3.9741,3.9674,3.9125,3.7945,3.7838,3.8332,3.719,3.7281,3.7996,3.7306,3.6835,3.6461,3.5247,3.4456,3.3928,3.3802,0.0,0.0,0.0,0.0,3.194,3.1739,3.1626,3.1569,3.163,3.3245,3.5821,3.9931,4.2381,4.4018,4.4807,4.5076,4.5155,4.5274,4.6531,4.7309,0.0,0.0,0.0,0.0,0.0,0.0,0.0,0.0,0.0,0.0,0.0,0.0,0.0,0.0,0.0,0.0,0.0,4.1991,4.149,4.1798,4.2295,4.2879,4.3216,4.3716,4.4233,4.3716,4.3439,4.3439,4.2879,4.2602,4.2633,4.3033,4.3624,4.4172,4.3094,4.2848,4.3193,4.2171,4.1648,4.137,4.0874,4.0597,4.0505,4.0505,4.0505,4.0505,0.0,0.0,0.0,0.0,0.0,0.0,0.0,0.0,0.0,0.0,3.4336,3.4607,0.0,0.0,0.0,0.0,0.0,0.0,0.0,0.0,0.0,3.5633,3.6265,3.6299,3.5633,3.5155,3.5522,3.6795,3.6877,3.8204,4.0569,3.8964,3.8848,3.9918,3.9532,3.9551,3.9868,3.8674,3.8809,3.9792,3.9089,3.8802,3.8848,3.8719,3.7889,3.6749,3.6544,3.598,3.5316,3.5234,3.4769,0.0,0.0,0.0,3.2656,3.2492,3.2135,3.1862,3.2257,3.4262,3.6727,3.8745,4.0528,4.2179,4.3497,0.0,4.4616,0.0,4.5065,0.0,0.0,0.0,0.0,0.0,0.0,0.0,0.0,0.0,0.0,0.0,0.0,0.0,0.0,0.0,0.0,0.0,4.1504,4.1588,4.1686,4.1873,4.2119,4.2365,4.2615,4.2786,4.2879,4.2786,4.2725,4.2725,4.2633,4.2602,4.2602,4.2078,4.2232,4.2848,4.2694,4.2325,4.1894,4.2294,4.1771,4.0689,4.1247,4.1063,4.0505,4.0505,4.0505,4.0505,0.0,0.0,0.0,0.0,0.0,0.0,0.0,0.0,0.0,0.0,0.0,3.525,0.0,0.0,0.0,0.0,0.0,0.0,0.0,0.0,0.0,3.6884,3.7246,3.7246,3.6907,3.6639,3.7033,3.8024,3.7448,3.8546,4.1188,3.9573,3.9954,4.1888,4.0067,3.9785,4.0611,3.9002,3.8778,3.9592,3.9295,3.8937,3.8633,3.8883,3.8394,3.7467,3.6983,3.6327,3.5595,3.5148,3.4592,3.412,3.4003,0.0,0.0,0.0,3.2492,3.2489,3.3035,3.4235,3.5824,3.7741,3.9258,4.0554,4.1671,4.2308,4.2761,4.303,0.0,0.0,0.0,0.0,0.0,0.0,0.0,0.0,0.0,0.0,0.0,0.0,0.0,0.0,0.0,0.0,0.0,0.0,4.1002,4.0925,4.0783,4.0933,4.126,4.1734,4.1909,4.2232,4.2602,4.2232,4.1832,4.1397,4.1063,4.0843,4.0847,4.017,4.0878,4.2571,4.2202,4.2078,4.214,4.2078,4.1678,4.1155,4.1463,4.1401,4.1186,4.1555,4.1709,4.1648,0.0,0.0,0.0,0.0,0.0,0.0,0.0,0.0,0.0,0.0,0.0,0.0,0.0,0.0,0.0,0.0,0.0,0.0,0.0,0.0,0.0,3.7922,3.8091,3.8091,3.7922,3.7769,3.8033,3.8773,3.7893,3.8776,4.1234,4.0151,4.1216,4.39,4.1082,4.0334,4.1092,3.9163,3.8879,3.9641,3.8985,3.8673,3.8553,3.875,3.845,3.7807,3.73,3.6643,3.5919,3.537,3.4913,3.4505,3.4218,3.4078,0.0,0.0,0.0,3.287,3.3209,3.3698,3.457,3.6421,3.7828,3.8983,0.0,0.0,4.1228,0.0,0.0,0.0,0.0,0.0,0.0,0.0,0.0,0.0,0.0,0.0,0.0,0.0,0.0,0.0,0.0,0.0,0.0,0.0,4.0492,4.0353,4.0041,4.0187,4.0541,4.1031,4.1203,4.1555,4.2078,4.1586,4.1063,4.0474,3.9982,3.9736,3.9705,3.9062,3.9893,4.1801,4.1278,4.1463,4.2048,4.174,4.1494,4.134,4.1524,4.1586,4.1648,4.2171,4.2448,4.254,0.0,0.0,0.0,0.0,0.0,0.0,0.0,0.0,0.0,0.0,0.0,0.0,3.6761,3.6761,3.6434,3.5667,3.6299,0.0,0.0,0.0,0.0,3.7922,3.8565,0.0,3.7922,3.7394,3.7476,3.8148,3.8155,3.9281,4.1478,4.0617,4.2178,4.5545,4.2604,4.1259,4.11,3.9256,3.9483,4.0886,3.8456,3.8169,3.9082,3.8525,3.788,3.7324,3.7814,3.7566,0.0,0.0,0.0,3.65,3.5745,3.5155,3.4721,0.0,0.0,0.0,3.2364,3.2659,3.333,3.4418,3.5858,3.7213,0.0,0.0,0.0,0.0,0.0,0.0,0.0,0.0,0.0,0.0,0.0,0.0,0.0,0.0,0.0,0.0,0.0,0.0,0.0,0.0,0.0,0.0,4.0036,4.0041,4.0011,4.0187,4.0327,4.0358,4.0497,4.0566,4.0597,4.0566,4.0536,4.0505,4.0443,4.0443,4.0413,3.9736,3.9521,3.9677,3.9613,3.9982,4.0659,4.134,4.1186,4.0628,4.134,4.1586,4.1586,4.1648,4.2048,4.2602,0.0,0.0,0.0,0.0,0.0,0.0,0.0,0.0,0.0,0.0,0.0,0.0,0.0,3.7516,3.7381,3.7087,3.7753,0.0,0.0,0.0,0.0,3.9309,3.9571,3.9605,3.9334,3.8712,3.8742,3.937,3.8632,3.929,4.1307,4.0212,4.0856,4.2802,4.0547,4.0469,4.1855,3.9422,3.8977,3.9854,3.8909,3.859,3.8585,3.8362,3.7894,3.7409,3.7919,0.0,0.0,0.0,0.0,3.6859,3.651,3.6251,3.5837,3.4587,3.3547,3.2707,3.233,3.2262,3.2541,3.3326,3.4243,3.5122,3.5723,3.705,3.8163,0.0,0.0,0.0,0.0,0.0,0.0,0.0,0.0,0.0,0.0,0.0,0.0,0.0,0.0,0.0,0.0,0.0,0.0,0.0,0.0,4.0226,4.0331,4.0401,4.0221,3.9791,4.0224,4.0505,4.0505,4.0505,4.0505,4.0474,4.0043,3.9859,3.9828,3.9152,3.8877,3.8877,3.8877,3.9247,3.989,4.0597,4.072,4.0566,4.1309,4.1863,4.2294,4.2694,4.3279,4.3741,0.0,0.0,0.0,0.0,0.0,0.0,0.0,0.0,3.7415,3.8159,0.0,0.0,0.0,0.0,3.8261,3.8261,3.8734,3.9106,3.9368,3.9842,4.0113,4.0113,4.0113,4.0113,4.0113,3.9722,3.9618,3.9799,3.9216,3.9373,4.0235,3.9852,4.0153,4.0988,3.9219,3.9812,4.1943,3.9693,3.9032,3.9466,3.866,3.8298,3.8351,3.8637,3.8469,3.8199,0.0,0.0,0.0,0.0,0.0,0.0,3.6917,3.6858,3.6464,3.4783,3.3878,3.3365,3.2922,3.2602,3.2505,3.2967,3.3381,3.3757,3.4122,0.0,0.0,0.0,0.0,0.0,0.0,0.0,0.0,0.0,0.0,0.0,0.0,0.0,0.0,0.0,0.0,0.0,0.0,0.0,0.0,0.0,0.0,0.0,4.0166,4.0166,3.9859,3.9216,3.9582,3.9828,3.9828,4.0043,4.0166,4.0166,3.992,3.9828,3.9797,3.9154,3.8846,3.8846,3.86,3.8877,3.9521,3.9982,4.029,4.0536,4.1063,4.1648,4.2392,4.3299,4.406,4.452,0.0,0.0,0.0,0.0,0.0,0.0,0.0,0.0,3.8193,3.8937,0.0,0.0,0.0,0.0,0.0,3.9039,3.9039,3.9334,4.0045,4.0113,4.0113,4.0113,0.0,0.0,4.0113,4.0087,3.9799,3.9249,3.9799,3.9526,3.8459,3.9634,4.0294,4.0483,3.9029,3.9441,4.1168,3.9961,3.9755,4.0051,3.7551,3.7312,3.8556,3.9249,3.9502,0.0,4.0172,3.9959,0.0,3.7704,0.0,0.0,3.7096,3.6941,3.6534,3.5224,3.4826,3.4673,0.0,0.0,0.0,0.0,0.0,0.0,3.3169,0.0,0.0,0.0,0.0,0.0,0.0,0.0,0.0,0.0,0.0,0.0,0.0,0.0,0.0,0.0,0.0,0.0,0.0,0.0,0.0,0.0,4.0074,4.0166,3.9524,3.9428,3.9154,3.8539,3.8477,3.8477,3.8508,3.9154,3.9459,3.9459,4.0136,4.0474,4.0443,3.9797,3.9524,3.9459,3.8816,3.8877,3.949,3.949,3.989,4.0505,4.0505,4.0935,4.1785,4.3183,4.4091,4.4752,0.0,0.0,0.0,0.0,0.0,3.8091,3.8599,3.87,3.8937,0.0,0.0,0.0,3.9808,3.9808,3.9808,3.9808,3.9808,3.9876,4.0079,4.0113,4.0113,4.0113,4.0113,4.0113,4.0113,3.967,3.9592,3.985,3.9592,3.9288,3.8995,3.9298,3.9316,3.8997,3.8587,3.8946,3.978,3.8505,3.864,3.9551,3.8367,3.8654,3.9724,3.8527,0.0,0.0,0.0,3.8145,3.7996,0.0,3.7987,3.8056,0.0,3.7667,3.6669,3.588,3.5247,3.4673,3.4161,0.0,0.0,0.0,0.0,0.0,0.0,0.0,0.0,0.0,0.0,0.0,0.0,0.0,0.0,0.0,0.0,0.0,0.0,0.0,0.0,0.0,0.0,0.0,0.0,0.0,0.0,0.0,3.897,3.9,3.8816,3.8323,3.82,3.8508,3.8046,3.8015,3.8508,3.8692,3.8785,3.8785,3.9459,3.9767,3.9767,4.0074,3.9951,3.9459,3.8816,3.8877,3.949,3.949,3.989,4.0505,4.0505,4.0935,4.1723,4.2579,4.3358,4.3993,0.0,0.0,0.0,0.0,0.0,3.8937,3.9402,3.9469,3.9605,0.0,0.0,0.0,4.0113,4.0654,4.079,4.0146,4.0113,4.0113,4.0113,4.0113,4.0113,4.0113,4.0113,4.0113,4.0113,3.9747,3.9747,4.0113,3.9747,3.9461,3.9189,3.9461,3.9013,3.7987,3.8225,3.8285,3.8074,3.7335,3.7769,3.8888,3.8277,3.8685,3.9559,3.9308,3.9462,0.0,0.0,0.0,3.9058,3.8239,3.8107,0.0,0.0,0.0,3.7537,3.6611,3.5837,3.5142,3.453,3.3777,3.3182,0.0,0.0,0.0,3.2191,3.2497,0.0,0.0,0.0,0.0,0.0,0.0,0.0,0.0,0.0,0.0,0.0,0.0,0.0,0.0,0.0,0.0,0.0,3.7923,3.8077,3.8077,3.8354,3.8385,3.8108,3.7461,3.7246,3.7646,3.7277,3.7277,3.7677,3.7954,3.8077,3.8108,3.8785,3.9247,3.949,3.989,4.0013,3.9859,3.8939,3.8877,3.9493,3.9484,3.9915,4.0539,4.0817,4.0997,4.1326,4.2606,4.3323,4.3773,0.0,0.0,4.0113,4.0113,4.018,4.0214,4.0214,4.0214,4.0248,0.0,4.0417,4.0519,4.0587,4.1677,4.1847,4.0485,4.0282,4.018,4.0113,4.0113,4.0113,4.0113,4.0113,4.0113,4.0113,4.0113,4.0113,4.0113,4.0113,3.9799,3.9189,3.9825,3.9135,3.7447,3.8055,3.7679,3.66,3.6507,3.721,3.8273,3.781,3.8108,3.9036,0.0,4.1396,4.1393,4.1303,4.127,4.0918,3.8429,3.7894,0.0,0.0,0.0,0.0,0.0,3.6563,3.5991,3.5319,3.4413,3.3588,0.0,0.0,0.0,3.2413,3.2416,3.2604,0.0,0.0,0.0,0.0,0.0,0.0,0.0,0.0,0.0,0.0,0.0,0.0,0.0,0.0,0.0,3.6261,3.6876,3.7277,3.7277,3.7892,3.8015,3.743,3.6815,3.6507,3.6507,3.6507,3.6507,3.6507,3.7092,3.74,3.74,3.8077,3.8754,3.9367,3.9493,3.9859,4.0413,3.9059,3.8877,3.9496,3.9597,3.9941,4.0588,4.1329,4.1258,4.0982,4.2944,4.3683,4.3876,0.0,4.0011,4.0113,4.0113,4.0595,4.1001,4.1001,4.1001,4.1204,4.1779,4.2388,4.2997,4.3667,4.3403,4.2828,4.1948,4.1339,4.073,4.0146,4.0113,4.0113,4.0113,4.0113,4.0113,4.0113,4.0113,4.0113,4.0113,4.0113,3.9799,3.9189,3.9825,3.9135,3.7447,3.8055,3.7911,3.7178,3.6723,3.7249,3.8393,3.8337,3.94,4.0909,4.0186,4.0251,4.056,3.951,3.9415,3.973,3.8592,3.8253,3.8246,0.0,0.0,0.0,3.7918,0.0,0.0,0.0,0.0,0.0,0.0,0.0,0.0,3.2877,3.317,3.3642,0.0,0.0,0.0,0.0,0.0,0.0,0.0,0.0,0.0,0.0,0.0,0.0,0.0,0.0,0.0,3.4905,3.5521,3.5861,3.5861,3.6507,3.6815,3.6692,3.6569,3.6507,3.6507,3.6507,3.6507,3.6507,3.663,3.6692,3.6692,3.7369,3.8046,3.8723,3.9244,3.9859,4.0413,3.9059,3.8877,3.9529,4.0067,4.0383,4.0637,4.1821,4.2237,4.2237,4.3178,4.3548,4.3737,4.0113,4.0113,4.0214,4.0561,4.0933,4.1339,4.1677,4.1745,4.2016,4.276,4.4181,4.4823,4.4079,4.435,4.3944,4.2422,4.1948,4.1576,4.123,4.0832,4.0629,4.0629,4.0316,4.0113,4.0113,4.0113,4.0113,4.0113,4.0113,3.9927,3.9644,3.9644,3.9001,3.7854,3.7854,3.7504,3.6968,3.6968,3.753,3.8464,3.8484,0.0,4.0509,4.0136,4.0197,4.0413,3.9736,3.949,3.9434,3.9052,3.8898,0.0,0.0,3.8466,3.8645,0.0,3.789,3.7183,0.0,0.0,0.0,3.5909,0.0,0.0,0.0,3.3958,3.3968,3.333,0.0,0.0,0.0,0.0,0.0,0.0,0.0,0.0,0.0,0.0,0.0,0.0,0.0,0.0,3.4505,3.4813,3.4998,3.4998,3.5337,3.5675,3.5984,3.5984,3.6138,3.6476,3.6507,3.6507,3.6507,3.6507,3.6507,3.6507,3.7184,3.7677,3.8046,3.9062,3.9674,3.9951,3.9308,3.9166,3.9529,4.0569,4.0994,4.1093,4.2468,4.28,4.2583,4.3257,4.3495,4.3651,4.0113,4.0113,4.0282,4.0865,4.1204,4.161,4.2185,4.2422,4.2828,4.3713,4.5568,4.6143,4.4423,4.5263,4.5229,4.3538,4.2861,4.2625,4.2929,4.1982,4.1407,4.1407,4.0832,4.0519,4.0519,4.0383,4.0316,4.0316,4.018,4.0113,4.0087,3.9618,3.9001,3.8278,3.7796,3.7241,3.6723,3.7216,3.7904,3.8692,0.0,3.909,3.9736,4.029,4.0505,4.0505,4.0505,4.0146,3.9694,3.9506,3.9502,3.9361,3.8561,3.8613,0.0,0.0,0.0,0.0,0.0,0.0,0.0,0.0,0.0,3.6123,0.0,0.0,0.0,3.4101,0.0,0.0,0.0,0.0,0.0,0.0,0.0,0.0,0.0,0.0,0.0,0.0,0.0,0.0,0.0,3.4227,3.4351,3.4505,3.4505,3.4782,3.546,3.5521,3.5799,3.6476,3.6507,3.6507,3.6507,3.6507,3.6507,3.6507,3.7061,3.743,3.7738,3.8816,3.9529,3.988,3.9756,3.9747,3.988,4.1164,4.1665,4.1763,4.3178,4.338,4.2953,4.3529,4.3706,4.3827,4.0113,4.0113,4.0146,4.0214,4.1331,4.2185,4.2286,4.2861,4.3781,4.5263,4.6244,4.6955,4.7331,4.6955,4.6819,4.7259,4.4795,4.3876,4.5229,4.3335,4.2185,4.2185,4.2083,4.2049,4.2049,4.1407,4.1068,4.1068,4.0417,4.0113,4.0113,4.0037,3.9375,3.8306,3.8222,3.7912,3.7369,3.7464,3.8234,3.9367,3.9367,3.9767,0.0,4.0474,4.0505,4.0505,4.0505,4.0453,4.0259,0.0,3.9758,3.9952,0.0,3.8334,3.8502,0.0,0.0,0.0,0.0,0.0,0.0,0.0,3.9265,0.0,0.0,0.0,3.6239,3.437,0.0,0.0,0.0,0.0,0.0,0.0,0.0,0.0,0.0,0.0,0.0,0.0,0.0,0.0,0.0,3.3183,3.3798,3.4443,3.4505,3.4782,3.546,3.5521,3.5799,3.6476,3.6507,3.6507,3.6507,3.6507,3.6507,3.6507,3.6569,3.7246,3.8385,3.8569,3.9579,4.1236,4.0637,4.0706,4.1324,4.2078,4.2369,4.2518,4.3933,4.444,4.4384,4.444,4.4468,4.4468,4.0113,4.0113,4.0248,4.0663,4.1238,4.1948,4.2828,4.506,4.6752,4.6955,4.8376,4.9627,5.0371,4.939,4.8815,4.9154,0.0,4.5911,0.0,0.0,4.2963,4.2963,4.2523,4.2286,4.2286,4.1576,4.1204,4.1204,4.0485,4.0113,4.0113,3.9747,3.9295,3.881,3.8502,3.8204,3.806,3.8435,3.8958,0.0,0.0,0.0,0.0,4.0505,4.0505,4.0505,4.0505,4.0495,4.0331,0.0,3.9528,0.0,0.0,0.0,0.0,0.0,0.0,0.0,0.0,0.0,0.0,0.0,0.0,0.0,3.7703,0.0,3.7224,0.0,0.0,0.0,0.0,0.0,0.0,0.0,3.2893,0.0,0.0,0.0,0.0,0.0,0.0,0.0,0.0,0.0,0.0,0.0,3.3303,3.3552,3.4229,3.426,3.4783,3.5861,3.5922,3.6107,3.6507,3.6507,3.6507,3.6507,3.6876,3.7184,3.7369,3.8569,3.9551,4.0388,4.0862,4.1436,4.2055,4.2319,4.2432,4.2467,4.3523,4.4181,4.4615,4.4615,4.4615,4.4615,4.0113,4.0113,4.0282,4.0798,4.1068,4.1779,4.347,4.6041,4.7902,4.8173,4.9627,5.098,5.1894,5.142,0.0,0.0,4.9965,4.8578,0.0,0.0,4.4147,0.0,0.0,0.0,0.0,4.1982,4.1508,4.1508,4.0553,4.0113,4.0113,3.9644,3.9382,3.9202,3.8988,3.8835,3.8714,3.9407,3.9707,3.9835,4.0242,4.0453,4.0505,4.0505,4.0505,4.0505,4.0505,4.0612,4.0566,3.9203,3.9598,0.0,3.8278,0.0,0.0,0.0,0.0,0.0,3.9644,0.0,0.0,0.0,0.0,0.0,0.0,0.0,0.0,0.0,0.0,0.0,0.0,0.0,0.0,0.0,0.0,3.3354,0.0,0.0,0.0,0.0,0.0,0.0,0.0,0.0,0.0,0.0,0.0,3.2505,3.3367,3.3398,3.4044,3.546,3.5521,3.5799,3.6476,3.6507,3.6507,3.6507,3.6999,3.7156,3.7095,3.877,3.9785,4.0347,4.1533,4.2415,4.2998,4.2765,4.2652,4.2658,4.3172,4.3775,4.4282,4.4513,4.4615,4.4615,4.0113,4.0113,4.0113,4.0146,4.073,4.1948,4.4242,4.4682,4.5766,4.8578,4.9052,4.9627,0.0,0.0,0.0,0.0,0.0,5.186,5.1082,0.0,4.6041,0.0,0.0,4.4547,0.0,0.0,4.2252,4.2252,4.0823,4.0113,4.0113,4.0087,3.9747,3.9228,3.9943,3.99,3.9409,4.0166,4.0478,4.0474,4.0478,4.0509,4.0505,0.0,4.0505,4.0505,4.0505,0.0,0.0,3.985,4.0259,0.0,0.0,0.0,0.0,0.0,0.0,0.0,0.0,0.0,0.0,4.0155,0.0,0.0,0.0,0.0,3.8768,0.0,0.0,0.0,0.0,0.0,3.5324,3.3348,0.0,0.0,0.0,0.0,0.0,0.0,0.0,0.0,0.0,0.0,0.0,0.0,0.0,0.0,3.3336,3.3398,3.4044,3.546,3.5521,3.5799,3.6476,3.6507,3.6507,3.6507,3.6507,3.7188,3.8367,3.9155,4.0532,4.2352,4.3109,4.3852,4.4485,4.3713,4.3375,4.3375,4.3375,4.3409,4.3511,4.4316,4.4615,4.4615,4.0113,4.0113,4.0113,4.0113,4.0316,4.1204,4.347,4.5906,0.0,0.0,5.3551,0.0,0.0,5.9235,5.8964,0.0,0.0,5.5615,5.2909,5.0845,0.0,0.0,0.0,4.5805,0.0,0.0,0.0,4.3031,4.2049,4.1568,4.1568,4.1068,4.0728,4.052,4.0828,4.059,0.0,0.0,0.0,0.0,0.0,4.0782,4.1186,0.0,0.0,4.0505,4.0505,4.0646,0.0,3.9268,3.969,4.0388,3.8402,3.8329,3.8993,3.8969,3.8524,0.0,0.0,0.0,3.8574,3.9309,0.0,0.0,0.0,0.0,0.0,0.0,0.0,0.0,0.0,0.0,3.6122,3.4931,3.4603,3.443,0.0,0.0,0.0,0.0,0.0,0.0,0.0,0.0,0.0,0.0,3.1547,0.0,0.0,3.2721,3.3367,3.4813,3.4844,3.5398,3.6476,3.6507,3.6507,3.6507,3.6507,3.7188,3.849,3.9154,4.0593,4.2497,4.3197,4.3914,4.4547,4.3741,4.3375,4.3375,4.3375,4.3375,4.3477,4.4282,4.4615,4.4615,4.0493,4.0282,4.0113,4.0113,4.0553,4.1636,0.0,0.0,0.0,0.0,5.6968,0.0,6.3802,0.0,6.2651,0.0,6.1603,5.8829,5.4566,5.3078,0.0,4.7606,4.6989,0.0,0.0,0.0,0.0,0.0,0.0,4.2557,4.2286,4.1813,4.1441,4.1245,4.1771,4.1373,4.0363,4.1437,4.1343,0.0,0.0,4.0782,0.0,0.0,4.0659,4.0843,0.0,4.0505,4.032,3.9247,3.9741,4.0447,3.8489,3.8717,3.9642,3.9145,3.8661,3.8409,3.8808,3.8334,0.0,3.8701,3.8585,0.0,3.9532,0.0,0.0,0.0,0.0,0.0,0.0,0.0,0.0,3.5507,3.5201,3.5085,0.0,3.4419,0.0,0.0,0.0,0.0,0.0,0.0,0.0,3.1332,3.1182,0.0,0.0,0.0,3.3057,3.4474,3.4505,3.5152,3.6476,3.6507,3.6507,3.6507,3.7002,3.7775,3.8882,4.0051,4.139,4.2874,4.358,4.4179,4.4547,4.3741,4.3375,4.3375,4.3375,4.3375,4.3511,4.4587,4.4993,4.5026,4.1204,4.0696,4.0282,0.0,4.1467,0.0,0.0,0.0,5.3179,0.0,5.9201,6.211,6.3734,6.4478,6.4884,6.4884,6.4174,6.1569,5.6391,5.5235,0.0,0.0,4.6972,4.6209,4.482,0.0,0.0,0.0,0.0,4.3098,4.2388,4.2354,4.1982,4.1381,4.277,4.2288,4.0428,4.1946,4.1784,4.0505,4.0505,4.0505,4.0536,4.0505,4.097,4.1494,4.0751,4.0505,4.0382,3.9705,4.0362,4.1107,3.9168,3.943,4.0195,3.8922,3.8433,3.8337,3.8397,3.8307,3.8222,3.8278,0.0,0.0,0.0,0.0,3.9202,0.0,0.0,0.0,0.0,0.0,0.0,3.521,3.5304,3.56,0.0,0.0,0.0,0.0,0.0,0.0,0.0,0.0,2.992,3.1243,3.0782,3.0971,0.0,0.0,3.3057,3.4474,3.4505,3.5152,3.6476,3.6538,3.6538,3.6569,3.7901,3.8884,3.9567,4.1605,4.2841,4.3477,4.4248,4.4615,4.4547,4.3775,4.3443,4.3443,4.3443,4.3477,4.3713,4.5196,4.5737,4.5838,4.1204,4.1948,4.2726,0.0,4.3267,4.391,0.0,0.0,0.0,0.0,6.2245,6.5764,6.8977,6.8977,6.8741,6.8741,6.7523,0.0,0.0,0.0,0.0,5.3582,5.1765,4.9924,4.7916,4.6794,0.0,4.4024,0.0,4.4209,4.4005,4.3403,4.3003,4.2834,4.3244,4.2564,4.1198,4.2139,4.1749,4.0505,4.0505,4.0812,0.0,0.0,4.097,4.1494,4.0751,4.0505,4.0382,3.9705,4.0056,4.0594,3.9557,3.947,3.9672,3.928,3.8497,3.7842,3.824,3.766,3.7208,3.808,3.7969,3.7796,0.0,0.0,0.0,0.0,0.0,0.0,0.0,0.0,0.0,0.0,3.5903,0.0,0.0,0.0,0.0,0.0,0.0,0.0,0.0,0.0,2.9212,3.0566,3.0479,3.0971,0.0,0.0,0.0,3.4474,3.4505,3.5152,3.6476,3.6999,3.7246,3.7246,3.8592,3.9842,4.0994,4.2005,4.317,4.4282,4.4513,4.4615,4.4581,4.4378,4.4282,4.4282,4.4282,4.4959,4.5906,4.5771,4.6041,4.6549,4.2117,4.4147,0.0,4.5602,0.0,0.0,4.9526,5.1792,0.0,5.9505,6.3362,0.0,6.8605,6.9654,7.0195,7.0195,6.8684,0.0,6.3694,0.0,0.0,5.5822,5.3759,5.1386,4.8563,4.7686,0.0,4.4121,0.0,4.4919,4.4615,4.4147,4.3741,4.3409,4.3775,4.3175,4.185,4.201,4.1815,4.1392,4.077,0.0,0.0,4.0659,4.0751,4.1063,4.0628,4.0505,4.0443,4.0043,4.0371,4.0826,4.0146,4.0158,4.0302,3.9994,3.9151,3.8341,3.8366,3.7648,3.6967,3.7415,3.7445,3.7506,3.7825,3.8431,3.8739,0.0,0.0,0.0,0.0,0.0,0.0,0.0,0.0,0.0,0.0,0.0,0.0,0.0,0.0,0.0,0.0,3.0483,2.9704,3.0782,3.0843,0.0,0.0,0.0,0.0,3.4474,3.509,3.5858,3.6876,3.7867,3.8336,3.8368,3.9718,4.0911,4.1996,4.2974,4.3833,4.4615,4.4615,4.4615,4.4615,4.4615,4.4615,4.4649,4.4925,4.5771,4.6786,4.6718,4.6921,4.7327,4.3572,0.0,0.0,0.0,0.0,0.0,0.0,5.5141,0.0,6.0385,0.0,6.6406,6.6406,6.8774,7.0331,7.0331,0.0,6.6645,6.4093,6.2779,6.0322,5.6374,5.464,5.21,4.8539,4.8034,0.0,0.0,0.0,4.511,4.4615,4.4615,4.4215,4.3606,4.4282,4.3815,0.0,4.1757,4.184,4.2309,4.1031,4.0505,4.0505,4.0505,4.0505,4.0505,4.0505,4.0505,4.0505,4.0505,4.0888,4.126,4.0681,4.0888,4.1196,4.0464,3.9767,3.9125,3.8521,3.7842,3.7178,3.6846,3.6997,3.7328,3.7506,3.7796,3.7969,3.7506,3.7767,3.7604,0.0,0.0,0.0,0.0,0.0,0.0,0.0,0.0,0.0,0.0,0.0,0.0,0.0,0.0,0.0,3.1469,3.1553,0.0,0.0,0.0,0.0,3.4474,3.5705,0.0,3.7551,0.0,3.9628,3.9712,4.1089,4.2097,4.2688,4.4024,4.4615,4.4615,4.4615,4.4615,4.4615,4.4615,4.4682,4.4818,4.5466,4.621,4.7022,4.7665,4.7939,4.8142,4.5162,0.0,0.0,0.0,0.0,5.5412,5.849,6.0655,6.2618,6.4478,6.7996,7.0331,7.0331,7.0804,7.1109,7.1109,6.968,0.0,0.0,0.0,0.0,5.9452,5.7282,5.4722,5.1598,4.8593,4.6491,0.0,0.0,4.4135,4.4615,4.4615,4.4513,4.4412,4.4547,0.0,4.2419,4.1788,0.0,4.0866,4.0605,4.0505,4.0505,4.0505,4.0505,4.0505,4.0505,4.0505,4.0505,4.0505,4.0578,4.0646,4.0509,4.0578,4.043,3.9218,3.8758,3.8521,3.7808,3.7124,3.6846,3.7767,3.7296,3.6906,3.794,3.7445,3.6906,3.7328,3.7088,3.6845,3.7021,0.0,0.0,0.0,0.0,0.0,0.0,0.0,0.0,0.0,0.0,0.0,0.0,0.0,0.0,0.0,0.0,0.0,0.0,0.0,0.0,0.0,3.5214,0.0,0.0,0.0,4.0543,4.115,4.2474,4.3241,4.3359,4.4231,4.4615,4.4615,4.4615,4.4615,4.4615,4.4615,4.4959,4.5534,4.5669,4.6515,4.7703,4.7838,4.8308,4.8849,4.7834,0.0,0.0,0.0,0.0,0.0,0.0,6.5256,6.6677,6.5797,6.7252,6.8402,6.8402,7.0128,7.1142,7.077,6.9581,6.8282,6.6905,6.527,6.3239,6.082,5.893,0.0,5.2367,4.9814,4.7628,4.5703,0.0,0.0,4.4615,4.4615,4.4615,4.4587,4.4207,4.4056,0.0,0.0,0.0,4.259,4.1848,4.1558,4.1558,4.1558,4.1327,4.1057,4.1393,4.1294,4.0956,4.0612,4.0749,4.0956,4.0612,4.099,4.1267,3.9941,3.9296,3.8934,3.859,3.7529,3.6724,3.7679,3.767,3.7415,3.7356,3.765,3.7709,3.7058,3.7208,3.7533,3.7825,3.8047,0.0,0.0,0.0,0.0,0.0,0.0,0.0,0.0,0.0,0.0,0.0,0.0,0.0,0.0,0.0,0.0,0.0,0.0,0.0,0.0,0.0,0.0,0.0,0.0,0.0,4.2488,4.3182,4.3706,4.4059,4.444,4.4615,4.4615,4.4615,4.4615,4.4649,4.4993,4.5365,4.5771,4.6549,4.7263,4.7939,4.8342,4.8714,4.9018,0.0,5.2232,0.0,0.0,5.9641,0.0,6.5324,6.8368,6.9586,6.7184,6.688,6.6812,6.6643,6.9451,7.1007,7.0263,6.9243,6.8137,6.6863,6.5182,6.325,6.1124,5.9742,5.707,5.2875,5.0885,4.8658,0.0,0.0,0.0,0.0,4.4682,4.4615,0.0,0.0,0.0,0.0,0.0,4.3313,4.4113,4.2966,4.252,4.252,4.252,4.2173,4.1755,4.23,4.2173,4.1656,4.1091,4.1292,4.1591,4.0922,4.1426,4.2045,4.0836,4.0024,3.9501,3.9486,3.8268,3.7156,3.8091,3.8323,3.8162,3.7607,3.8294,3.8645,3.7326,3.7621,3.8165,3.8446,3.8278,0.0,0.0,0.0,0.0,0.0,0.0,0.0,0.0,0.0,0.0,0.0,0.0,0.0,0.0,0.0,0.0,0.0,0.0,0.0,0.0,0.0,3.8688,3.9624,0.0,4.3416,0.0,4.3714,4.403,4.4615,4.4615,4.4615,4.4615,4.4615,4.4716,4.4857,4.5466,4.5872,4.6278,4.7432,4.7973,4.8176,4.8781,4.9018,4.9018,0.0,0.0,0.0,0.0,0.0,0.0,6.5662,6.8842,7.1109,7.0838,7.0804,7.0534,6.9823,7.0703,7.1007,7.0263,6.9499,6.8417,6.6914,6.541,6.3282,6.0351,5.9438,5.7543,5.4431,5.0961,4.8687,0.0,0.0,0.0,0.0,0.0,0.0,0.0,0.0,0.0,0.0,4.3469,4.3139,4.268,4.2553,4.252,4.252,4.252,4.2458,4.2426,4.2489,4.2458,4.2395,4.2332,4.2363,4.23,4.1624,4.1492,4.1464,4.0702,4.0027,3.951,3.9502,3.8901,3.8745,4.0583,3.9712,3.8814,4.04,3.9517,3.8474,3.8865,3.8169,3.7825,3.892,3.8226,3.7822,0.0,0.0,0.0,0.0,0.0,0.0,0.0,0.0,0.0,0.0,0.0,0.0,0.0,0.0,0.0,0.0,0.0,0.0,3.4503,0.0,3.838,4.0388,4.1753,4.3121,4.4486,4.4481,4.4525,4.4615,4.4615,4.4615,4.4615,4.4615,4.4959,4.5602,4.5669,4.6515,4.7703,4.7838,4.8308,4.8917,4.8984,4.9018,4.9018,0.0,0.0,0.0,0.0,0.0,0.0,0.0,7.0364,7.1312,7.1312,7.1312,7.121,7.0906,7.1142,7.0838,6.962,6.8842,6.7557,6.5628,6.4106,6.2313,6.0182,5.9404,5.7611,5.4668,5.227,5.0047,0.0,0.0,0.0,0.0,0.0,0.0,0.0,0.0,4.4269,4.4758,4.3876,4.3588,4.3768,4.3768,4.3768,4.3768,4.3768,4.3499,4.3166,4.3588,4.3469,4.3106,4.3106,4.3106,4.2984,4.23,4.2676,4.3133,4.2041,4.1215,4.0801,4.1212,4.023,3.9472,4.1054,4.0808,4.0189,4.0132,4.0078,3.9773,3.8849,3.8282,3.8197,3.9028,3.881,3.8645,0.0,0.0,0.0,0.0,0.0,0.0,0.0,0.0,0.0,0.0,0.0,0.0,0.0,0.0,0.0,0.0,0.0,0.0,3.5616,0.0,3.9762,4.1013,4.2802,4.4002,4.462,4.4575,4.4615,4.4615,4.4615,4.4852,4.5263,4.5263,4.5669,4.638,4.6853,4.7365,4.7939,4.8409,4.8748,4.9018,4.9018,4.9018,4.9018,6.0858,0.0,6.2956,0.0,6.7387,6.8233,7.0906,7.1312,7.1244,7.1007,7.0973,7.0906,7.0703,7.1041,7.0737,6.9248,6.8368,6.7151,6.5358,6.3666,6.1941,6.0182,5.9607,0.0,5.4972,5.3484,5.1352,4.8545,4.6853,0.0,0.0,0.0,0.0,0.0,4.4365,4.4524,4.564,4.4365,4.4121,4.4615,4.4615,4.4615,4.4615,4.4615,4.4265,4.3885,4.4412,4.4265,4.3794,4.3794,4.3794,4.3706,4.3015,4.3469,4.4093,4.3075,4.2319,4.1934,4.2608,4.159,4.0701,4.207,4.1865,4.1153,4.0433,4.0581,4.049,3.9127,3.8668,3.8756,3.9348,3.9162,3.9055,3.9435,0.0,0.0,0.0,0.0,0.0,0.0,3.6437,3.5916,3.5747,0.0,0.0,0.0,0.0,0.0,0.0,0.0,0.0,0.0,0.0,0.0,0.0,4.3525,4.4716,4.4925,4.5128,4.5258,4.5258,4.5258,4.5534,4.6007,4.6007,4.6447,4.7158,4.7699,4.8007,4.8274,4.8815,4.9018,4.9018,4.9018,4.9018,4.9018,6.3024,6.4647,6.6339,6.8673,7.0263,7.1278,7.1312,7.1312,7.1041,7.0297,7.0195,6.9925,6.9214,7.0432,7.0737,6.9248,6.8368,6.759,6.6846,6.4715,6.2482,0.0,0.0,5.8727,5.5749,5.4262,5.2367,5.0067,0.0,0.0,4.6752,0.0,4.5703,4.5669,4.4925,4.4993,4.5669,4.4891,4.4615,4.4615,4.4615,4.4615,4.4615,4.4615,4.4615,4.4587,4.4615,4.4615,4.4587,4.4587,4.4587,4.4468,4.3706,4.3495,4.3495,4.3466,4.3015,4.2613,4.3317,4.3015,4.2798,4.4207,4.2925,4.1455,4.2119,4.1136,4.0113,4.0087,3.9618,3.9348,3.9952,3.9135,3.8695,3.9901,0.0,0.0,0.0,0.0,0.0,0.0,3.8488,3.8086,3.7884,0.0,0.0,0.0,0.0,0.0,0.0,0.0,0.0,3.7291,3.9243,0.0,4.1404,4.3525,4.4987,4.5703,4.6413,4.6752,4.6752,4.6752,4.6786,4.6786,4.6786,4.7225,4.7872,4.7906,4.8342,4.8984,4.9018,4.9018,4.9018,4.9018,4.9018,4.9018,6.5527,6.6981,6.8402,6.962,7.0669,7.1312,7.1312,7.0872,7.0466,7.0229,6.9755,6.935,6.9113,6.9958,6.9722,0.0,6.732,6.6643,0.0,6.3226,6.167,6.096,5.9911,5.822,5.5749,5.4735,5.2875,5.0101,0.0,0.0,0.0,4.6549,4.6718,4.7158,4.5906,4.5771,4.638,4.5156,4.4615,4.4615,4.4615,4.4615,4.4615,4.4615,4.4615,4.4615,4.4615,4.4615,4.4615,4.4615,4.4615,4.4559,4.4293,4.4236,4.4236,4.4236,4.3735,4.3317,4.4064,4.3706,4.341,4.4384,4.4069,4.3452,4.3111,4.1914,4.0832,4.0832,4.0298,3.9876,4.0062,3.9799,3.9636,4.0062,3.9592,0.0,0.0,0.0,0.0,0.0,0.0,3.8529,0.0,3.7745,0.0,0.0,0.0,0.0,0.0,0.0,0.0,0.0,4.0842,0.0,4.3558,4.4772,4.5703,4.6447,4.6684,4.6786,4.6786,4.6786,4.7056,4.7564,4.7564,4.797,4.8646,4.8646,4.8781,4.9018,4.9018,4.9018,4.9018,4.9018,4.9018,4.9018,6.6711,6.8064,6.9147,6.9316,7.0195,7.0804,7.0534,7.0094,6.9789,6.9789,6.9383,6.9113,6.9113,6.9519,0.0,6.7793,6.7151,6.6406,6.5493,6.2854,6.1298,6.1298,5.9844,5.7983,5.5749,0.0,0.0,5.0913,4.9627,4.824,4.6786,4.6786,4.7056,4.7428,4.6244,4.5974,4.6312,4.5122,4.4615,4.4615,4.4615,4.4615,4.4615,4.4615,4.4615,4.4615,4.4615,4.4615,4.4615,4.4615,4.4615,4.4615,4.4615,4.4615,4.4615,4.4615,4.4265,4.4001,4.4468,4.4265,4.4001,4.4468,4.435,4.3944,4.3166,4.2286,4.1542,4.1271,4.0832,4.0451,4.0146,4.0113,4.0113,4.0113,3.9773,3.967,4.0062,0.0,0.0,0.0,0.0,0.0,0.0,3.8734,0.0,0.0,0.0,0.0,0.0,0.0,0.0,4.0602,4.2294,0.0,4.4581,4.5872,4.6752,4.7225,4.7496,4.7631,4.7631,4.7631,4.7868,4.8311,4.8311,4.8578,4.9018,4.9018,4.9018,4.9018,4.9018,4.9018,4.9018,4.9018,4.9018,4.9018,6.6812,6.7996,6.8774,0.0,6.918,0.0,6.9214,6.9113,6.9079,6.9011,6.8977,6.8944,6.8944,6.8944,6.891,6.8876,0.0,0.0,0.0,6.3294,6.1298,6.1298,5.9844,5.7983,5.5749,5.5681,5.4566,5.2232,5.0067,4.8308,4.6955,4.6955,4.6955,4.6921,4.6177,4.5838,4.5737,4.4993,4.4649,4.4615,4.4615,4.4615,4.4615,4.4615,4.4615,4.4615,4.4615,4.4615,4.4615,4.4615,4.4615,4.4615,4.4615,4.4615,4.4615,4.4615,4.4615,4.4615,4.4615,4.4615,4.4615,4.4615,4.4012,4.3206,4.2523,4.2286,4.2049,4.1407,4.1238,4.1001,4.0316,4.018,4.018,4.0113,4.0113,4.0113,4.0113,0.0,0.0,0.0,0.0,0.0,0.0,4.0113,4.0113,0.0,0.0,0.0,0.0,0.0,4.0696,4.1339,4.3436,4.4682,4.4852,4.6887,4.7906,4.7906,4.8646,4.8984,4.8951,4.8984,4.9018,4.9018,4.9018,4.9018,4.9018,4.9018,4.9018,4.9018,4.9018,4.9018,4.9018,4.9018,4.9018,4.9018,0.0,0.0,6.8132,6.7929,6.918,6.9925,6.9214,6.9113,6.8876,6.8267,6.7692,6.7354,6.7354,6.7354,6.7117,6.6542,6.617,6.573,6.5155,6.2719,6.1298,6.1298,5.9844,5.7983,5.5749,5.5681,5.4329,5.1488,4.983,4.8815,4.8477,4.8477,4.8477,4.8443,4.7733,4.709,4.6481,4.5737,4.5094,4.4615,4.4615,4.4615,4.4615,4.4615,4.4615,4.4615,4.4615,4.4615,4.4615,4.4615,4.4615,4.4615,4.4615,4.4615,4.4615,4.4615,4.4615,4.4615,4.4615,4.4615,4.4615,4.4615,4.4012,4.3341,4.32,4.2286,4.1576,4.1948,4.1576,4.117,4.0967,4.0933,4.0764,4.018,4.0113,4.0113,4.0113,4.0113,0.0,0.0,4.0113,4.0113,4.0113,4.0113,4.0113,0.0,0.0,0.0,0.0,4.2591,4.3335,4.2868,4.3978,4.5399,4.7124,4.7635,4.7906,4.7906,4.8646,4.8714,4.8206,4.8748,4.9018,4.9018,4.9018,4.9018,4.9018,4.9018,4.9018,4.9018,4.9018,4.9018,4.9018,4.9018,4.9018,4.9018,6.7793,6.8436,6.8842,6.8504,6.9417,6.9823,6.8707,6.8538,6.8402,6.7963,6.7557,6.7455,6.7827,6.7218,6.6508,6.5764,6.5392,6.5019,6.4613,6.2178,6.0926,6.1298,5.9201,5.7273,5.5715,5.5378,5.389,5.1185,5.0405,4.9661,4.9018,4.9018,4.8815,4.8477,4.8075,4.7496,4.6752,4.6007,4.5466,4.506,4.475,4.4615,4.4615,4.4615,4.4615,4.4615,4.4615,4.4818,4.5026,4.4716,4.4818,4.5026,4.4716,4.4615,4.4615,4.4615,4.4615,4.4615,4.4615,4.4615,4.4615,4.4615,4.4248,4.3944,4.3944,4.3335,4.2658,4.2354,4.2252,4.1914,4.0865,4.0967,4.0967,4.0214,4.0113,4.0113,4.0113,4.0113,0.0,4.0561,4.0595,4.0595,4.0595,4.0595,4.0595,4.0595,0.0,0.0,4.2185,4.3707,4.4412,4.3944,4.5365,4.6684,4.7872,4.824,4.824,4.7906,4.8646,4.8612,4.7906,4.868,4.9018,4.9018,4.9018,4.9018,4.9018,4.9018,4.9018,4.9018,4.9018,4.9018,4.9018,4.9018,4.9018,4.9018,6.8774,6.9316,6.9485,6.8876,6.935,6.935,6.7963,6.7827,6.7861,6.776,6.7726,6.7895,6.8368,6.7252,6.6136,6.5256,6.4613,6.4275,6.4275,6.1637,6.0351,6.0926,5.8287,5.6393,5.5547,5.4702,5.3315,5.1386,5.115,5.0405,4.9154,4.9052,4.868,4.8041,4.8041,4.7665,4.6921,4.6312,4.5974,4.5805,4.5162,4.4886,4.4784,4.4784,4.4784,4.475,4.4649,4.5128,4.5737,4.4886,4.5094,4.5568,4.4852,4.4615,4.4615,4.4615,4.4615,4.4615,4.4615,4.4615,4.4649,4.475,4.4682,4.4615,4.4615,4.4513,4.4073,4.2726,4.2895,4.2692,4.0899,4.0933,4.1001,4.0383,4.018,4.0113,4.0113,0.0,4.0519,4.1136,4.1407,4.1542,4.1542,4.1644,4.1711,4.1711,4.1813,4.2455,0.0,4.4587,4.5122,4.5122,4.6921,4.7939,4.8041,4.8714,4.8646,4.7906,4.8646,4.8612,4.7906,4.868,4.9018,4.9018,4.9018,4.9018,4.9018,4.9018,4.9018,4.9018,4.9018,4.9018,4.9018,4.9018,4.9018,4.9018,6.7929,6.7692,6.732,6.7184,6.776,6.7963,6.7117,6.7489,6.7692,6.7049,6.6981,6.6542,6.5425,6.5087,6.4377,6.3024,6.2787,6.2719,6.2719,6.1061,5.9877,5.9404,5.7712,5.6156,5.4803,5.3382,5.2469,5.2131,5.0879,5.0135,4.9898,4.9289,4.8951,4.8849,4.8849,4.8443,4.7703,4.7631,4.7192,4.6616,4.6481,4.6075,4.5534,4.5534,4.5534,4.5466,4.4818,4.5466,4.6413,4.5055,4.5094,4.5568,4.4852,4.4615,4.4615,4.4615,4.4615,4.4615,4.4615,4.4615,4.475,4.5365,4.506,4.4615,4.4615,4.4079,4.3538,4.3274,4.2828,4.2557,4.2861,4.1982,4.117,4.1035,4.0493,4.0113,4.0113,0.0,4.1068,4.1204,4.232,4.3037,4.3037,4.3673,4.4073,4.4073,4.4654,4.5094,4.5331,4.665,4.7394,4.7394,4.7703,4.8206,4.8815,4.8951,4.8646,4.7906,4.8646,4.8612,4.7906,4.868,4.9018,4.9018,4.9018,4.9018,4.9018,4.9018,4.9018,4.9018,4.9018,4.9018,4.9018,4.9018,4.9018,4.9018,6.8402,6.8267,6.8064,6.8064,6.8335,6.8301,6.7523,6.8064,6.8132,6.6981,6.7151,6.6846,6.5358,6.485,6.4174,6.3091,6.2618,6.2212,6.1839,6.0723,5.9776,5.9032,5.7239,5.5513,5.4025,5.3315,5.2739,5.23,5.1217,5.0473,5.0067,4.9357,4.9018,4.9018,4.9018,4.8815,4.8477,4.8041,4.7703,4.7361,4.6955,4.6583,4.6244,4.5838,4.594,4.621,4.5466,4.5872,4.6684,4.6007,4.5737,4.5703,4.5771,4.5258,4.4682,4.506,4.5196,4.5196,4.5196,4.5466,4.5872,4.621,4.6041,4.5771,4.5771,4.55,4.5128,4.4722,4.4688,4.4316,4.3031,4.2929,4.276,4.1914,4.1508,0.0,0.0,4.2185,4.2557,4.2963,4.3978,4.4654,4.4654,4.4621,4.4615,4.4615,4.4519,4.4993,4.6244,4.6955,4.7665,4.8477,4.8511,4.868,4.9018,4.9018,4.8849,4.8511,4.9255,4.9424,4.9086,4.9424,4.9593,4.956,4.9187,4.9018,4.9018,4.9018,4.9018,4.9018,4.9018,4.9018,4.9018,4.9018,4.9018,4.9018,6.8673,6.8673,6.8571,6.8571,6.8571,6.8368,6.776,6.8166,6.8132,6.6981,6.7286,6.7083,6.5595,6.4918,6.4241,6.3328,6.2719,6.2009,6.1095,6.0452,5.9708,5.8795,5.663,5.4837,5.3551,5.3518,5.3112,5.23,5.1589,5.0845,5.0067,4.9357,4.9018,4.9018,4.9018,4.9018,4.8951,4.8409,4.8173,4.8139,4.753,4.7192,4.6989,4.6447,4.6447,4.6684,4.5974,4.6278,4.6989,4.6447,4.6244,4.6244,4.6481,4.5872,4.5224,4.5771,4.6075,4.6177,4.6007,4.638,4.6819,4.7022,4.7056,4.7056,4.7056,4.6921,4.6583,4.5838,4.6007,4.5635,4.347,4.3938,4.4175,4.276,0.0,0.0,0.0,4.3274,4.3775,4.4722,4.5669,4.6143,4.5974,4.5737,4.5534,4.5365,4.4959,4.5466,4.7225,4.7293,4.7834,4.8951,4.9018,4.9018,4.9018,4.9187,4.9255,4.9255,4.9999,5.0338,5.0338,5.0338,5.0236,5.0067,4.9492,4.9255,4.9255,4.9086,4.9221,4.9492,4.9323,4.9357,4.9492,4.9323,4.9255,4.9221,6.7827,6.7455,6.6981,6.6981,6.6981,6.6948,6.6914,6.6948,6.6948,6.6812,6.688,6.6339,6.485,6.4647,6.4038,6.2584,6.2415,6.1772,6.0283,6.0148,5.9471,5.8017,5.5852,5.4296,5.3518,5.3518,5.3112,5.23,5.1589,5.0845,5.0067,4.9357,4.9018,4.9018,4.9018,4.9018,4.9018,4.8951,4.8917,4.8917,4.8849,4.8443,4.7804,4.7736,4.7361,4.6684,4.5974,4.6616,4.753,4.5432,4.6075,4.75,4.621,4.6177,4.665,4.6684,4.7192,4.7597,4.6887,4.6752,4.6955,4.7665,4.7804,4.7804,4.7804,4.7293,4.6583,4.5838,4.5196,4.4919,4.5365,4.4959,4.4316,4.347,0.0,0.0,4.2354,4.2963,4.395,4.5432,4.6887,4.7496,4.6786,4.7902,4.8409,4.7733,4.824,4.868,4.8849,4.8849,4.8883,4.9018,4.9018,4.9018,4.9018,4.9661,4.9999,5.0033,5.0777,5.115,5.115,5.115,5.0744,5.0101,5.0033,4.9999,4.9965,4.9289,4.983,5.098,5.0304,5.0439,5.098,5.027,4.9999,4.9898,6.7252,6.7015,6.6812,6.6812,6.7184,6.7489,6.7489,6.8301,6.8571,6.7624,6.7929,6.732,6.4884,6.4613,6.4005,6.2516,6.2381,6.1738,6.0216,6.0114,5.9032,5.6664,5.575,5.4735,5.3551,5.3518,5.3348,5.3044,5.1826,5.1082,5.0777,4.956,4.9018,4.9018,4.9018,4.9018,4.9018,4.9018,4.9018,4.9018,4.9018,4.8849,4.8545,4.8041,4.8003,4.8071,4.7327,4.7398,4.7838,4.7462,4.7293,4.7293,4.7631,4.7293,4.6887,4.7361,4.7699,4.7939,4.8139,4.8173,4.824,4.8511,4.8578,4.8578,4.8578,4.8376,4.8071,4.78,4.7158,4.6583,4.6413,4.6143,4.5838,4.5568,0.0,4.5229,4.5703,4.6012,4.6384,4.6993,4.797,4.8477,4.8173,4.8274,4.8409,4.8578,4.8849,4.9018,4.9018,4.9018,4.9221,4.9661,4.9661,4.9661,4.9661,4.9965,5.0541,5.1454,5.1758,5.2131,5.2604,5.2131,5.1725,5.142,5.098,5.0777,5.0777,5.0507,5.071,5.1183,5.0913,5.0947,5.1183,5.0913,5.0777,5.0744,6.7523,6.7151,6.688,6.7117,6.7387,6.7624,6.7861,6.8808,6.918,6.8368,6.8538,6.776,6.5222,6.4749,6.4005,6.2516,6.2178,6.1501,6.0182,5.9674,5.8389,5.6156,5.5817,5.5141,5.3856,5.3619,5.3382,5.3112,5.2063,5.1454,5.1183,4.9932,4.9357,4.9323,4.912,4.9018,4.9018,4.9018,4.9018,4.9018,4.9018,4.9018,4.8951,4.8443,4.8443,4.8612,4.8075,4.7906,4.7939,4.824,4.7936,4.7631,4.8409,4.8139,4.7597,4.8105,4.8274,4.8376,4.8883,4.9018,4.9018,4.9018,4.9018,4.9018,4.9018,4.8815,4.8646,4.8646,4.8274,4.7767,4.7259,4.7327,4.7327,4.6853,4.6786,4.6989,4.7496,4.7564,4.7733,4.8176,4.8714,4.8917,4.868,4.8409,4.8376,4.8646,4.9086,4.9458,4.9695,4.9695,4.9932,5.0439,5.0439,5.0541,5.0777,5.0777,5.1285,5.23,5.257,5.2976,5.3484,5.2942,5.2536,5.2266,5.1792,5.1555,5.1555,5.1319,5.1488,5.1928,5.1657,5.1725,5.1894,5.1657,5.1555,5.1522,6.8808,6.7861,6.7049,6.776,6.732,6.7083,6.7793,6.7929,6.8199,6.9011,6.8402,6.732,6.5831,6.5019,6.4005,6.2516,6.1738,6.096,6.0148,5.8727,5.7577,5.6833,5.6122,5.5344,5.46,5.389,5.3112,5.23,5.23,5.1928,5.1217,5.0439,5.0101,5.0067,4.9323,4.9018,4.9018,4.9018,4.9018,4.9018,4.9018,4.9018,4.9018,4.9018,4.8545,4.7906,4.7906,4.7906,4.78,4.7056,4.78,4.8883,4.8142,4.8409,4.9018,4.9018,4.9018,4.9018,4.9018,4.9018,4.9018,4.9018,4.9018,4.9018,4.9018,4.8443,4.7906,4.7906,4.7906,4.7906,4.7906,4.8511,4.8511,4.7056,4.6819,4.6819,4.6819,4.6819,4.7361,4.8849,4.9018,4.8714,4.7973,4.8578,4.8714,4.7973,4.9289,5.0439,5.1183,5.1185,5.1185,5.1217,5.1217,5.1589,5.23,5.23,5.23,5.2334,5.3112,5.3518,5.3518,5.3518,5.3078,5.23,5.23,5.23,5.2266,5.1522,5.2131,5.3416,5.2638,5.2807,5.3416,5.2604,5.23,5.2198,6.8368,6.7895,6.7489,6.7184,6.7861,6.8504,6.8707,6.962,6.9992,6.9214,6.8876,6.776,6.5222,6.4715,6.4005,6.2516,6.2178,6.1501,6.0182,5.9201,5.8355,5.7577,5.6393,5.5344,5.46,5.389,5.3382,5.3145,5.257,5.2198,5.1961,5.1217,5.0879,5.0845,5.0101,4.9763,4.9729,4.9221,4.9018,4.9018,4.9018,4.9018,4.9018,4.9018,4.8883,4.868,4.868,4.868,4.8646,4.8409,4.8646,4.8951,4.8748,4.8815,4.9018,4.9018,4.9018,4.912,4.9627,4.939,4.9018,4.9018,4.9018,4.9018,4.9018,4.8849,4.868,4.868,4.8244,4.8041,4.8578,4.8443,4.8274,4.8342,4.8342,4.8511,4.9018,4.868,4.868,4.9661,4.9323,4.8917,4.8714,4.9323,4.9898,5.0171,5.1116,5.1725,5.1961,5.1488,5.1454,5.1961,5.1961,5.2367,5.3145,5.257,5.257,5.3145,5.3382,5.3518,5.3518,5.3518,5.3382,5.3145,5.3145,5.3145,5.3112,5.2909,5.3078,5.3484,5.3247,5.3281,5.3484,5.3247,5.3145,5.3112,6.8504,6.8368,6.8233,6.7793,6.847,6.9214,6.9485,7.0297,7.0534,6.9654,6.9282,6.8064,6.5324,6.4783,6.4005,6.2516,6.211,6.1298,5.9776,5.9268,5.8693,5.7915,5.6765,5.5784,5.504,5.4296,5.3788,5.3518,5.301,5.2773,5.2773,5.1995,5.1657,5.1623,5.0879,5.0371,5.0067,4.9627,4.9255,4.9018,4.9018,4.9018,4.9018,4.9018,4.9018,4.9018,4.9018,4.9018,4.9018,4.9018,4.9018,4.9018,4.9018,4.9018,4.9018,4.9018,4.9018,4.9154,4.9898,4.9763,4.9492,4.9796,4.9424,4.9018,4.9018,4.9221,4.9357,4.9052,4.8883,4.8815,4.8984,4.8646,4.8477,4.8951,4.9018,4.9255,4.9999,4.9729,4.9593,5.0033,4.9695,4.9424,4.9424,4.983,5.0541,5.1555,5.2063,5.2435,5.2773,5.2638,5.2739,5.3213,5.3213,5.345,5.3923,5.3179,5.301,5.3518,5.3518,5.3518,5.3518,5.3518,5.3518,5.3518,5.3518,5.3518,5.3518,5.3518,5.3518,5.3518,5.3518,5.3518,5.3518,5.3518,5.3518,5.3518,6.8977,6.9113,6.9079,6.9011,6.9045,6.9316,6.9992,7.0195,7.0263,7.0195,6.9553,6.8267,6.6034,6.5087,6.4038,6.2618,6.1806,6.0757,5.9201,5.9099,5.8761,5.7915,5.7273,5.6562,5.5818,5.5006,5.4262,5.3585,5.3551,5.3518,5.3484,5.2739,5.2401,5.2367,5.1657,5.0947,5.027,5.0135,4.9695,4.9086,4.9018,4.9018,4.9018,4.9018,4.9018,4.9018,4.9018,4.9018,4.9018,4.9018,4.9052,4.9086,4.9086,4.9154,4.9221,4.9221,4.9221,4.9357,5.0101,5.0236,5.0371,5.1116,5.0236,4.9221,4.9221,4.9661,4.9932,4.9323,4.9729,4.9965,4.9221,4.9154,4.9187,4.912,4.9154,4.9458,5.0168,5.0236,5.0202,5.027,5.0236,5.0202,5.0202,5.0236,5.0879,5.23,5.2469,5.2841,5.3551,5.4296,5.4702,5.4702,5.4634,5.46,5.46,5.3923,5.3585,5.3518,5.3585,5.3551,5.3518,5.3585,5.3551,5.3518,5.3518,5.3518,5.3518,5.3518,5.3518,5.3518,5.3518,5.3518,5.3518,5.3518,5.3518,5.3518,6.918,6.9113,6.891,6.8267,6.8673,6.9147,6.9316,7.0331,7.0872,7.0263,6.9553,6.847,6.6745,6.5392,6.4241,6.3362,6.2584,6.1501,5.9979,5.9877,5.9268,5.7949,5.7746,5.7306,5.6596,5.5277,5.4499,5.4363,5.3788,5.3518,5.3518,5.3315,5.3247,5.3213,5.2401,5.1961,5.1758,5.0574,4.9999,4.9796,4.9221,4.9018,4.9018,4.9018,4.9018,4.9018,4.9018,4.9018,4.9018,4.9018,4.939,4.9864,4.9864,5.027,5.0744,5.0744,5.0744,5.0879,5.1623,5.142,5.115,5.1894,5.1386,5.0744,5.0744,5.0405,5.0202,5.0642,5.0879,5.0744,4.9999,5.0338,5.0541,4.9965,5.0338,5.098,5.1725,5.1352,5.1183,5.1758,5.1319,5.098,5.098,5.1488,5.2232,5.3179,5.3754,5.416,5.4329,5.5074,5.548,5.548,5.4905,5.46,5.46,5.4431,5.4059,5.3518,5.4093,5.4059,5.3518,5.4093,5.4059,5.3518,5.3518,5.3518,5.3518,5.3518,5.3518,5.3518,5.3518,5.3518,5.3518,5.3518,5.3518,5.3518,6.8233,6.918,6.9789,6.8673,6.9417,7.0161,7.0161,7.0804,7.1041,7.0297,6.9553,6.8368,6.6474,6.5256,6.4174,6.3057,6.2618,6.1907,6.0757,6.0655,6.0013,5.849,5.8423,5.8084,5.734,5.5886,5.4938,5.46,5.3856,5.3518,5.3518,5.3518,5.3518,5.3484,5.3078,5.2672,5.2266,5.1488,5.0947,5.0574,4.983,4.9526,4.9526,4.9526,4.9526,4.9526,4.9526,4.9526,4.9526,4.9526,4.9999,5.0608,5.0608,5.0913,5.1185,5.1185,5.1185,5.1386,5.2097,5.2029,5.1928,5.2672,5.23,5.1657,5.1285,5.1183,5.115,5.1217,5.1488,5.1522,5.0777,5.0947,5.1082,5.0676,5.0947,5.1488,5.2198,5.1961,5.186,5.2266,5.1961,5.1725,5.1725,5.2739,5.3551,5.3991,5.4702,5.5108,5.5108,5.5818,5.6224,5.6224,5.5852,5.5649,5.5649,5.531,5.4938,5.4566,5.4938,5.4938,5.4566,5.4566,5.4397,5.4025,5.3653,5.3518,5.3518,5.3518,5.3518,5.3518,5.3518,5.3518,5.3518,5.3518,5.3518,5.3518,6.7286,6.9214,7.0703,6.935,7.0128,7.0939,7.0939,7.1041,7.0906,7.0263,6.9553,6.8368,6.6474,6.529,6.4005,6.2516,6.2381,6.2076,6.1366,6.1298,6.0622,5.9099,5.9032,5.866,5.7915,5.6596,5.5547,5.4769,5.3923,5.3518,5.3518,5.3518,5.3518,5.3518,5.3518,5.3145,5.2503,5.2367,5.1961,5.1319,5.0574,5.027,5.027,5.027,5.027,5.027,5.027,5.027,5.027,5.027,5.0777,5.1386,5.1386,5.1455,5.1589,5.1589,5.1589,5.1758,5.2503,5.2604,5.2706,5.3484,5.3078,5.2334,5.1758,5.1961,5.2164,5.1691,5.2097,5.2266,5.1555,5.1522,5.1523,5.1388,5.1522,5.1826,5.2435,5.2503,5.2503,5.2503,5.2503,5.257,5.2672,5.3856,5.4634,5.4769,5.548,5.5919,5.5919,5.6596,5.7002,5.7002,5.6867,5.6799,5.6799,5.619,5.5919,5.5919,5.6021,5.5953,5.5647,5.5074,5.4702,5.4566,5.3822,5.3518,5.3518,5.3518,5.3518,5.3518,5.3518,5.3518,5.3518,5.3518,5.3518,5.3518,6.7929,6.9147,7.006,6.9248,6.9282,6.9417,6.9417,6.9925,7.0297,7.0195,6.9553,6.8977,6.8673,6.6237,6.4005,6.2516,6.2381,6.2076,6.1366,6.1298,6.0622,5.9099,5.9032,5.866,5.7915,5.707,5.6292,5.5581,5.4194,5.3518,5.3518,5.3518,5.3518,5.3518,5.3518,5.345,5.3281,5.2604,5.2232,5.2097,5.1352,5.1082,5.1082,5.1082,5.1082,5.1082,5.1082,5.1082,5.1082,5.1082,5.1555,5.2164,5.2164,5.2638,5.3179,5.3179,5.3179,5.3348,5.4093,5.3822,5.3518,5.4262,5.389,5.3315,5.3213,5.2739,5.2469,5.3078,5.3281,5.3078,5.23,5.2739,5.2976,5.2266,5.2739,5.3213,5.3315,5.3348,5.3348,5.3348,5.3348,5.3585,5.4228,5.4465,5.4871,5.5513,5.6258,5.6664,5.6664,5.734,5.7746,5.7746,5.7137,5.6799,5.6799,5.6697,5.6664,5.6664,5.7306,5.6934,5.5681,5.5615,5.5209,5.4566,5.3822,5.3518,5.3518,5.3518,5.3518,5.3518,5.3518,5.3518,5.3518,5.3518,5.3518,5.3518,6.8064,6.9485,7.0567,6.9823,6.9722,6.9722,6.9722,6.9992,7.0026,6.962,6.891,6.8132,6.7286,6.4918,6.3091,6.2448,6.2381,6.2245,6.1941,6.1907,6.1231,5.9674,5.9607,5.9066,5.7915,5.7171,5.663,5.6325,5.4837,5.4126,5.4093,5.3687,5.3518,5.3518,5.3518,5.3518,5.3484,5.3112,5.2976,5.2909,5.2131,5.1826,5.1826,5.1826,5.1826,5.1826,5.1826,5.1826,5.1826,5.1826,5.2334,5.2976,5.2976,5.3213,5.3518,5.3518,5.3518,5.3653,5.4397,5.4363,5.4296,5.504,5.4972,5.4735,5.4735,5.4465,5.4093,5.3619,5.3518,5.3382,5.3044,5.3281,5.3382,5.3044,5.3281,5.3518,5.3518,5.3518,5.3518,5.3518,5.3518,5.3788,5.4532,5.4972,5.5513,5.6258,5.7002,5.7408,5.7408,5.7712,5.7881,5.7881,5.7577,5.7408,5.7408,5.7408,5.7408,5.7408,5.7746,5.7543,5.69,5.6494,5.6156,5.575,5.46,5.4126,5.4093,5.3687,5.3518,5.3518,5.3518,5.3518,5.3518,5.3518,5.3518,5.3518]}]]